GFSNW_700_rhum_000.txt.gz
RH
42 26 8 6 18 18 30 52 62 94 99 90 87 89 92 91 95 83 86 81 81 84 87 80 74 74 74 65 62 63 60 66 66 65 61 57 49 46 42 40 39 39 39 35
66 37 7 6 12 16 25 46 68 77 84 82 86 88 90 83 83 74 68 76 77 89 82 78 84 68 68 70 69 64 59 66 70 62 57 54 51 44 41 40 45 48 43 35
67 63 36 8 8 15 19 39 59 72 72 90 90 95 87 79 68 62 56 64 69 66 64 64 64 69 74 70 67 58 55 61 61 55 54 59 53 45 43 49 55 49 44 37
46 75 44 10 7 19 19 26 54 59 68 67 64 63 66 61 65 66 64 68 71 64 69 61 60 58 55 56 51 48 46 58 54 52 49 44 35 28 26 28 21 50 20 41
38 60 72 13 7 20 21 20 38 56 54 47 52 50 47 51 54 52 59 60 58 56 56 62 54 48 47 44 43 42 40 51 43 28 27 38 37 24 35 36 32 46 49 43
51 41 65 66 12 12 18 21 27 30 24 30 27 27 29 36 38 40 46 51 50 46 42 44 45 46 45 41 36 38 41 41 48 46 44 51 48 38 40 39 39 40 43 41
63 44 45 80 62 16 10 17 17 17 18 16 18 16 18 24 34 33 36 34 32 35 32 33 34 33 32 33 36 42 58 63 60 57 58 68 44 41 41 41 44 46 48 50
67 62 43 58 78 75 39 20 20 19 23 21 23 22 30 36 40 40 40 39 39 34 35 55 73 72 72 70 69 69 67 55 62 67 68 56 46 46 49 55 54 54 55 54
56 70 62 47 49 73 75 69 52 32 30 30 29 34 40 53 59 76 77 92 96 89 78 80 79 83 71 72 69 63 59 58 66 72 74 85 54 55 55 59 59 60 60 62
28 52 78 69 60 48 66 74 76 81 71 54 50 51 68 76 82 82 82 96 92 88 88 87 82 74 73 76 74 68 68 68 66 66 74 72 54 63 64 63 61 64 68 75
23 22 44 81 81 79 60 54 67 82 89 89 70 85 96 99 95 86 93 90 88 87 84 84 80 80 77 76 74 71 74 75 79 82 78 76 61 61 72 75 78 81 83 84
17 19 25 45 71 98 97 75 66 67 76 88 96 96 96 89 96 96 95 91 83 83 82 79 75 76 75 81 86 84 78 68 72 80 68 63 72 81 79 78 79 84 89 96
10 12 15 23 45 60 93 100 100 81 72 75 74 86 96 97 100 99 95 99 93 92 90 88 97 96 93 98 95 87 87 72 74 69 46 56 64 69 75 83 92 93 99 94
10 7 6 11 22 34 43 62 96 98 96 96 97 83 89 87 96 100 100 99 99 96 92 97 99 99 100 98 94 54 80 69 59 75 72 71 76 95 90 95 92 89 88 88
19 7 3 3 10 30 39 49 58 59 58 89 85 80 90 99 99 98 98 97 95 96 93 95 99 100 98 98 92 22 33 40 56 54 48 59 53 61 69 70 67 83 88 84
23 11 3 2 7 18 31 50 65 84 68 69 88 51 67 87 89 89 87 86 89 87 80 96 99 97 99 98 83 14 31 48 41 34 26 26 31 50 59 68 72 61 76 70
18 10 3 5 11 19 35 54 65 62 80 97 66 53 38 46 45 51 57 68 81 89 100 82 84 92 100 99 47 24 38 38 37 41 42 42 50 54 57 63 71 71 67 83
11 5 8 15 28 36 38 44 56 74 90 97 75 66 50 52 49 49 56 66 85 99 99 63 60 73 83 50 22 30 36 36 34 34 39 49 56 57 56 54 56 61 74 88
8 14 30 39 42 48 41 43 55 62 86 80 54 49 61 46 55 69 73 76 81 76 70 58 67 78 72 20 28 34 37 41 41 42 41 43 47 50 49 50 52 53 61 81
38 56 60 56 56 45 45 39 33 47 58 59 29 30 49 42 55 68 68 74 60 76 86 70 96 51 24 32 34 33 44 48 46 44 46 46 49 52 52 45 44 54 71 94
71 81 76 64 42 20 12 6 8 15 14 12 10 14 28 51 54 72 75 72 58 67 82 62 81 42 28 33 36 41 48 51 50 50 54 50 57 56 36 37 56 83 98 99
76 88 82 73 26 8 8 10 11 10 13 13 14 20 28 42 52 77 75 57 53 54 79 82 46 33 36 38 43 49 51 51 52 58 60 56 47 28 23 23 74 100 90 66
100 100 91 33 14 15 13 11 11 13 14 28 37 36 40 38 41 60 58 65 83 72 87 70 39 34 37 46 53 55 58 61 60 63 61 47 38 34 27 32 38 34 31 26
99 97 32 9 10 10 9 8 20 29 28 32 19 18 20 32 47 63 68 94 91 92 96 41 29 41 50 57 59 63 69 73 71 72 62 52 38 29 26 24 24 23 25 26
76 44 20 17 19 19 23 24 30 31 29 29 32 31 27 25 49 63 75 87 95 90 41 39 50 49 61 67 70 74 76 81 81 77 64 44 40 40 41 40 40 41 44 44
81 30 20 18 19 23 24 26 31 28 33 44 45 35 35 45 52 81 74 90 67 30 30 46 40 48 62 72 74 80 82 88 86 76 50 48 53 55 57 60 63 62 61 59
92 46 27 25 27 24 32 22 24 29 35 34 33 44 36 60 80 100 75 34 22 31 45 51 43 67 83 80 84 94 88 87 82 60 58 61 63 66 69 74 73 70 71 75

GFSNW_700_rhum_003.txt.gz
RH
70 33 7 6 19 23 36 48 67 100 98 89 81 80 98 99 99 98 100 77 74 76 77 76 71 68 60 59 59 61 61 61 62 61 59 57 54 51 46 40 43 40 40 36
65 45 28 6 15 24 44 54 79 86 94 85 77 82 89 88 87 95 97 99 79 84 84 76 71 68 59 59 57 58 63 66 71 66 64 63 54 49 47 44 45 44 47 38
44 63 46 7 12 19 31 45 81 85 76 89 69 80 88 78 72 74 80 86 91 84 73 72 73 69 73 67 62 59 55 63 54 56 50 51 54 48 45 43 44 40 35 33
39 68 42 10 10 22 27 37 67 74 86 89 89 82 79 65 71 77 77 84 81 77 72 63 64 69 71 70 59 51 43 58 50 46 45 43 39 34 33 31 30 39 23 25
51 56 66 17 8 25 30 37 49 58 53 52 55 56 57 59 60 62 72 69 63 60 62 62 59 61 58 49 41 42 36 43 42 34 25 20 17 17 18 18 19 21 21 29
66 38 67 56 12 19 29 31 33 43 33 39 42 45 48 53 53 63 65 61 58 57 54 56 52 50 42 37 39 37 34 30 28 32 39 39 40 36 41 42 44 45 44 44
70 59 41 80 20 13 20 33 26 25 17 24 21 18 30 40 39 46 56 56 52 50 53 56 53 48 40 31 25 24 26 33 44 49 52 67 44 42 40 41 42 48 48 48
56 72 48 58 73 17 14 24 22 19 16 12 16 15 22 30 34 38 38 36 33 31 30 29 28 31 35 43 52 53 54 54 57 60 66 50 39 41 46 51 51 54 49 53
31 67 71 45 73 76 33 26 21 18 20 15 15 18 22 30 32 37 38 37 37 48 59 60 69 72 70 66 66 65 64 66 64 67 66 77 57 54 55 57 51 58 62 63
28 30 73 73 51 59 77 70 60 45 33 26 26 28 32 38 39 49 60 72 82 72 77 79 76 75 71 71 71 65 61 63 66 70 72 60 54 58 62 61 67 70 73 76
24 23 30 74 81 66 57 73 82 85 78 62 42 35 38 51 63 71 70 90 90 88 84 78 76 76 75 76 72 69 68 70 73 75 77 74 68 76 78 79 84 84 82 83
19 19 20 26 74 89 89 78 68 73 87 91 80 66 65 79 80 82 79 79 79 82 79 76 73 73 74 70 72 75 75 72 76 70 62 74 82 81 83 80 80 79 79 85
20 13 16 20 29 55 91 100 99 93 84 93 99 97 92 96 94 88 88 88 91 87 84 84 83 89 88 83 77 69 68 70 79 68 55 64 69 71 72 74 71 62 65 83
30 16 11 10 15 23 37 56 90 99 99 93 90 91 98 100 100 100 100 100 99 97 95 93 90 91 91 72 64 75 74 73 68 65 52 59 50 58 42 34 36 60 71 59
50 33 14 7 6 11 23 32 29 35 69 85 100 98 100 100 100 100 100 97 98 96 95 98 94 96 96 78 80 46 34 33 45 35 40 32 21 24 34 49 51 47 43 45
58 43 25 8 3 5 12 20 28 30 24 42 68 63 80 94 100 98 92 94 99 98 98 98 97 99 97 78 42 24 33 35 37 36 28 36 50 46 41 40 39 38 42 45
60 37 26 11 3 5 12 23 30 37 42 61 75 42 55 87 97 96 87 99 98 96 98 98 100 99 98 72 31 30 37 35 39 48 41 36 37 36 35 36 38 42 45 48
65 34 20 8 8 13 18 24 35 45 73 90 69 73 54 50 66 80 81 90 93 100 99 99 100 100 99 46 29 27 33 40 45 36 35 36 37 39 42 42 45 48 50 49
72 36 15 12 22 34 34 37 50 68 76 99 80 59 53 60 71 73 75 86 100 99 100 100 98 97 52 28 24 30 41 36 34 42 45 45 45 49 48 45 45 50 48 39
75 36 16 26 42 46 52 58 54 68 83 72 44 43 44 38 48 89 93 99 100 100 98 99 99 50 28 30 28 29 33 36 47 46 46 49 51 53 52 45 43 38 25 26
70 43 29 54 58 65 68 53 32 32 30 20 21 30 32 44 48 63 65 60 62 64 70 66 91 41 34 32 34 39 45 49 51 52 50 51 54 55 50 42 37 33 24 26
79 50 62 75 68 36 18 19 17 14 11 13 11 17 37 69 65 68 70 65 60 79 80 79 58 37 38 39 40 49 52 54 55 52 51 54 56 58 53 52 43 28 24 25
75 84 89 81 73 44 34 21 12 12 9 9 11 30 56 96 93 94 79 80 98 80 97 72 35 34 38 46 51 55 57 60 62 60 60 57 61 62 63 48 33 31 30 29
96 96 91 74 38 34 31 24 12 9 10 18 42 52 54 56 58 75 65 85 75 86 79 36 36 44 49 46 46 52 60 67 64 56 60 64 64 65 50 42 44 46 49 51
96 90 90 78 29 12 15 13 14 21 41 34 31 29 26 24 25 24 43 57 72 61 31 36 44 49 52 53 46 37 65 71 56 66 67 73 71 58 50 53 55 60 65 67
96 89 49 32 25 20 22 24 51 58 36 37 38 41 41 34 27 31 34 57 37 28 24 27 33 39 52 49 50 55 49 56 60 66 70 81 73 61 61 64 69 74 77 80
91 77 59 27 23 31 54 51 41 35 39 38 40 40 37 42 42 50 38 29 26 26 29 32 38 45 46 50 58 70 75 77 67 72 80 86 69 66 66 71 77 80 86 90

GFSNW_700_rhum_009.txt.gz
RH
60 54 58 44 9 24 47 57 75 98 100 100 100 100 100 89 94 98 97 94 98 100 95 100 99 92 91 80 77 66 56 50 56 54 51 53 52 49 48 44 46 44 45 39
61 58 52 57 10 25 54 84 94 99 99 100 100 100 98 99 99 100 100 87 87 88 82 95 95 76 75 74 65 66 53 49 62 63 56 54 52 51 49 48 45 45 49 38
55 56 46 64 11 42 82 89 91 92 95 94 100 99 100 100 100 99 99 92 87 94 95 87 83 79 63 61 60 71 58 58 47 55 53 52 54 50 50 51 51 48 45 40
53 54 47 63 11 16 45 59 87 89 87 87 100 96 99 99 99 99 100 99 80 88 86 75 71 70 65 64 57 67 68 60 57 51 51 48 46 44 48 54 52 50 45 42
49 55 50 66 13 16 32 67 73 83 97 94 97 94 99 94 97 90 96 93 84 71 69 68 67 63 60 60 68 66 63 57 53 54 51 51 56 57 57 55 53 51 50 48
45 51 64 61 29 13 32 50 73 86 93 90 81 74 88 98 95 97 98 100 95 84 60 52 62 66 68 63 65 64 61 56 54 48 47 42 34 38 46 50 48 46 47 36
43 42 70 47 52 11 27 48 65 71 73 82 77 68 74 85 86 92 98 94 84 84 78 81 93 75 65 62 62 57 52 42 48 29 34 50 33 31 36 41 38 41 42 48
42 38 63 55 65 15 22 41 57 48 49 52 51 59 61 68 66 84 91 95 86 78 77 83 95 97 78 72 67 63 53 37 28 36 44 36 47 45 49 49 52 51 54 55
39 38 42 71 50 46 14 35 50 36 28 33 32 42 57 49 67 75 74 71 67 72 76 72 50 50 44 40 36 38 31 29 32 51 57 63 52 55 55 55 56 57 55 55
35 38 34 67 56 62 14 22 41 32 26 23 30 32 43 41 58 65 60 56 65 71 68 46 42 46 45 57 63 59 53 57 58 60 59 54 54 58 58 56 43 39 51 55
34 35 33 39 72 59 50 20 34 29 24 23 25 28 31 32 39 39 38 42 43 39 35 46 55 67 60 67 66 64 61 65 66 68 66 63 53 52 57 52 48 49 58 56
36 34 30 28 68 63 74 52 25 27 26 31 27 30 33 36 38 41 40 43 53 53 55 68 74 73 70 70 68 67 64 61 59 58 57 53 49 53 55 54 56 58 61 64
39 34 26 24 34 77 62 78 77 54 53 46 51 34 37 46 52 52 58 58 73 76 83 82 78 72 72 66 67 67 64 64 68 62 59 55 57 64 69 70 70 71 72 62
42 39 31 21 22 53 83 66 70 83 84 87 80 70 50 43 45 58 64 61 69 75 80 84 80 79 79 79 78 78 74 70 64 61 63 61 62 64 65 63 55 53 47 30
48 45 35 19 18 28 67 93 83 82 84 83 84 88 85 78 63 60 77 83 81 84 83 81 81 81 84 85 88 81 74 71 70 57 52 58 59 53 51 49 40 33 27 28
54 48 35 26 14 12 27 63 94 100 100 94 96 88 85 92 94 90 88 92 92 87 84 82 87 94 91 88 79 49 47 53 45 46 43 44 48 36 35 34 29 28 32 34
60 58 55 50 30 11 11 23 45 90 99 98 98 97 87 98 98 99 99 96 92 92 95 100 100 94 92 94 83 43 41 36 30 28 29 34 32 31 33 37 39 41 41 39
68 70 68 59 41 23 16 17 18 36 57 84 91 62 51 64 99 100 99 98 98 98 100 100 100 97 98 86 56 37 33 43 40 34 31 29 32 36 40 45 45 43 36 26
78 77 74 56 42 28 24 19 15 22 57 89 64 67 54 41 90 100 100 100 100 99 99 100 99 94 87 55 48 38 31 33 35 36 37 38 44 47 48 44 41 33 28 29
88 84 77 60 46 40 28 29 40 73 82 60 60 67 79 46 73 100 100 99 98 98 98 99 98 86 69 51 51 48 47 46 48 46 50 50 46 44 45 44 41 38 35 37
96 88 78 69 68 42 38 41 74 54 52 42 43 41 55 60 99 100 98 98 98 99 96 99 100 45 36 35 40 50 56 42 47 48 46 42 44 48 44 36 34 40 41 44
95 88 78 89 91 69 54 61 52 39 37 27 31 48 80 94 100 99 98 96 87 95 87 98 73 32 34 35 37 38 36 36 41 44 47 46 39 31 20 18 30 33 44 52
99 97 97 96 93 78 62 58 47 34 26 22 20 50 99 100 100 99 87 81 82 65 87 83 38 32 40 42 39 39 42 41 44 46 33 34 23 12 14 17 29 43 54 62
97 96 96 95 88 69 57 54 44 40 32 19 16 48 100 100 100 85 72 90 87 98 90 43 38 39 44 46 49 50 50 52 42 38 23 12 9 18 26 34 43 51 68 70
96 96 96 91 87 71 61 52 46 35 20 16 26 76 83 100 95 78 77 90 92 74 42 37 41 45 49 54 55 52 50 41 24 13 8 7 8 25 44 41 37 51 69 75
96 94 91 87 89 79 58 52 45 31 24 24 65 100 95 97 80 75 61 65 45 40 38 40 42 51 51 50 46 37 24 17 12 8 7 8 13 25 50 59 65 74 81 81
96 93 84 83 76 79 55 50 46 38 23 29 51 64 65 57 38 41 36 34 34 35 33 31 33 34 32 31 29 26 25 20 13 9 7 8 16 43 54 64 76 80 89 85

GFSNW_700_rhum_012.txt.gz
RH
54 54 64 51 71 21 27 61 77 89 100 99 98 99 99 99 98 93 98 99 100 88 83 99 95 92 98 92 83 68 66 59 72 69 55 59 56 55 52 49 53 51 50 45
54 51 66 53 73 23 36 74 93 100 100 100 100 100 98 97 99 99 100 100 96 83 87 85 84 98 100 98 86 72 65 57 70 74 68 56 56 56 52 48 45 43 50 42
58 48 62 56 67 24 66 97 93 94 99 100 100 100 99 99 100 100 100 97 98 92 83 86 99 100 97 81 77 71 61 55 56 66 65 62 55 53 53 50 50 49 47 44
59 45 57 60 66 20 63 89 68 87 94 95 99 100 100 100 100 100 96 98 93 90 89 87 97 96 92 84 88 80 64 56 50 52 53 52 53 50 50 52 49 50 48 48
59 44 57 63 62 28 16 38 43 76 84 99 100 100 100 100 100 99 94 87 98 85 70 73 85 79 81 85 84 82 75 60 58 56 50 55 53 49 46 44 48 50 52 52
58 42 52 69 55 52 14 34 52 69 92 98 100 94 99 100 99 100 89 87 98 98 91 72 75 66 68 70 65 75 79 62 58 57 59 59 58 53 53 54 53 52 55 51
57 42 48 72 55 67 13 29 45 69 87 96 95 79 94 96 99 98 99 93 90 84 89 82 89 88 68 64 66 63 67 65 57 45 47 46 41 38 38 48 54 58 57 57
52 44 45 66 63 60 21 21 39 62 75 80 88 75 87 86 97 99 96 99 97 89 90 88 78 83 79 79 87 77 74 55 42 34 36 35 34 31 32 34 35 36 36 42
48 46 42 46 76 54 54 16 32 58 56 39 59 59 73 84 79 100 99 99 99 100 100 92 93 96 92 76 69 59 55 49 43 38 46 57 38 35 38 50 51 51 54 59
43 47 43 41 74 58 64 15 26 52 50 29 37 57 65 74 80 86 95 98 97 96 90 96 63 78 76 48 44 50 62 54 40 35 46 48 52 50 55 61 52 56 61 64
40 48 43 39 56 72 61 25 24 42 50 29 29 41 59 55 83 81 77 78 83 81 75 68 51 56 47 52 52 47 40 37 45 52 63 61 53 64 61 57 53 48 53 60
41 49 43 36 38 76 63 61 21 31 40 32 30 40 47 52 73 65 57 60 62 73 71 52 50 54 61 47 61 57 60 58 59 59 59 59 54 58 61 59 59 59 62 62
49 48 43 33 32 65 74 77 49 30 32 30 31 36 38 42 49 52 57 44 55 44 40 50 67 73 67 69 69 66 66 64 64 63 61 56 55 56 58 61 65 66 64 60
56 49 41 30 28 38 80 72 89 72 47 41 44 40 42 43 48 54 66 66 77 78 84 82 83 79 77 72 71 72 72 70 67 67 67 65 63 64 67 69 67 63 58 51
60 51 40 32 24 29 76 82 88 100 99 93 73 68 66 51 43 51 64 78 80 82 83 84 87 86 85 81 79 74 70 68 75 78 72 66 63 65 63 58 50 43 39 35
63 52 44 35 22 24 67 97 93 98 98 100 91 89 88 90 86 67 54 59 70 77 82 81 88 89 90 87 85 77 71 39 70 79 79 80 65 56 48 46 34 34 33 34
66 54 46 32 20 16 35 56 70 93 100 100 100 98 88 88 95 100 100 97 99 93 94 94 91 88 92 94 88 80 76 68 43 43 46 53 47 40 37 35 33 36 37 38
69 58 50 43 31 18 22 23 33 65 100 99 89 88 91 94 99 100 99 100 100 99 100 96 89 90 88 96 88 77 68 59 53 58 43 41 39 36 34 37 38 39 42 40
74 65 64 56 46 29 28 22 21 28 79 99 98 88 72 56 78 100 100 100 99 98 99 100 99 98 94 91 80 61 54 41 54 59 50 44 38 36 39 40 41 44 40 27
80 75 72 62 52 47 40 41 35 32 52 56 42 46 46 36 47 94 100 100 100 100 100 96 92 90 88 87 85 79 43 41 47 40 40 42 42 43 42 42 41 25 16 11
90 79 77 69 68 51 50 44 43 45 42 32 31 39 41 44 64 100 100 91 94 88 86 86 89 69 59 66 72 75 54 42 44 48 50 47 40 40 41 30 23 16 8 7
91 84 79 73 74 56 49 48 53 45 40 36 33 50 69 69 84 100 96 94 90 97 93 97 64 39 37 28 33 52 62 61 62 49 40 39 39 39 29 25 15 8 8 13
98 97 96 91 90 88 64 55 50 39 36 32 33 53 99 98 96 94 94 91 82 70 90 94 28 26 30 34 36 39 42 39 38 39 38 36 39 34 26 14 6 6 20 26
97 96 96 91 90 80 78 66 52 44 42 36 28 44 77 99 94 91 78 87 72 81 84 27 21 20 28 40 42 41 40 40 40 37 37 40 36 27 12 6 5 7 27 40
96 96 95 90 85 80 72 64 58 48 38 31 34 49 57 90 95 81 72 68 88 74 33 21 17 21 33 42 45 44 42 39 38 39 41 38 25 12 7 6 6 15 32 41
96 95 95 86 89 87 66 63 55 47 36 30 51 67 83 92 80 67 60 68 47 36 30 30 30 38 47 49 47 44 43 45 45 39 28 23 14 10 7 6 9 16 34 45
96 95 90 89 86 90 79 57 45 37 29 44 54 59 62 66 64 68 58 50 33 30 35 40 52 54 57 53 51 42 35 32 32 32 31 23 14 7 7 10 16 22 40 57

GFSNW_700_rhum_018.txt.gz
RH
78 52 51 61 76 89 91 100 47 73 95 100 99 98 96 97 99 100 99 98 77 80 87 88 92 92 87 67 74 93 83 68 74 97 99 88 76 82 95 72 58 55 46 36
84 58 55 70 77 93 96 96 63 95 100 99 99 98 98 98 99 98 98 92 83 53 79 78 97 96 70 68 75 92 80 70 73 79 89 96 91 94 90 72 56 52 46 40
90 60 56 76 78 94 99 82 96 98 100 100 99 98 98 99 99 100 99 98 100 63 66 62 75 98 64 78 77 72 76 68 55 56 55 66 80 82 77 76 66 54 50 44
90 59 59 79 79 95 100 86 83 92 99 93 99 99 98 99 99 99 99 99 93 77 64 89 98 99 73 78 71 82 83 69 67 62 63 58 55 53 56 74 66 59 51 54
94 67 54 84 80 93 100 99 50 83 87 79 93 99 98 99 100 99 99 99 100 86 68 94 86 88 70 68 78 79 84 76 68 63 61 63 63 58 57 57 66 64 57 54
94 67 64 86 83 76 100 99 48 67 72 75 94 100 100 100 100 99 100 93 99 99 76 61 72 59 79 83 74 75 94 86 73 62 63 59 65 62 60 57 57 57 57 49
96 72 65 86 80 71 99 96 70 36 41 69 99 99 100 100 99 100 99 99 86 83 82 65 87 100 98 97 92 91 97 86 72 66 62 84 56 50 47 49 49 53 54 56
83 76 69 82 74 69 98 95 84 38 49 86 94 100 100 100 100 100 95 90 82 97 98 87 100 100 100 100 100 99 94 90 91 62 57 53 47 42 48 48 40 37 48 54
98 72 71 84 72 67 98 91 93 29 48 88 58 60 100 100 100 100 96 98 100 95 100 98 96 99 100 99 100 100 97 99 97 78 60 52 40 40 35 40 42 36 40 51
99 74 74 82 70 67 96 92 94 27 45 82 46 62 82 95 100 100 99 99 100 100 100 98 95 100 92 96 98 99 100 87 94 91 96 40 40 39 34 44 40 37 33 40
98 91 77 84 72 66 88 99 91 27 44 65 56 41 55 72 98 100 99 100 99 100 99 100 100 99 95 85 90 96 90 79 91 98 80 56 48 43 41 38 38 41 43 48
100 85 75 86 73 67 66 100 88 38 53 64 50 41 53 72 88 95 99 98 99 99 99 97 94 84 97 90 68 72 83 79 72 59 53 50 45 52 46 44 51 51 55 64
88 73 74 82 73 65 58 99 94 51 49 62 52 50 49 69 86 90 98 100 99 99 98 99 95 74 68 70 58 60 64 68 62 57 54 45 45 51 50 55 60 62 56 63
93 73 72 81 74 60 55 100 98 62 51 66 51 46 52 56 67 90 82 91 83 91 89 78 70 66 58 56 55 53 52 53 53 53 57 57 58 57 57 56 58 63 68 72
88 54 67 81 78 54 55 100 100 80 60 62 50 46 48 55 58 77 74 67 74 72 79 73 70 67 66 66 67 65 61 62 63 64 63 58 61 63 60 60 64 70 73 68
87 45 65 86 70 49 60 100 99 99 74 82 81 47 50 50 54 56 59 62 68 66 74 82 77 81 79 80 79 72 76 76 76 66 65 61 51 70 73 74 77 77 70 53
62 41 80 86 55 48 74 99 98 100 100 95 90 83 62 50 54 56 61 63 71 76 77 83 86 86 84 81 74 63 57 62 67 66 69 67 51 67 78 77 78 69 50 33
59 60 91 72 52 65 100 100 99 100 100 100 99 99 92 82 77 72 66 62 60 65 77 83 85 82 87 85 55 49 56 60 70 74 75 67 46 68 83 83 78 39 36 36
72 88 87 60 52 98 100 100 100 100 100 99 96 94 90 87 98 100 99 96 92 85 81 79 76 72 72 58 57 60 66 75 83 70 64 78 54 55 64 52 38 39 38 36
100 99 72 95 78 92 100 100 100 99 99 99 94 96 86 82 92 99 99 99 98 97 99 100 100 93 70 85 83 83 84 80 72 75 58 59 71 51 50 41 42 39 37 27
98 92 72 73 84 89 99 98 90 93 93 87 96 94 92 93 96 100 99 96 96 92 91 92 95 49 42 50 64 85 96 94 83 83 66 85 72 53 48 44 40 38 32 27
94 88 88 94 98 100 99 90 75 51 46 40 65 82 89 94 100 100 98 89 83 87 86 87 68 30 26 31 43 74 99 90 95 82 71 63 57 52 43 40 39 35 31 30
100 99 98 89 83 78 65 62 56 45 36 29 32 61 93 85 79 74 78 74 78 67 68 57 32 25 19 32 60 99 100 100 96 72 65 70 50 43 41 42 39 37 34 28
96 97 99 75 76 61 62 53 47 40 39 33 33 49 77 69 65 63 67 66 69 66 59 29 23 21 19 34 52 90 100 100 90 82 83 71 48 45 43 41 38 34 28 22
96 94 86 77 83 70 61 62 53 47 41 39 44 64 60 65 58 54 50 60 56 41 24 22 24 22 24 29 35 65 100 100 97 96 89 54 46 44 41 36 32 30 28 22
96 95 96 77 77 80 66 59 58 52 46 50 67 76 65 62 52 48 46 42 33 32 30 27 24 24 28 34 45 82 100 100 91 60 50 47 41 35 31 29 30 30 25 16
96 94 95 93 88 79 70 66 58 55 52 61 65 65 56 58 54 52 40 34 32 29 28 26 28 36 43 47 53 67 62 53 50 45 37 34 32 32 31 31 31 27 21 12

GFSNW_700_rhum_021.txt.gz
RH
85 90 100 100 98 100 100 100 100 99 86 100 98 98 97 96 97 98 98 98 95 70 61 69 84 80 77 86 87 97 99 99 99 100 100 99 86 89 77 57 54 45 40 37
99 94 100 100 98 100 100 100 100 100 90 100 99 99 98 98 98 98 99 98 93 71 63 69 93 93 76 93 90 91 91 92 99 99 99 98 100 97 89 71 61 47 38 39
99 90 100 100 92 100 100 100 99 99 100 98 100 99 98 98 98 99 100 97 94 75 66 67 80 96 93 91 82 99 99 82 61 60 70 82 90 88 86 74 61 52 46 42
100 92 100 100 92 100 100 99 98 98 96 93 98 99 99 99 99 100 99 98 92 79 63 66 75 88 91 70 89 90 95 70 60 52 57 65 75 82 86 82 70 57 48 47
98 92 100 85 90 100 100 100 100 98 99 100 100 97 98 98 98 99 99 99 82 82 57 64 81 88 88 94 92 95 99 71 67 62 60 59 55 61 68 70 67 59 52 49
97 99 99 85 98 100 99 100 99 100 94 91 86 95 98 99 100 99 99 99 93 84 59 62 95 94 91 96 86 82 99 86 69 58 62 65 63 58 60 61 62 58 57 54
96 97 99 87 95 100 89 100 100 99 83 80 93 87 99 100 99 99 100 99 99 88 74 82 95 97 99 93 97 90 96 88 84 78 62 74 54 53 55 58 55 59 62 58
92 99 88 87 98 100 87 100 99 100 86 78 86 97 99 100 99 100 100 98 99 98 93 90 79 100 100 93 89 89 97 98 91 70 58 50 51 47 50 53 50 49 54 57
98 99 94 80 94 98 84 96 100 100 82 62 80 80 97 99 99 100 100 100 94 99 91 96 96 99 100 98 99 100 100 99 99 78 60 59 47 39 45 47 48 42 41 43
96 98 78 84 87 94 77 90 99 100 85 39 92 74 94 100 100 100 100 98 100 100 100 93 97 100 100 99 98 99 100 100 99 96 84 72 47 42 36 47 44 36 30 33
99 100 92 92 99 90 74 88 99 100 76 46 90 73 80 97 96 100 99 99 99 100 100 97 87 98 96 96 98 97 97 98 99 99 99 87 56 44 45 43 38 33 33 33
95 100 74 87 99 88 76 93 99 100 76 44 85 65 65 86 97 99 99 99 100 100 100 95 92 98 98 82 96 96 97 82 82 82 74 57 50 49 51 49 44 42 45 48
98 100 100 95 98 86 75 81 100 100 63 48 74 62 64 86 94 89 100 100 100 100 100 99 99 95 99 91 80 78 91 89 79 68 64 62 52 49 39 43 47 51 54 59
98 100 100 87 96 84 75 72 99 99 70 74 69 62 59 77 91 84 93 100 99 100 100 100 99 99 89 91 85 76 73 72 72 72 68 54 53 50 52 52 52 56 58 60
99 100 88 80 91 82 77 73 99 99 74 82 58 57 54 72 82 83 88 95 98 99 98 93 96 95 76 67 64 63 59 57 53 59 58 57 56 57 59 57 59 60 65 66
100 97 75 77 90 84 72 91 99 99 77 97 86 53 55 58 70 83 89 74 84 82 89 83 77 71 68 63 60 52 63 62 62 60 65 64 61 53 50 63 66 70 74 75
99 97 74 86 90 83 71 96 98 99 97 100 94 83 49 59 60 65 73 75 73 77 80 79 78 75 77 81 75 59 56 66 72 70 66 60 61 60 58 71 74 78 82 77
99 95 85 94 93 75 66 87 97 99 99 92 93 86 77 50 61 70 72 80 85 93 91 85 84 87 88 82 56 51 48 47 48 52 61 63 71 59 66 81 86 87 79 55
99 95 100 100 88 70 76 99 98 87 99 99 99 99 95 78 67 65 70 72 79 73 80 80 77 78 68 42 31 29 35 43 47 64 72 76 76 66 71 89 91 84 60 38
98 100 100 99 85 64 80 100 91 99 99 99 99 98 95 94 96 98 97 91 98 100 88 79 82 67 46 50 51 51 59 67 79 76 69 62 60 69 68 89 86 50 40 36
98 99 80 84 85 90 98 98 99 97 98 99 97 98 92 87 93 99 99 98 97 95 93 98 98 77 52 56 62 72 83 85 84 82 75 68 74 73 57 57 45 43 37 33
98 100 99 96 93 98 97 98 94 80 75 79 93 92 90 94 99 99 99 93 85 89 90 88 71 48 39 38 40 68 99 96 93 86 84 70 79 72 59 50 45 39 36 33
98 99 99 98 98 96 80 90 89 72 61 59 54 77 97 98 99 98 90 83 79 73 66 64 34 24 21 19 29 42 94 98 98 89 86 75 66 60 56 45 41 39 37 36
96 97 97 73 73 61 66 59 57 55 45 35 44 52 95 99 98 75 55 62 66 65 61 32 24 23 23 21 33 66 99 96 88 92 78 70 62 52 45 42 40 39 35 31
96 95 80 66 64 57 50 50 47 43 38 37 39 71 76 93 73 55 50 54 54 42 29 22 20 20 21 24 46 82 99 97 98 92 77 82 57 48 43 42 37 31 29 29
96 96 85 64 67 70 62 54 54 47 41 48 66 83 69 69 49 47 43 44 31 27 24 24 29 26 24 35 59 91 99 98 94 91 89 76 49 44 39 33 32 31 30 29
96 95 92 84 75 69 66 62 56 51 47 55 65 63 59 57 52 47 38 31 29 31 31 29 28 25 28 34 68 100 98 98 97 97 60 47 39 34 34 34 34 33 31 28

GFSNW_700_rhum_024.txt.gz
RH
95 98 98 94 99 96 97 99 100 93 99 98 98 98 99 97 98 97 97 98 97 99 76 77 82 90 72 86 89 93 92 98 99 99 93 95 100 84 74 52 58 48 39 45
96 98 99 87 98 89 93 99 99 100 99 98 97 97 100 98 98 98 98 98 93 86 81 70 71 78 81 79 85 71 98 99 99 100 100 100 100 83 72 68 60 51 48 47
93 97 98 87 98 92 94 99 99 99 98 98 99 99 98 98 98 98 98 100 99 94 79 62 78 75 75 80 83 86 99 98 99 100 95 94 97 90 72 78 66 53 46 44
88 98 92 98 98 94 96 99 99 97 97 96 98 100 98 98 98 99 99 98 98 92 77 62 68 78 97 86 85 98 100 100 98 79 74 77 88 82 77 74 67 61 52 43
96 98 98 87 97 92 98 99 100 99 98 97 99 100 98 98 98 99 98 98 81 77 74 62 62 88 89 86 75 93 85 95 82 60 74 71 70 76 64 65 67 62 57 49
89 98 99 99 90 91 98 98 98 99 98 98 90 79 98 97 98 98 97 99 100 84 82 56 88 74 77 98 74 73 94 84 72 66 56 59 62 61 65 64 66 56 69 53
95 98 94 98 98 85 92 99 98 99 98 98 96 92 93 97 99 98 97 99 96 78 84 66 65 100 91 99 98 79 72 87 88 79 64 75 51 51 44 48 45 64 65 61
95 99 100 100 100 100 93 100 99 99 98 99 91 90 91 97 99 99 99 99 93 92 94 80 98 95 95 95 90 100 78 90 87 81 65 58 53 52 54 55 53 54 57 56
95 99 98 98 100 99 92 100 100 100 99 98 92 84 95 98 99 99 100 100 99 97 99 91 86 99 99 85 98 100 99 100 92 83 69 70 51 40 42 45 56 53 52 56
94 98 98 100 92 100 92 100 99 100 98 98 81 95 97 99 99 99 99 99 100 100 96 91 90 91 98 91 94 93 100 100 98 91 84 64 59 51 40 49 48 39 39 52
94 98 100 99 93 100 97 99 96 100 99 98 67 56 93 94 99 99 99 100 100 100 99 98 93 96 99 98 94 95 97 98 99 100 98 84 60 55 44 47 43 36 35 37
97 98 99 92 100 99 100 96 86 99 99 98 66 69 92 76 98 99 100 100 94 96 99 98 88 95 95 97 96 96 98 90 93 88 74 61 60 51 50 48 46 47 42 41
95 98 98 100 100 98 98 85 93 99 98 99 70 83 77 74 95 99 100 100 100 98 99 94 90 88 90 85 84 86 100 92 85 80 73 63 60 58 53 42 43 45 47 49
90 98 97 99 91 90 94 80 98 100 99 99 54 68 75 70 88 96 97 99 100 100 100 99 98 92 89 94 87 83 82 86 86 80 69 63 65 58 57 50 52 52 51 54
92 97 98 100 93 93 94 85 92 99 99 99 71 72 77 68 84 99 90 99 99 99 99 99 100 100 98 98 98 92 80 74 76 79 70 75 70 60 54 54 55 56 58 57
93 98 98 100 87 92 100 92 83 99 98 92 97 69 69 66 80 91 89 92 100 99 100 99 99 93 88 76 70 59 64 66 64 60 54 51 58 57 57 52 58 62 64 63
96 97 98 100 88 97 98 95 79 99 99 100 92 95 59 66 70 79 91 92 88 95 92 92 85 80 78 72 59 53 43 57 63 64 62 66 68 63 56 54 58 70 73 76
93 98 98 96 99 100 99 100 91 95 99 100 94 88 80 62 71 72 79 84 86 90 96 91 84 85 86 73 45 49 57 59 60 60 58 55 55 53 60 65 71 77 81 86
95 98 98 99 100 99 87 100 100 100 98 99 93 90 73 73 65 72 81 88 99 93 96 96 94 89 71 51 43 38 42 50 52 52 51 57 60 72 75 67 75 86 90 90
98 98 99 100 100 93 85 96 100 99 100 99 99 99 98 88 79 84 93 86 81 93 74 72 74 65 52 55 51 46 42 39 44 55 62 73 80 82 75 78 92 98 97 80
97 97 98 99 98 99 100 98 98 99 100 98 96 99 99 100 99 96 87 97 94 97 87 86 95 68 52 46 45 47 49 66 68 76 89 85 72 65 70 78 98 99 77 44
93 98 98 100 100 99 87 98 99 94 92 100 99 89 96 100 99 99 99 97 88 81 84 84 75 55 50 50 48 50 75 88 84 84 88 80 76 71 83 92 91 59 47 40
98 98 98 97 92 92 76 92 99 93 86 78 68 77 94 97 96 98 89 81 89 85 71 59 45 30 23 25 25 42 56 97 93 92 91 88 82 82 88 73 56 50 40 36
97 98 96 82 80 74 80 67 71 71 57 42 58 66 93 100 100 93 84 79 69 61 56 32 25 24 24 24 24 33 61 96 97 99 98 90 81 78 69 58 47 39 38 34
97 97 94 79 75 65 59 58 54 56 55 52 44 81 85 99 92 86 58 49 52 42 29 25 24 23 23 24 28 43 98 96 96 100 97 92 73 67 56 42 40 36 31 31
97 96 94 78 74 66 56 52 41 54 61 50 55 95 89 92 75 57 45 44 32 28 26 26 23 21 23 25 48 82 100 98 98 98 97 81 62 52 44 40 34 33 34 35
96 97 93 86 76 63 55 50 43 41 50 45 62 73 66 63 62 46 38 34 30 28 26 24 29 28 26 36 68 98 97 97 97 97 94 87 56 45 36 34 36 38 37 35

GFSNW_700_rhum_027.txt.gz
RH
99 96 97 99 96 98 98 97 100 75 98 99 98 99 96 92 86 95 98 98 98 97 96 95 85 70 62 91 90 96 92 99 99 91 100 98 93 99 88 88 99 91 47 49
97 96 98 83 98 96 98 73 98 87 99 98 99 97 96 94 88 97 98 96 97 98 96 99 88 73 57 97 90 90 92 98 99 100 94 100 99 94 73 88 87 61 58 49
97 94 97 99 99 98 98 99 100 98 99 98 99 100 98 98 91 98 98 98 98 98 84 90 85 81 75 82 88 96 96 99 99 99 99 96 99 97 99 100 68 56 49 44
98 96 96 100 96 97 99 99 99 96 98 99 89 99 96 98 99 98 98 98 98 98 95 75 78 74 80 88 92 98 98 99 99 100 100 85 85 98 84 80 74 52 46 39
97 94 97 99 88 98 99 96 98 96 83 98 98 98 98 100 94 98 98 98 98 98 86 69 64 65 82 89 84 99 96 96 100 100 99 85 82 72 66 71 65 61 58 47
95 95 97 98 98 98 98 95 96 98 86 93 100 93 94 87 90 93 98 98 100 94 60 65 65 65 80 86 91 73 86 100 99 92 98 79 76 62 55 53 46 54 56 53
96 95 96 98 98 98 99 78 81 99 91 100 99 98 100 100 99 98 97 98 100 97 69 87 86 67 76 76 100 95 76 83 100 71 62 72 53 53 51 54 55 55 55 66
97 85 94 98 99 99 94 83 82 95 87 98 99 98 92 98 95 98 99 100 94 86 91 98 97 92 99 93 96 98 96 86 99 74 69 63 56 54 56 55 49 52 51 58
87 88 97 98 98 100 94 87 90 100 91 98 99 98 96 81 99 98 98 99 95 87 98 96 86 99 100 99 96 99 97 98 99 87 75 74 50 47 43 51 57 57 57 56
60 93 97 99 99 98 99 100 95 100 98 99 98 97 92 98 98 99 99 99 100 95 98 100 92 96 99 87 89 98 100 99 99 90 85 62 58 58 42 53 50 45 47 49
40 95 98 98 99 96 99 99 100 100 100 98 98 89 81 97 98 99 99 99 99 97 100 97 92 94 91 95 86 90 98 98 98 98 93 82 57 59 47 47 42 37 34 40
41 77 95 98 92 97 100 100 95 100 100 98 98 98 87 98 93 99 99 99 98 100 99 93 91 96 99 92 89 89 91 81 84 86 66 63 62 52 51 51 48 48 46 40
35 78 96 98 97 99 100 98 100 100 100 98 97 84 84 93 90 99 99 99 100 100 96 100 98 93 90 94 95 86 91 96 90 84 65 62 61 61 60 53 43 44 46 46
29 59 96 98 97 100 99 95 100 96 99 98 97 67 70 76 80 99 99 99 99 99 100 93 94 88 83 88 82 77 77 91 91 86 74 70 65 63 60 60 52 51 52 53
30 75 97 98 98 100 98 100 97 100 99 99 98 78 80 74 71 97 97 99 99 100 99 99 99 99 96 91 95 84 75 74 80 67 74 68 65 72 64 53 54 55 58 54
29 83 97 98 97 96 100 100 96 99 98 98 99 90 66 76 72 96 85 99 99 99 99 99 100 100 99 99 98 79 79 78 75 72 74 71 68 68 70 58 59 60 62 66
27 83 96 98 99 100 100 97 80 87 99 98 97 85 66 70 72 89 82 92 99 100 100 99 99 98 100 86 70 58 61 67 67 65 58 57 58 60 60 60 58 63 68 72
26 78 97 98 99 100 100 100 90 84 99 99 98 94 80 61 69 83 88 94 91 88 94 90 88 91 90 80 58 57 62 56 62 64 64 67 74 70 62 61 65 70 77 80
46 93 98 98 100 100 98 100 100 99 97 98 98 98 78 72 77 87 89 89 90 90 87 90 87 84 72 59 56 49 57 66 66 61 64 68 60 64 62 68 71 81 86 89
55 98 98 98 100 99 92 99 100 99 99 98 99 89 84 80 83 100 100 99 100 100 92 85 86 67 52 56 51 51 42 51 61 61 62 64 68 75 78 80 81 93 94 98
87 98 98 98 100 99 100 97 100 97 96 97 99 94 95 93 99 98 92 89 81 75 72 70 79 33 29 32 42 42 46 58 52 50 58 73 85 85 83 78 84 97 98 96
98 98 98 98 98 97 96 96 99 98 88 88 86 93 100 100 100 97 94 90 89 89 92 86 73 43 37 40 56 60 66 75 79 72 76 86 87 75 69 80 93 100 99 83
97 98 98 96 88 94 96 96 99 98 86 80 63 75 100 100 98 97 88 85 93 86 76 64 51 45 42 27 25 41 55 65 91 87 87 94 89 86 87 99 100 99 65 46
97 97 97 86 76 74 73 67 68 61 57 51 65 81 100 100 100 97 85 84 79 68 63 46 33 26 24 24 24 23 39 83 97 96 100 99 98 90 96 99 84 56 42 37
97 97 96 91 83 66 67 60 63 59 58 50 70 98 99 100 94 87 80 67 64 46 31 26 24 24 22 23 24 28 46 96 96 100 99 98 97 96 94 70 54 40 37 32
96 96 99 84 85 72 65 61 55 63 59 60 83 100 99 93 84 79 71 46 31 27 26 26 25 25 21 23 29 43 97 94 94 99 98 98 98 88 65 48 40 35 33 35
97 98 99 89 81 70 61 58 52 56 69 62 80 92 77 74 74 63 53 45 36 33 30 28 25 26 28 31 49 90 95 97 97 98 98 98 88 63 46 41 34 36 37 36

GFSNW_700_rhum_033.txt.gz
RH
39 48 94 97 98 93 99 97 94 95 99 97 98 100 95 84 76 82 78 78 91 97 98 98 98 91 74 58 76 82 79 97 98 90 90 97 97 92 96 80 84 72 91 69
47 56 85 94 99 99 95 97 98 82 98 96 96 99 93 89 88 89 92 84 91 97 98 97 96 84 67 82 67 74 84 97 96 93 97 98 97 98 98 93 69 69 68 48
45 74 70 83 98 97 96 98 97 98 98 99 96 82 98 99 98 94 99 90 98 98 97 98 96 90 81 68 81 85 88 98 95 93 90 98 98 100 99 97 83 73 68 58
32 65 52 54 95 98 91 88 97 96 97 97 94 94 94 99 93 97 97 90 83 98 98 97 100 83 84 77 78 95 97 97 98 96 97 98 99 96 94 98 74 78 75 80
16 54 46 54 96 95 70 95 98 95 94 85 99 98 95 86 97 98 94 89 91 100 99 99 92 81 80 70 90 95 99 98 98 97 97 100 98 100 96 95 82 84 90 72
12 29 36 66 96 100 85 95 98 99 100 98 99 87 94 96 99 96 96 99 100 90 94 94 95 96 97 91 99 99 99 98 98 96 99 99 98 96 95 88 78 73 94 67
14 22 23 69 98 100 70 88 98 98 96 100 99 99 96 96 88 96 93 98 100 84 95 98 100 83 87 94 80 89 98 99 99 98 98 97 95 86 95 90 95 98 94 92
14 18 44 80 98 94 91 98 98 98 92 92 93 96 96 99 100 98 97 98 98 96 98 99 93 82 77 68 64 74 83 99 99 100 99 84 71 92 96 97 98 99 96 80
10 18 44 86 99 96 92 98 100 100 95 92 99 98 99 99 96 97 98 98 99 98 98 99 94 92 84 95 97 95 96 99 100 89 98 79 65 55 73 100 98 83 90 87
10 19 53 98 99 99 99 96 98 92 94 91 93 94 90 89 95 97 96 98 99 99 99 99 96 88 91 94 94 99 94 99 94 95 94 68 63 58 57 58 58 60 62 62
11 16 53 95 99 100 86 91 97 96 89 93 88 82 97 96 98 98 97 98 99 100 99 99 89 76 75 87 92 99 93 97 99 97 96 70 63 62 50 47 46 41 47 53
10 17 70 97 99 100 92 93 95 90 100 100 99 91 100 96 98 98 98 98 99 96 83 94 91 88 87 86 86 90 88 84 79 72 70 65 67 52 52 54 48 48 41 51
9 17 62 94 99 100 96 96 97 98 100 91 93 86 97 98 98 98 98 97 97 99 86 99 97 97 84 82 78 83 80 81 84 77 64 64 62 61 60 52 46 43 42 48
10 18 64 95 100 91 92 95 92 100 92 96 90 97 96 90 96 98 98 98 99 99 99 99 98 88 84 84 81 78 74 79 74 73 78 85 67 66 66 62 57 50 45 44
8 18 68 96 96 89 92 96 99 95 86 100 100 97 90 90 98 98 98 98 98 98 99 99 100 98 93 96 93 81 74 73 75 88 83 76 75 71 71 60 53 52 51 47
7 21 66 100 100 95 94 99 94 94 100 100 98 98 95 88 97 90 99 98 98 99 99 98 98 95 93 97 100 64 69 75 80 86 93 90 81 78 80 75 68 56 55 56
6 25 61 99 100 93 94 97 76 80 97 100 98 98 90 83 93 96 97 100 99 99 99 99 100 98 100 97 92 76 76 79 88 97 95 98 95 81 80 96 66 63 62 63
5 24 62 98 99 97 100 91 77 71 95 100 98 96 92 79 85 99 89 99 99 99 99 99 99 99 99 98 76 87 79 78 87 93 87 80 88 81 83 86 68 66 69 71
6 26 71 99 100 100 96 89 87 91 96 99 92 99 97 83 100 100 100 99 98 94 95 94 93 98 93 79 71 70 71 81 81 86 74 66 68 66 66 66 67 74 76 80
13 33 88 99 100 100 97 98 100 87 100 100 99 90 96 92 97 100 100 98 100 94 86 82 82 63 62 72 59 57 62 63 74 76 72 69 75 67 64 62 70 81 86 86
20 59 98 98 99 98 98 98 98 99 100 87 84 98 99 96 100 98 98 96 84 86 80 77 64 47 52 55 49 47 49 55 66 74 75 76 75 69 64 65 72 82 93 95
39 93 98 98 98 97 95 97 97 97 91 73 64 71 89 96 93 97 97 85 80 70 75 66 50 36 34 41 38 36 42 52 50 54 68 65 54 60 83 87 85 92 98 98
93 97 97 97 96 98 89 99 99 97 58 51 44 55 84 90 88 97 94 88 76 87 83 70 48 45 41 42 39 31 38 44 53 62 60 56 59 74 85 90 95 99 98 93
97 96 96 95 88 96 100 94 65 64 58 49 54 68 100 98 99 99 96 93 87 78 73 47 42 41 35 39 41 38 27 52 67 75 81 71 75 87 82 93 99 99 99 98
96 96 96 96 100 98 81 64 61 69 61 53 69 99 99 100 97 97 88 80 74 65 48 36 27 25 25 24 24 25 26 42 74 90 92 87 92 87 93 96 100 100 100 83
96 96 96 96 92 92 72 63 52 70 70 72 97 99 99 98 95 94 80 75 54 39 31 25 26 26 26 24 24 24 28 47 78 92 96 96 97 98 99 97 100 97 67 37
96 88 87 85 92 90 68 65 64 74 83 88 100 98 90 94 93 82 75 58 43 39 30 33 31 30 29 25 24 27 45 78 94 95 94 99 98 98 99 100 95 55 38 34

GFSNW_700_rhum_036.txt.gz
RH
65 34 58 70 92 99 90 99 94 100 94 97 97 98 93 74 74 77 76 70 72 79 84 98 98 98 81 69 67 70 73 100 99 81 68 78 96 97 95 97 93 83 75 59
70 30 54 50 87 99 94 96 92 94 98 94 98 98 93 90 77 77 76 77 81 84 91 94 98 100 82 88 87 76 77 98 98 80 84 96 97 92 96 96 96 86 80 57
63 21 48 44 74 99 98 96 98 97 98 97 95 98 94 87 86 87 81 84 87 93 100 93 91 93 90 100 98 98 93 96 94 89 77 95 98 96 96 98 97 84 79 62
45 37 39 37 73 100 89 89 95 96 96 97 98 98 82 83 90 79 85 79 78 93 99 98 89 87 93 98 99 100 99 97 92 86 93 99 99 98 98 97 75 97 72 71
48 17 34 36 71 100 81 94 98 99 97 99 97 94 91 78 75 74 76 72 79 100 98 90 92 99 100 93 97 98 99 97 97 92 96 99 99 100 99 98 98 100 91 73
59 18 26 28 69 97 100 98 97 98 96 99 97 90 82 76 90 83 82 89 100 99 90 94 98 99 98 100 100 100 99 98 98 94 91 99 99 99 98 100 97 78 92 58
73 17 20 27 50 98 100 89 87 98 97 97 88 86 93 87 88 91 90 99 92 80 99 95 100 98 94 89 88 96 98 99 99 97 99 96 82 98 100 99 96 86 79 92
82 12 19 37 94 98 77 70 90 98 100 93 96 94 96 96 96 98 100 100 98 98 98 98 99 94 93 75 74 71 79 99 98 99 100 87 71 64 100 100 98 88 76 81
68 11 20 77 96 100 67 76 98 98 91 90 99 97 91 98 100 100 99 97 98 98 98 98 98 82 76 78 85 99 83 84 99 99 99 97 82 69 92 95 84 65 61 65
60 11 24 95 99 100 86 91 98 97 96 96 97 100 96 98 98 100 93 98 98 99 98 99 98 99 97 91 87 92 99 99 99 99 97 86 91 76 81 75 68 79 69 71
63 13 25 97 100 96 96 96 99 91 98 98 93 92 94 88 98 98 97 97 98 98 98 99 94 90 77 82 91 96 92 86 97 98 100 80 82 70 63 55 54 56 67 74
51 13 25 94 99 100 98 99 100 97 92 87 82 82 93 90 96 98 96 97 98 99 100 92 98 92 91 79 86 90 86 84 89 80 76 70 73 59 60 54 51 50 48 54
46 11 25 96 98 100 100 100 97 99 97 95 83 80 81 86 98 98 98 97 98 99 88 100 97 100 88 81 78 78 79 80 82 78 69 66 65 64 63 53 55 45 48 57
39 10 20 88 100 99 94 95 100 96 99 86 89 88 97 98 97 97 98 98 98 99 99 98 100 89 88 89 85 80 78 79 81 79 85 81 79 65 69 61 56 49 47 56
25 8 19 82 98 95 87 90 100 97 96 99 99 99 100 94 98 98 98 99 100 100 99 88 91 99 96 89 85 74 74 75 82 86 88 84 82 74 71 64 55 52 51 51
11 7 29 82 95 100 100 100 100 99 93 88 100 98 98 93 98 98 98 98 99 99 99 98 97 100 99 98 99 71 74 76 77 84 85 89 80 78 71 60 60 57 53 55
5 6 37 91 100 100 99 99 96 98 95 98 97 98 97 85 93 98 98 98 99 99 99 99 99 94 97 100 88 67 72 79 76 83 90 92 89 83 86 84 82 87 62 57
4 5 41 95 100 100 100 98 87 82 88 100 94 95 92 89 91 97 98 98 99 99 99 100 100 100 100 98 64 65 71 78 86 96 100 99 97 99 97 92 97 72 63 62
6 8 35 91 100 100 100 100 100 94 85 97 86 96 94 88 100 97 98 98 99 97 98 100 100 99 92 72 75 76 79 75 76 92 99 88 89 98 91 96 98 77 69 69
19 21 47 92 100 98 98 97 99 100 100 100 94 87 89 93 100 100 98 97 99 98 91 91 92 67 66 72 74 72 71 75 84 90 97 78 79 76 82 77 77 80 79 79
40 42 87 100 99 98 97 98 99 96 93 79 69 70 99 89 98 98 99 98 89 93 91 90 74 51 54 63 66 58 62 63 69 77 77 80 87 73 63 61 71 79 89 90
47 91 98 94 98 98 98 98 90 97 94 79 64 63 88 95 93 95 94 82 81 77 75 67 46 39 41 56 56 54 51 56 66 73 74 70 70 72 76 75 72 84 96 95
61 99 98 98 97 98 95 96 100 88 61 64 59 62 93 97 93 92 93 93 84 79 82 71 53 53 44 48 50 50 46 47 52 59 75 78 68 63 82 86 90 96 100 98
85 96 96 94 94 100 99 98 94 66 57 54 66 77 92 100 97 91 89 94 89 84 73 50 45 42 45 44 42 41 39 41 58 72 71 71 62 65 80 96 100 99 98 95
90 96 96 96 97 98 96 81 68 74 69 64 73 98 100 100 98 92 87 85 79 67 52 42 27 26 36 32 31 35 38 33 52 85 92 87 72 83 88 97 99 98 98 97
87 93 96 97 96 94 86 78 65 72 82 82 100 100 97 96 91 92 84 77 57 45 33 31 27 26 26 26 24 25 26 28 47 85 100 91 91 97 93 95 97 99 98 93
76 86 94 94 94 98 85 75 83 82 93 100 100 98 84 92 95 88 80 69 56 46 38 32 34 32 30 29 27 24 24 33 60 95 99 98 99 98 99 99 97 100 95 48

GFSNW_700_rhum_039.txt.gz
RH
83 68 40 46 76 97 98 100 98 95 93 100 97 97 97 81 59 55 64 64 68 69 81 86 98 92 77 76 69 72 81 100 97 65 55 72 82 87 92 97 94 96 86 67
89 76 30 35 53 97 95 98 97 100 71 97 83 88 97 86 68 58 63 67 71 78 80 89 99 100 86 94 92 89 84 98 94 74 70 71 98 76 94 98 98 95 94 60
87 71 22 34 40 88 97 93 98 98 78 76 87 86 98 91 78 71 72 73 70 81 90 98 100 98 96 100 99 100 100 99 91 88 64 72 98 98 98 97 97 85 88 71
82 66 16 33 40 95 87 98 98 96 90 70 57 89 93 88 90 85 78 77 72 82 97 98 98 99 98 88 93 96 94 97 91 88 85 93 98 98 99 98 89 96 63 80
77 54 16 27 42 91 95 97 99 100 94 97 96 98 99 85 84 74 74 72 70 80 98 98 98 99 97 96 93 90 95 96 96 97 75 96 99 99 99 99 100 99 94 88
79 64 15 22 49 84 96 96 95 98 96 100 98 95 89 84 91 83 81 77 89 89 97 100 100 100 100 86 94 95 94 99 99 94 72 83 88 98 99 100 100 99 98 74
83 56 14 22 39 64 90 98 96 98 93 98 89 95 86 93 88 88 93 90 94 88 93 99 99 99 96 88 87 94 98 99 100 97 98 93 80 86 100 99 100 98 82 74
66 49 14 19 52 90 95 84 95 98 98 97 96 94 94 95 93 92 95 92 96 98 98 98 99 98 93 77 80 78 89 100 98 98 99 74 75 94 98 100 100 72 75 84
69 40 12 47 80 98 75 65 93 99 100 95 96 99 92 92 88 88 90 91 100 99 98 99 98 85 79 88 95 89 94 97 100 100 99 97 82 80 81 93 88 94 82 82
64 30 20 57 89 87 76 84 98 99 99 92 94 84 82 95 98 96 90 99 99 100 99 99 99 89 74 86 87 92 97 98 99 99 98 76 90 76 71 84 90 90 97 96
60 24 21 72 95 99 92 96 98 100 99 94 94 100 100 95 92 93 98 98 92 100 99 98 92 85 74 75 89 98 92 95 94 100 97 90 82 67 64 63 69 93 81 86
50 24 18 76 98 95 95 99 94 92 94 91 88 91 91 86 85 99 99 96 97 98 98 97 96 85 94 80 87 91 87 81 89 81 77 76 76 70 68 57 52 50 54 83
33 21 15 67 96 91 95 99 88 98 97 96 95 90 83 80 90 91 97 98 98 98 97 99 95 93 88 89 80 79 80 85 84 80 75 73 68 66 71 62 66 52 53 49
19 14 16 66 92 89 89 90 99 100 98 95 91 91 88 91 96 98 98 98 98 98 99 98 98 97 98 96 86 81 81 83 80 79 81 79 76 69 69 59 66 61 58 60
10 12 12 53 84 79 83 94 99 100 96 100 97 95 87 94 97 98 98 98 98 99 99 98 99 89 98 91 87 75 70 72 80 86 88 85 84 76 81 68 61 56 57 63
8 8 11 40 83 86 97 99 98 95 98 99 85 95 97 98 97 98 98 98 99 99 99 99 100 93 100 99 96 70 72 78 80 81 87 89 86 82 69 59 58 55 58 66
15 5 9 32 83 97 98 98 87 99 94 100 91 98 97 98 95 98 98 98 99 99 99 99 99 95 96 89 76 63 71 86 77 79 87 90 95 98 89 77 84 94 69 56
11 4 6 35 82 98 99 99 92 92 100 96 99 99 93 98 97 98 98 98 98 98 99 100 100 100 99 98 57 76 72 72 76 84 90 99 99 99 98 100 99 98 95 94
6 5 14 54 80 94 99 98 97 98 94 98 91 94 99 97 100 100 98 99 98 98 99 99 99 98 96 76 81 86 80 81 80 97 100 100 96 100 100 100 100 90 74 72
12 17 41 77 91 98 99 95 94 98 100 100 79 78 86 92 99 100 98 100 99 98 99 97 99 72 63 74 80 82 83 78 83 97 100 99 98 98 99 99 99 96 94 76
19 37 66 79 86 98 99 98 96 97 94 84 70 60 70 85 96 97 96 96 91 92 90 88 79 55 48 55 74 77 78 80 83 98 99 95 99 96 81 88 83 84 86 85
23 84 99 89 98 98 94 96 97 94 89 77 64 64 67 94 96 99 99 85 76 76 72 68 49 44 50 58 67 66 72 73 77 82 85 88 89 81 75 74 76 85 91 91
36 93 98 96 98 98 99 94 98 72 65 69 68 73 98 100 97 97 99 98 90 84 77 65 57 50 51 47 64 57 60 61 65 73 78 77 78 75 78 78 83 89 94 92
60 94 95 90 98 98 98 96 86 74 65 60 63 92 100 97 100 94 100 99 93 90 79 53 48 43 47 42 54 57 56 54 54 62 74 83 82 73 75 88 91 93 97 98
61 88 92 96 96 97 94 99 92 89 94 92 92 99 100 97 96 91 83 90 85 72 54 47 31 25 35 40 40 44 44 45 45 61 74 76 83 72 76 88 96 97 98 95
47 86 92 96 93 96 90 85 87 85 94 100 100 99 96 89 90 93 92 86 64 52 36 33 27 27 27 26 25 25 26 30 36 61 86 84 81 78 87 91 98 99 99 99
34 61 83 95 96 99 96 95 90 92 100 100 100 98 89 91 91 81 72 55 56 54 47 46 35 36 32 31 29 27 24 26 31 57 92 98 95 93 99 99 97 98 97 96

GFSNW_700_rhum_042.txt.gz
RH
77 70 53 21 41 76 85 93 96 84 94 98 95 92 97 83 90 70 64 64 59 71 73 90 90 90 77 74 71 90 87 96 99 91 69 74 86 91 98 96 87 96 90 70
76 66 38 20 40 68 97 94 99 78 100 91 98 91 98 89 77 77 67 68 62 69 75 87 92 86 82 84 78 81 94 97 96 77 84 76 79 64 87 96 98 94 89 66
76 63 21 30 40 91 96 95 96 97 97 86 91 98 96 95 90 78 65 62 68 70 83 79 99 99 96 87 94 99 95 99 89 77 51 68 86 94 98 98 97 81 87 76
73 63 16 31 44 77 98 97 98 77 95 94 83 92 89 96 95 81 74 72 69 74 82 88 92 98 100 98 96 95 98 96 99 69 60 71 89 99 96 98 97 98 73 78
73 52 17 26 34 80 94 98 98 97 75 93 90 82 72 81 86 78 70 64 72 74 78 76 78 88 100 98 98 100 100 99 95 63 66 86 100 98 99 100 99 99 100 97
72 37 16 22 28 61 91 98 98 98 95 100 99 64 65 91 80 86 75 79 84 78 88 90 96 98 97 96 98 99 100 100 99 98 94 98 96 98 99 99 98 99 91 78
69 30 15 19 20 48 69 90 100 100 98 96 89 74 72 76 82 84 90 86 79 91 89 89 95 97 99 100 98 99 99 100 99 97 87 77 70 95 99 100 100 97 84 84
66 29 14 16 20 53 73 76 86 92 94 83 84 81 79 88 94 87 88 92 93 90 96 98 95 96 96 98 97 97 94 98 96 97 97 77 80 92 96 99 99 89 82 89
62 22 18 30 57 63 72 93 96 97 98 98 99 98 90 89 85 95 92 94 90 93 94 100 97 94 93 89 86 86 98 99 96 98 94 76 73 79 80 97 98 100 96 88
46 25 19 54 64 65 80 93 96 99 98 97 99 99 82 79 92 92 92 88 96 98 98 100 98 94 76 81 86 85 95 100 98 100 97 82 67 72 74 88 98 100 99 100
28 18 29 55 60 62 81 97 97 98 100 94 99 96 94 87 93 92 96 97 93 98 99 99 98 93 82 77 78 90 90 96 98 99 98 90 75 76 80 71 87 93 100 100
12 16 23 53 64 73 89 98 99 100 100 100 97 100 97 99 100 92 98 99 97 97 99 98 98 84 86 79 80 80 93 92 91 92 80 71 72 72 73 71 66 68 67 98
7 9 13 50 70 78 84 90 99 97 99 100 97 94 93 89 87 90 95 91 99 98 99 99 97 92 88 96 76 73 87 87 85 81 71 72 74 68 68 71 70 69 64 67
14 7 7 38 71 79 98 96 87 99 99 100 97 96 92 93 90 96 96 100 100 99 100 95 99 90 98 94 91 88 83 83 75 71 78 76 81 77 66 64 68 63 63 55
32 6 6 23 72 83 94 97 98 98 93 99 97 90 89 89 95 94 98 100 100 100 99 98 99 99 98 92 92 85 75 70 73 84 86 86 86 80 76 68 69 74 65 69
40 8 6 18 67 80 84 94 90 99 100 100 97 81 85 96 97 98 97 98 99 99 99 99 96 85 95 91 97 69 70 74 81 78 86 86 91 83 83 75 60 61 67 70
21 5 4 18 56 75 83 92 98 99 99 100 90 90 97 97 97 97 98 98 98 99 99 97 90 97 96 98 76 60 64 70 87 86 81 85 96 97 77 68 70 78 78 73
8 4 4 26 54 75 89 87 86 97 99 98 90 88 92 96 97 98 98 98 98 96 98 98 98 99 98 97 71 79 71 76 76 83 76 85 99 100 98 92 85 96 76 78
5 5 9 33 66 90 99 95 89 94 99 86 92 85 96 97 99 97 98 98 98 98 98 99 99 99 93 67 82 81 78 76 70 72 79 93 100 100 100 100 100 100 96 97
7 17 37 72 84 98 100 99 94 99 95 88 75 74 88 91 98 100 98 99 99 100 100 100 100 82 63 68 77 86 88 85 80 79 94 96 97 97 100 100 99 91 89 79
11 28 66 77 96 98 98 92 96 100 88 87 77 75 80 91 97 98 99 97 98 98 99 98 92 61 54 50 55 82 88 81 82 89 99 99 94 98 93 89 96 93 93 80
20 63 98 90 97 98 92 97 91 83 86 83 72 72 73 89 100 98 99 98 87 83 82 76 54 43 59 51 62 76 78 78 82 89 95 90 88 91 98 94 85 83 83 85
37 99 100 94 97 99 100 100 92 82 72 74 81 87 90 90 99 99 98 100 99 90 82 62 59 55 51 49 64 70 67 74 76 82 82 87 81 66 76 89 87 82 88 92
82 96 94 90 93 96 98 88 76 80 82 83 99 100 98 96 96 95 100 98 96 92 86 61 51 36 47 45 60 63 63 69 73 73 78 80 82 80 75 81 87 87 90 92
67 89 86 92 92 94 94 86 88 88 92 100 100 100 99 94 91 87 86 89 89 78 62 56 48 30 36 47 50 58 58 58 59 62 68 82 83 82 80 80 88 92 96 91
29 77 86 90 89 91 84 78 87 94 100 100 99 97 95 92 83 83 77 83 69 60 44 34 31 30 29 28 30 34 40 43 47 55 72 85 89 89 84 86 92 97 94 97
18 26 75 88 93 96 93 86 90 90 100 99 98 96 83 94 87 80 74 68 67 64 56 60 59 48 39 33 31 29 27 28 32 49 76 89 94 92 92 96 96 96 98 97

GFSNW_700_rhum_045.txt.gz
RH
80 81 72 21 39 81 86 98 96 100 73 72 100 85 97 97 97 77 85 100 94 94 96 99 94 91 93 88 88 100 100 98 100 93 84 81 86 92 92 92 67 82 79 65
83 83 53 26 58 74 91 98 86 86 94 98 100 82 100 97 96 84 86 86 95 91 95 92 94 93 88 76 86 100 99 98 93 94 84 88 91 90 89 98 97 95 92 64
84 78 27 31 56 67 94 97 85 90 87 97 79 87 95 94 95 81 67 68 82 96 99 98 98 100 86 85 82 96 98 100 84 76 71 81 97 88 96 98 97 80 83 78
82 42 22 26 33 82 97 98 78 87 95 98 99 79 95 96 95 82 70 77 91 96 96 100 100 100 93 91 89 91 98 97 97 91 96 96 97 95 89 99 96 99 85 96
66 25 19 22 23 79 98 99 96 97 80 100 95 93 97 95 90 83 72 70 70 72 87 85 95 100 98 95 94 94 93 97 96 99 99 96 86 88 89 99 99 100 100 97
55 24 15 18 20 41 95 97 100 90 76 83 98 97 99 100 95 92 84 73 71 72 71 74 84 96 94 90 97 89 95 97 98 90 88 79 87 81 96 99 100 100 99 96
43 18 14 16 19 25 87 96 96 99 94 79 90 69 98 94 96 95 82 76 77 73 76 84 84 88 91 94 94 96 92 97 96 94 80 75 67 77 87 100 97 99 85 90
40 16 12 14 18 50 89 95 96 100 98 99 94 95 100 100 89 89 82 82 74 81 86 87 94 97 88 74 83 96 94 98 96 91 76 68 64 83 82 99 99 100 93 94
19 15 17 23 42 54 65 92 96 99 100 98 100 99 99 100 99 87 81 84 86 85 90 91 94 89 82 85 93 98 100 98 98 94 89 73 77 79 86 98 100 99 100 100
8 14 24 45 53 64 83 95 98 99 99 91 90 98 86 100 99 100 94 85 91 87 98 98 98 93 84 77 78 98 98 100 99 100 95 77 74 87 79 81 98 99 99 100
8 11 22 45 52 67 86 93 97 96 98 99 99 94 93 83 94 99 87 99 91 99 100 100 99 95 93 83 78 91 87 97 99 99 97 86 79 89 87 86 94 96 99 100
22 7 18 39 51 57 78 100 100 99 98 99 100 100 100 98 93 93 100 94 90 96 96 99 99 93 96 82 70 87 89 74 94 82 82 78 73 76 74 77 76 80 80 90
42 9 11 27 51 58 83 98 95 94 100 97 96 95 88 84 88 90 97 83 88 97 94 96 98 94 96 88 84 83 83 90 85 91 82 78 88 84 76 67 77 71 75 80
51 28 7 13 50 59 73 92 99 99 97 97 92 90 85 84 82 80 87 97 99 100 98 100 99 98 86 94 94 90 90 85 86 88 78 89 88 86 78 70 64 70 68 65
56 40 8 7 41 63 76 93 91 98 94 98 87 88 86 78 83 85 94 93 100 99 99 99 100 95 99 95 92 76 78 72 81 84 88 88 85 86 80 77 68 79 70 64
62 29 7 6 31 66 83 94 97 92 95 97 91 82 81 80 83 89 92 98 98 99 99 100 94 98 98 98 98 70 70 65 70 78 78 80 84 87 84 84 77 63 72 77
24 9 4 5 29 69 83 88 88 82 89 98 93 84 87 94 97 97 97 98 98 98 99 98 94 100 100 94 80 75 72 72 72 82 87 88 79 89 92 89 70 74 84 78
9 5 4 7 40 71 82 84 80 90 97 99 91 92 79 90 98 98 98 98 98 98 99 99 99 99 98 91 60 67 74 68 68 68 72 84 80 86 95 94 84 96 81 81
6 5 8 28 53 70 87 86 88 88 99 99 84 80 98 97 97 97 97 98 98 98 98 100 100 99 96 64 68 74 75 77 75 74 70 74 78 86 94 99 100 100 99 87
7 9 28 64 77 99 100 99 96 92 100 98 77 76 87 87 98 98 94 98 98 98 99 99 99 87 61 66 69 79 88 91 84 83 83 86 86 99 99 96 100 100 99 99
11 25 67 84 97 98 100 93 95 99 98 100 91 84 92 82 89 98 98 95 98 98 99 100 98 67 62 59 57 58 82 93 89 83 86 89 98 100 98 99 100 98 99 96
19 41 77 100 98 97 97 99 91 95 100 91 87 83 78 87 84 98 97 97 94 93 91 88 65 49 64 60 57 56 82 85 84 93 100 100 99 98 94 87 96 95 95 81
36 89 100 97 96 100 99 99 100 99 95 93 92 98 98 100 89 98 99 98 99 99 97 73 62 62 44 57 63 77 92 84 83 77 77 86 85 89 92 88 86 83 83 85
69 96 97 88 92 89 100 94 81 89 92 100 94 100 98 95 96 89 99 98 99 99 94 72 63 52 32 54 62 75 73 77 77 83 85 81 73 73 78 81 90 85 83 86
71 89 90 89 90 91 87 81 82 88 98 100 100 99 99 95 90 89 84 87 94 84 72 43 36 33 33 52 58 68 68 69 75 76 77 81 85 86 89 81 86 90 87 89
28 69 84 92 93 88 85 81 84 87 98 100 100 95 91 89 90 86 72 82 78 72 54 65 60 49 39 32 35 49 60 62 61 64 68 70 78 84 85 86 89 89 90 92
22 12 32 88 96 95 91 82 82 87 92 95 97 96 93 95 96 90 82 85 78 68 67 65 61 60 58 48 39 33 30 28 32 40 54 68 82 90 91 94 96 92 92 92

GFSNW_700_rhum_048.txt.gz
RH
86 48 21 29 40 64 90 81 97 91 81 99 94 86 68 98 98 99 98 90 86 90 91 98 88 80 95 90 98 98 98 95 94 89 84 77 98 79 94 84 73 79 86 73
74 26 24 28 42 95 100 69 97 95 85 73 92 88 95 97 98 98 96 94 89 90 84 91 96 90 91 100 98 94 96 98 91 90 90 90 89 88 88 86 79 83 90 66
36 21 21 24 51 97 95 77 95 93 95 88 94 95 98 97 97 100 97 92 88 91 90 86 97 90 89 84 98 95 97 98 85 92 88 91 90 79 77 91 98 84 85 78
26 17 19 20 49 98 79 67 73 86 99 92 87 92 97 96 93 96 100 95 88 93 92 94 94 98 83 85 90 96 98 93 94 83 67 82 90 82 86 99 83 98 73 92
24 15 16 17 23 92 70 61 96 82 91 97 94 96 97 96 87 96 85 93 95 92 90 88 92 97 93 81 90 98 98 93 96 78 68 76 74 79 80 86 99 99 100 89
15 13 13 15 19 55 96 96 94 82 86 95 96 98 95 93 85 81 100 79 77 84 78 72 90 92 90 100 86 91 93 88 95 86 82 86 85 80 83 90 92 98 99 90
6 13 12 14 20 72 87 99 98 81 78 89 99 91 100 93 97 84 77 84 85 68 70 73 76 78 83 88 90 92 98 86 93 84 79 90 67 65 80 81 87 99 99 100
5 15 12 14 33 75 78 92 95 100 94 82 100 76 100 95 95 88 85 76 77 82 85 85 98 94 91 83 83 97 93 98 98 93 77 70 83 84 83 97 92 99 99 100
8 12 16 25 46 58 75 96 91 98 100 85 85 98 92 95 89 92 87 82 84 84 86 84 94 94 82 98 98 97 99 94 97 97 90 81 76 65 91 88 99 100 100 97
19 6 19 37 47 52 76 93 91 95 97 90 88 90 95 99 90 99 99 84 89 88 90 97 87 80 78 77 87 99 100 99 98 98 93 76 58 76 87 94 88 99 100 99
20 11 14 35 51 51 83 85 85 96 98 90 88 98 92 91 90 94 91 87 86 97 96 98 98 89 89 81 79 85 77 93 92 95 94 89 80 84 90 86 92 97 90 100
12 23 8 22 48 68 88 94 99 96 99 94 95 89 98 88 94 96 99 95 98 92 98 99 98 95 89 85 84 90 86 76 96 80 71 71 80 86 86 86 83 89 78 90
8 31 21 13 39 60 81 100 100 99 95 93 97 97 100 98 95 97 97 98 93 95 100 97 99 94 95 92 83 92 98 88 92 91 88 92 88 94 90 84 76 81 80 79
8 36 38 10 27 56 80 96 89 88 86 92 100 92 89 91 93 94 93 87 94 100 100 100 99 96 96 90 90 85 92 96 93 83 77 91 87 95 85 84 74 71 75 73
19 48 43 14 16 51 72 92 91 98 100 98 92 92 89 86 83 81 85 90 98 97 100 97 99 98 98 95 90 79 70 79 94 91 93 91 85 82 82 86 90 87 74 73
39 42 14 11 12 49 67 82 77 83 91 99 83 86 80 76 76 81 84 90 96 95 98 99 98 100 99 98 96 83 75 69 78 86 76 72 74 76 84 85 87 74 73 77
39 13 8 7 11 51 67 78 71 78 93 95 80 80 80 86 76 85 97 100 100 100 99 99 98 94 96 94 88 82 79 86 96 84 78 81 81 82 79 88 89 78 78 89
16 7 7 6 20 77 86 86 81 79 88 96 90 81 79 78 80 96 97 98 98 99 99 99 98 98 97 96 75 69 71 72 72 71 70 66 63 74 83 84 95 92 89 84
8 6 6 9 50 87 95 88 88 88 98 100 91 87 85 94 93 97 98 97 98 97 98 97 98 96 96 79 90 86 82 90 87 88 81 72 67 67 79 84 96 95 94 96
8 9 12 34 76 84 99 97 100 92 95 100 89 88 90 92 96 96 98 98 98 98 98 98 100 90 85 91 90 78 84 94 100 94 84 82 80 80 85 99 98 99 99 100
10 21 38 80 98 99 99 99 100 99 99 96 90 96 92 96 86 92 98 97 98 98 98 98 98 84 79 75 73 69 63 71 92 94 89 85 90 96 99 100 100 100 100 100
13 36 58 98 98 98 89 100 97 100 98 99 100 100 99 98 99 86 98 98 97 97 96 96 77 75 67 44 57 62 59 64 89 89 89 94 99 100 99 100 100 100 98 97
21 67 97 95 96 99 99 99 98 100 100 100 99 100 99 94 100 94 98 98 97 97 97 96 84 68 54 37 59 71 85 92 92 92 100 100 99 91 85 92 99 98 96 91
43 95 95 90 96 96 100 91 92 100 100 100 100 100 98 96 98 95 99 100 99 95 97 92 50 39 36 49 64 88 98 98 95 88 84 80 80 90 93 91 90 91 94 98
56 75 87 91 96 93 91 88 86 92 95 100 100 99 95 97 89 90 89 96 96 96 89 65 61 52 40 49 67 83 93 84 90 92 92 88 88 88 94 94 90 91 93 94
26 39 63 80 87 91 92 90 94 100 100 100 100 91 90 86 85 86 81 96 98 86 61 74 74 69 64 53 37 49 73 74 75 79 83 83 82 88 91 98 100 99 96 87
14 13 13 26 59 91 92 84 90 94 100 100 98 96 88 95 98 98 89 84 90 83 81 77 65 58 54 52 54 45 37 33 39 52 62 70 77 80 85 90 94 98 99 95

GFSNW_700_rhum_051.txt.gz
RH
14 19 20 23 81 88 92 88 75 91 95 91 96 92 92 97 98 98 94 92 75 78 90 96 88 79 94 84 69 97 93 89 84 91 83 88 92 87 88 81 66 82 94 70
11 17 18 34 80 73 82 88 88 81 74 78 95 88 96 98 97 97 92 90 82 76 84 85 78 86 95 92 95 90 92 93 89 91 90 95 94 88 89 87 78 78 88 65
10 14 18 36 74 58 57 64 77 89 89 92 96 96 98 98 100 98 92 92 82 83 79 88 98 89 98 99 98 93 87 88 82 86 86 86 94 88 91 94 95 84 79 66
8 14 15 22 70 53 54 58 66 92 96 87 94 96 96 98 97 98 93 93 92 96 98 88 88 86 97 99 96 92 95 90 88 80 86 88 85 81 83 86 74 94 64 79
6 11 13 20 49 59 54 56 74 86 100 80 94 98 97 98 99 96 88 91 100 87 91 78 84 75 76 85 96 99 98 90 98 77 81 77 77 82 81 72 79 85 85 91
4 10 11 19 50 78 61 60 68 73 90 98 98 98 94 90 94 99 98 98 90 86 90 87 82 81 76 77 79 81 96 89 89 80 75 80 81 74 76 78 84 92 100 96
5 9 10 17 58 79 73 60 67 70 84 94 93 99 97 93 90 93 79 75 73 75 76 82 84 90 91 90 90 90 99 87 89 76 76 88 73 67 80 85 97 99 99 99
5 6 11 15 48 76 77 70 66 65 66 74 86 92 95 96 91 81 76 76 74 78 78 79 94 92 96 95 97 100 97 96 97 98 83 70 80 75 81 89 82 95 99 99
4 5 11 17 46 60 78 75 76 81 77 67 74 95 100 99 94 86 82 83 84 84 85 83 93 91 81 99 98 98 100 96 97 95 88 88 85 65 83 90 87 90 98 99
4 8 6 23 42 58 80 83 88 91 90 83 79 91 97 99 98 89 93 80 86 84 85 90 84 82 83 85 92 98 100 99 98 100 95 71 64 70 91 85 82 90 94 92
5 6 10 12 40 53 84 88 92 94 93 93 89 90 96 94 92 95 92 91 82 88 89 96 87 90 85 88 84 88 90 96 97 100 96 84 87 89 95 86 90 88 87 87
6 6 13 6 29 49 85 88 89 87 97 89 87 99 90 88 82 83 94 97 98 100 98 88 96 94 93 92 91 84 91 78 77 77 67 76 83 92 89 92 86 80 82 84
8 6 16 16 15 47 84 100 92 100 95 96 89 88 100 86 85 94 95 97 98 99 100 95 92 91 98 97 89 94 88 95 98 97 94 91 94 90 91 86 84 71 74 80
8 7 25 26 13 37 73 100 99 98 94 95 95 99 98 95 93 92 94 90 92 97 99 99 95 94 95 93 87 90 87 99 86 91 94 87 84 91 83 82 85 84 84 80
8 11 34 20 18 27 63 94 92 93 96 92 93 94 90 85 88 88 89 87 88 93 100 97 98 98 92 92 89 74 71 74 92 89 98 98 91 80 71 75 86 83 80 81
8 26 19 6 11 23 63 100 98 98 89 87 81 81 88 87 85 84 85 91 99 100 100 100 96 94 96 97 100 76 94 93 92 78 80 87 86 79 84 82 82 79 82 85
13 20 5 5 8 26 62 86 84 87 92 89 80 86 87 84 88 87 85 92 99 100 100 99 99 98 98 98 89 88 95 96 98 100 100 97 83 82 77 83 82 83 80 79
20 6 6 7 8 36 71 75 74 88 90 99 96 86 79 87 92 96 95 98 98 98 98 99 98 98 97 99 88 80 76 77 77 87 84 86 89 81 69 71 80 83 88 88
15 6 7 8 27 77 100 98 98 97 100 99 94 89 85 93 97 96 98 98 98 97 97 98 99 99 97 94 100 100 95 99 100 99 91 89 86 82 77 76 80 82 88 92
12 10 9 26 88 100 100 100 100 100 100 100 100 92 91 88 93 95 94 99 98 98 98 99 99 93 95 97 93 88 86 86 97 99 100 99 94 93 87 86 90 90 94 94
10 17 23 51 95 88 97 96 97 97 99 98 95 99 100 97 92 96 92 98 97 98 98 98 98 98 97 88 79 66 64 69 68 81 98 100 96 98 97 100 99 100 100 100
13 28 55 88 97 98 98 96 96 100 95 99 100 100 100 100 100 98 96 98 97 97 97 97 97 94 89 63 46 61 71 67 65 73 99 97 98 99 100 99 99 100 99 99
16 46 88 90 96 97 91 94 98 99 100 100 100 98 100 99 100 99 98 100 98 99 97 97 97 94 61 52 59 82 84 88 96 99 98 98 100 99 94 99 99 99 99 98
32 47 78 84 96 98 100 92 95 97 100 100 100 100 99 100 98 97 97 100 100 97 97 95 81 67 50 70 77 96 100 100 98 100 100 99 98 97 92 91 97 98 98 94
35 54 81 86 89 89 87 93 96 100 100 100 100 99 94 97 93 94 93 98 100 100 97 90 82 76 69 50 72 96 99 99 99 98 97 96 95 99 100 95 92 94 94 93
33 22 46 75 85 84 87 86 92 100 100 99 99 98 94 90 86 90 96 100 99 100 75 78 76 64 62 63 54 52 96 94 94 94 98 98 99 99 97 97 99 99 100 97
25 14 12 20 33 54 86 89 95 100 100 99 96 95 97 95 100 99 100 95 97 92 82 81 72 64 61 58 56 57 51 41 43 61 75 80 84 88 89 90 93 100 100 99

GFSNW_700_rhum_054.txt.gz
RH
10 19 21 58 45 53 70 55 57 75 72 81 92 96 96 97 98 97 99 91 87 86 81 91 86 82 87 72 76 82 85 89 92 94 87 90 91 88 81 75 72 91 96 54
10 18 20 54 38 48 56 66 67 71 84 91 91 95 97 99 98 87 91 81 75 74 68 81 76 74 86 79 71 87 83 87 86 92 94 94 94 86 97 87 79 87 86 53
9 15 17 44 40 44 52 54 63 59 71 84 96 96 98 100 93 84 73 74 73 74 71 75 86 81 89 86 78 93 82 83 80 77 81 82 93 79 82 96 92 86 73 50
7 12 15 29 44 48 52 50 55 61 65 76 96 98 99 100 98 92 77 85 77 78 87 82 90 88 91 96 96 88 87 88 87 83 94 93 92 83 83 90 77 91 56 61
6 11 13 24 46 55 48 57 68 68 80 95 80 84 82 90 94 87 95 94 95 98 86 82 88 82 87 92 93 90 94 91 92 74 74 75 80 80 80 81 80 84 72 77
4 9 14 24 52 54 50 51 63 77 86 97 97 89 96 94 96 98 95 98 92 86 82 83 83 79 81 80 80 90 98 93 91 72 85 79 84 68 69 70 67 79 87 86
4 7 10 14 39 62 57 44 58 66 73 85 86 84 81 92 98 95 99 98 92 89 92 92 90 90 88 88 90 92 88 89 92 78 83 94 70 69 76 81 86 94 93 97
6 5 10 15 27 69 63 50 53 58 67 78 95 94 88 84 79 74 74 73 73 74 80 90 95 100 99 100 99 96 93 96 94 99 94 68 74 81 79 92 83 90 88 98
10 6 6 16 24 59 63 63 53 52 56 68 81 87 93 86 89 85 82 78 77 84 86 86 92 89 93 100 99 99 98 90 98 86 97 84 88 68 74 89 85 90 96 93
15 8 6 8 26 42 60 69 68 65 66 63 67 68 91 93 93 88 84 79 78 81 83 86 90 92 89 94 100 97 96 93 97 85 92 69 66 69 80 87 82 99 93 88
19 13 8 8 14 38 54 71 78 76 73 74 72 66 90 94 95 89 89 85 79 81 87 94 92 88 89 95 90 90 86 96 98 98 92 81 84 82 90 91 98 92 82 78
21 16 10 8 11 27 48 74 83 82 85 91 78 78 82 96 93 89 94 90 96 99 96 89 91 90 92 97 95 97 95 83 80 78 71 79 83 87 93 98 90 88 74 75
22 19 11 8 18 15 44 83 86 85 99 85 84 89 86 86 90 90 91 95 95 98 99 94 92 88 91 89 96 94 91 93 91 96 91 82 84 96 95 98 86 86 91 86
21 21 10 10 26 27 28 97 96 96 100 94 89 90 98 95 92 91 88 87 96 96 100 99 99 92 90 84 82 90 91 97 98 90 77 87 81 90 100 89 74 87 90 81
22 21 10 21 28 26 26 100 100 92 99 97 98 92 96 95 94 92 89 91 93 90 100 99 99 100 100 99 91 78 76 75 83 82 92 88 89 98 93 81 87 89 84 84
23 19 16 14 8 14 28 92 100 98 100 99 91 87 93 89 88 90 91 88 88 95 100 99 99 92 98 94 99 75 99 90 92 91 80 77 79 84 88 90 85 87 88 84
24 15 12 6 5 14 36 94 99 100 100 100 87 85 82 86 88 88 90 90 93 100 100 99 99 97 95 96 92 72 94 99 99 98 99 78 73 80 83 84 74 74 86 90
25 14 7 8 10 23 51 100 99 100 100 100 100 99 87 89 91 93 94 94 100 99 99 98 99 99 96 96 82 92 85 80 85 85 92 87 83 80 87 87 81 73 80 87
23 10 11 13 18 45 99 97 96 100 100 99 95 98 88 92 98 96 93 96 98 97 97 98 99 98 98 95 90 95 100 100 100 95 98 99 90 87 89 84 80 77 86 90
22 14 12 28 67 99 100 100 100 99 99 99 97 98 91 94 96 94 95 97 98 99 97 97 98 98 98 98 91 86 88 90 89 87 97 98 99 99 95 91 86 86 94 95
21 19 23 81 98 98 97 94 97 97 99 99 100 100 100 99 100 95 97 96 97 98 98 98 98 98 98 98 96 81 64 58 63 67 72 88 97 100 98 100 100 100 100 99
17 32 49 100 97 94 98 99 95 94 96 100 99 99 100 100 100 99 95 98 98 97 97 97 98 99 97 88 76 56 62 74 67 63 68 78 92 97 98 98 96 100 99 99
16 48 95 98 98 98 94 99 98 89 98 99 99 99 100 100 100 98 95 98 97 98 97 97 98 96 86 80 74 77 95 84 78 78 82 95 95 98 98 99 100 99 99 99
26 50 94 94 100 99 98 81 77 84 100 100 97 97 100 100 99 97 93 99 97 97 97 96 95 92 74 54 70 99 100 100 100 100 100 99 99 87 88 98 100 99 99 99
28 40 68 84 96 93 97 98 95 100 100 98 99 98 100 99 98 98 100 100 100 99 97 95 95 85 80 71 54 78 97 98 99 99 98 99 100 99 96 95 91 95 97 96
32 32 38 61 82 89 90 95 100 100 100 98 98 94 99 97 98 100 100 100 99 100 97 85 92 77 67 65 64 56 79 98 98 100 99 97 98 98 96 100 98 97 97 95
38 31 21 21 27 46 85 92 100 100 100 95 97 95 100 99 100 98 98 100 100 100 90 83 74 71 70 67 67 66 60 54 48 48 74 92 89 95 100 100 100 99 99 98

GFSNW_700_rhum_057.txt.gz
RH
6 16 31 38 41 55 51 48 59 66 69 88 96 97 100 98 89 83 88 85 78 87 84 89 85 80 92 92 86 82 81 82 97 87 90 90 96 80 78 68 80 91 97 45
6 15 21 43 45 47 48 52 50 65 78 92 94 99 85 70 73 66 74 83 73 83 85 80 79 79 92 87 83 85 80 80 96 99 95 98 97 94 86 79 78 81 86 45
6 12 15 29 46 46 42 42 47 56 84 100 99 100 99 96 91 82 72 80 74 75 72 73 80 72 82 77 83 86 77 71 70 74 75 79 90 81 87 92 91 83 66 37
5 11 13 24 52 47 43 43 45 68 80 99 99 99 99 97 95 87 76 86 76 70 79 79 86 78 83 93 83 85 90 78 82 80 87 88 86 83 82 87 92 81 47 50
5 10 15 24 52 48 48 56 58 72 68 94 96 82 90 86 88 84 87 84 81 73 73 73 76 77 81 92 91 90 86 88 86 70 75 78 82 84 81 80 76 76 61 70
6 6 11 14 41 51 47 55 65 72 86 93 81 96 91 88 91 99 94 94 90 93 85 82 88 89 83 83 76 85 90 94 87 75 91 81 74 62 62 60 58 57 71 82
10 5 10 10 23 55 49 47 59 67 79 80 80 79 82 91 89 94 94 98 91 93 94 95 95 95 94 84 90 92 92 96 95 82 82 94 69 72 71 80 85 90 93 98
15 9 6 12 19 50 54 43 53 64 70 67 78 81 77 90 85 83 93 83 80 85 92 96 97 99 99 99 99 99 99 96 94 96 94 70 62 86 84 84 81 95 99 97
20 15 8 6 16 29 57 51 44 49 57 60 65 77 84 83 80 79 76 74 78 83 82 88 90 88 96 98 97 93 92 84 95 87 91 87 90 78 73 83 97 99 92 98
23 21 14 8 8 20 42 59 57 54 51 56 60 74 80 80 81 81 80 80 78 82 86 86 94 90 90 98 97 99 94 97 98 99 85 76 64 77 72 88 91 90 90 84
22 24 22 15 8 8 25 45 70 57 58 61 63 58 75 76 84 92 88 82 83 85 86 86 87 89 94 98 94 82 84 90 99 100 95 81 79 71 88 86 98 96 94 84
19 24 25 22 12 8 11 35 60 75 70 73 74 67 59 83 82 98 91 90 94 98 95 88 86 86 89 94 91 96 94 82 88 86 77 79 94 89 89 90 93 95 88 98
18 20 25 26 17 9 12 20 49 89 86 80 73 75 84 89 92 94 90 92 96 98 98 93 92 90 86 84 80 86 93 97 95 93 97 93 97 93 86 88 98 84 84 98
18 19 23 26 17 11 19 20 48 100 100 93 82 86 91 91 87 88 88 92 96 96 100 99 98 96 92 87 82 87 87 91 85 93 81 91 91 100 98 97 85 89 92 94
19 18 22 25 14 16 16 23 53 100 99 100 98 85 90 99 91 89 90 88 89 94 100 99 99 97 98 94 96 77 74 82 81 82 86 92 92 95 96 93 88 93 95 94
18 18 25 18 11 8 7 24 73 99 98 98 96 98 96 94 95 94 95 96 92 95 100 98 98 96 97 95 100 68 96 100 97 77 80 78 72 74 80 79 79 89 84 92
17 23 23 8 6 6 9 38 79 98 98 99 97 96 91 92 96 94 89 89 90 91 98 96 94 98 97 95 97 67 88 85 93 99 96 96 99 91 78 76 76 77 76 79
18 26 12 10 10 7 27 74 96 96 97 98 97 99 100 92 92 96 95 97 94 96 98 95 97 98 95 98 82 80 74 76 77 88 88 80 94 93 84 80 76 79 77 79
22 24 11 13 13 33 84 97 97 97 98 97 96 99 99 96 100 100 98 96 94 100 100 100 100 98 96 92 82 90 86 96 99 100 98 99 99 98 88 78 78 80 75 73
25 20 16 21 52 97 94 97 96 97 97 96 96 100 100 97 99 95 98 99 98 100 92 98 99 98 98 97 99 89 89 97 93 96 98 98 98 98 100 100 95 93 90 86
29 19 18 43 95 100 98 98 98 95 95 92 86 93 100 97 99 97 96 98 96 98 97 98 99 100 100 98 99 98 95 77 72 71 74 76 78 92 98 98 98 99 98 99
31 23 23 88 97 97 94 96 92 100 96 100 100 99 99 98 98 99 98 96 97 97 97 97 99 100 100 99 97 85 78 65 69 64 60 58 65 83 91 95 98 98 99 100
29 31 54 90 94 97 98 96 99 100 93 100 100 96 95 97 98 98 96 98 98 97 97 97 98 96 96 76 64 92 83 95 94 83 79 72 73 86 91 91 96 98 99 99
36 62 78 83 97 100 100 100 90 83 87 100 99 97 92 97 97 98 96 100 98 98 97 96 96 97 94 85 78 94 99 99 100 100 99 100 100 99 96 90 95 98 99 99
28 45 62 82 89 91 100 100 100 99 97 97 98 96 94 96 97 100 100 99 99 99 95 94 96 94 94 96 96 95 98 99 99 98 99 99 98 93 94 96 100 100 99 99
26 30 36 42 46 74 91 100 100 100 97 96 92 97 97 92 96 100 100 100 97 95 96 97 96 91 84 92 89 94 94 96 98 99 99 99 99 99 100 98 95 93 93 96
72 48 35 27 25 32 64 100 100 100 96 96 96 97 88 97 97 98 99 99 92 90 100 95 79 80 84 87 88 91 93 94 95 69 55 64 84 98 98 99 100 98 98 95

GFSNW_700_rhum_060.txt.gz
RH
10 9 16 35 48 47 49 58 77 98 84 97 100 100 100 90 92 74 93 85 80 93 85 93 82 75 80 90 86 73 70 79 95 95 93 90 93 77 70 62 80 80 91 42
11 9 13 22 41 44 46 46 67 94 75 88 97 88 78 74 68 65 68 72 69 78 76 87 73 73 78 87 77 80 73 87 93 95 92 97 99 94 89 75 64 71 72 40
12 6 12 18 47 40 42 41 63 95 99 98 81 91 90 81 70 68 70 74 77 74 72 69 76 76 83 88 88 86 77 71 69 74 74 81 93 88 92 86 85 78 58 40
13 5 12 21 48 41 47 50 68 83 93 99 100 86 92 78 73 78 80 82 80 72 73 75 74 74 76 83 89 89 79 72 72 76 81 86 82 81 84 88 82 77 55 46
16 6 10 12 42 43 45 57 70 84 93 87 87 86 94 88 86 78 92 85 80 74 68 73 65 68 76 69 84 90 89 76 82 76 78 83 80 84 88 82 79 76 64 60
19 9 7 11 24 47 46 55 72 77 82 82 75 84 93 95 86 89 84 82 84 86 89 81 80 85 82 84 78 93 87 81 84 77 90 84 75 67 68 67 62 62 66 75
21 15 6 10 14 46 51 46 63 78 83 76 72 80 90 88 89 95 97 98 94 93 91 94 96 98 95 89 89 88 86 92 97 81 79 93 70 70 75 75 80 80 84 82
22 20 13 6 14 23 56 46 57 64 76 76 72 75 83 81 78 80 84 84 93 97 99 96 98 99 99 98 99 98 97 97 95 97 87 70 68 88 87 84 89 92 92 100
21 23 20 15 6 15 44 58 46 50 56 65 76 80 74 75 74 76 76 77 80 87 88 89 88 88 92 95 90 95 89 93 89 90 86 89 92 89 77 87 99 99 92 93
20 21 24 22 17 7 15 41 60 50 45 50 64 81 84 78 79 79 77 77 78 87 89 88 94 86 90 92 87 95 90 88 93 89 84 72 73 81 80 93 96 100 91 95
19 20 22 25 25 18 7 12 34 59 56 54 52 64 74 77 75 77 83 80 84 85 86 85 87 91 91 97 90 81 80 84 94 98 92 82 67 79 94 98 98 94 89 89
18 19 20 22 26 26 19 8 10 33 62 73 69 60 65 70 81 90 85 93 94 97 91 82 87 86 89 96 91 97 93 85 89 84 81 79 98 99 98 89 90 93 80 86
40 19 19 20 25 27 26 14 8 10 44 78 74 75 77 68 80 85 89 95 95 99 99 90 92 90 92 89 87 89 86 94 97 95 96 97 99 98 98 100 93 87 88 96
86 28 19 19 22 28 28 16 12 14 42 89 91 85 79 75 82 88 99 97 100 98 100 99 99 96 91 90 89 90 89 94 96 87 82 85 93 93 99 100 98 89 99 99
86 34 20 19 22 28 21 9 13 21 69 99 98 98 84 83 90 92 88 91 91 97 97 99 99 94 94 86 84 72 75 79 83 79 79 82 78 97 98 95 89 93 88 91
82 36 20 19 27 18 6 6 13 26 98 100 96 99 95 95 96 96 95 96 95 98 100 98 98 97 94 92 84 66 80 86 98 98 96 80 73 75 75 84 87 82 76 84
74 26 19 27 16 9 9 30 55 38 98 96 96 98 99 96 98 100 100 97 94 99 100 100 99 100 100 98 97 75 70 77 81 80 87 94 94 98 96 87 79 75 78 78
46 20 26 17 10 39 21 48 64 84 97 97 97 97 96 95 97 100 94 96 97 100 100 100 100 100 99 99 92 76 72 71 76 81 82 82 90 96 92 97 88 82 79 72
26 20 23 13 11 24 71 98 96 97 97 97 96 98 98 100 100 100 100 100 100 99 100 100 100 99 99 94 95 98 85 81 87 92 99 99 94 98 100 95 88 82 79 77
23 25 15 28 69 98 99 97 96 97 97 97 99 99 96 97 97 97 98 99 98 99 99 100 99 98 100 100 98 98 98 95 88 84 95 97 98 98 98 99 99 100 100 98
25 29 15 66 87 92 98 97 96 97 95 92 86 92 97 95 98 98 98 97 98 99 100 99 99 98 99 100 97 97 97 95 91 76 72 80 85 95 97 96 97 98 98 100
32 32 23 78 98 98 96 99 97 97 96 99 96 94 94 95 96 98 97 97 97 94 98 97 99 97 100 99 98 100 96 89 84 78 76 64 51 56 65 73 87 96 99 98
53 27 34 77 96 99 96 98 98 98 96 98 96 98 98 96 96 99 96 97 98 97 99 96 94 96 97 97 85 69 80 93 95 99 99 84 79 70 64 76 93 100 98 99
50 35 65 77 98 88 91 91 89 89 96 100 98 92 98 91 99 92 97 99 100 100 96 87 92 96 96 93 86 92 98 96 95 97 98 100 93 87 85 88 98 97 95 97
49 39 59 81 87 95 100 100 100 100 100 98 95 93 95 98 97 94 98 98 98 99 94 90 95 97 95 95 94 97 98 100 100 99 100 99 99 99 99 95 100 100 100 100
82 30 40 58 73 87 98 94 100 98 95 98 93 91 97 92 96 100 94 97 97 97 95 99 100 97 94 96 96 96 97 97 97 97 97 98 98 98 98 97 100 98 100 100
92 67 47 35 34 37 48 60 100 99 97 97 97 95 88 96 96 92 92 98 89 90 98 100 98 96 97 96 96 96 96 95 97 96 96 90 88 96 97 98 95 98 97 97

GFSNW_700_rhum_063.txt.gz
RH
19 6 11 17 31 43 50 70 65 73 76 87 84 90 90 92 75 85 95 89 82 83 90 88 78 89 83 82 77 74 70 76 97 97 97 87 87 74 63 56 73 70 72 40
19 7 10 16 32 37 40 57 66 67 61 75 85 86 86 86 78 76 90 88 78 76 78 79 72 64 80 84 83 76 68 73 96 97 89 91 95 85 79 68 62 64 61 38
20 9 9 16 34 38 44 56 70 76 66 76 70 74 81 84 76 73 69 72 76 78 68 64 71 67 77 92 81 70 65 62 64 72 69 75 85 75 80 81 73 67 47 50
21 12 6 12 31 37 44 55 74 65 86 80 79 78 84 76 80 76 75 77 73 70 64 72 77 72 70 92 87 81 74 66 66 68 75 80 79 80 80 85 78 69 56 48
22 17 7 11 17 38 42 60 75 76 82 81 76 72 80 75 78 74 78 79 77 73 68 74 69 66 70 70 84 89 85 71 72 77 77 78 77 81 83 76 81 75 64 54
22 21 14 8 11 34 42 57 69 75 82 80 75 79 82 86 79 84 84 81 82 81 78 77 75 75 76 78 66 84 90 82 71 78 88 89 84 68 70 70 67 62 66 66
21 24 21 11 10 22 43 46 64 76 76 73 81 97 87 88 86 89 90 94 94 93 87 89 98 89 90 84 88 96 91 82 85 85 82 94 71 73 76 79 75 70 70 84
20 22 25 22 11 12 35 44 56 62 70 70 74 88 92 88 84 82 77 87 92 92 94 98 98 96 94 100 98 95 92 87 94 94 93 69 83 89 88 91 96 96 97 83
16 21 23 26 24 13 12 45 47 55 60 62 68 78 82 83 83 78 77 84 94 96 95 94 88 85 88 91 93 96 94 95 90 93 87 79 97 88 86 91 99 98 97 90
30 18 21 22 26 26 17 9 32 50 46 52 55 75 82 79 84 83 80 78 86 89 87 91 91 83 87 85 83 90 89 89 93 89 84 70 81 82 81 94 98 100 99 90
87 21 19 20 21 25 27 23 10 14 37 59 51 55 79 84 83 84 84 83 82 84 87 86 88 93 89 92 85 80 78 81 89 92 91 78 72 86 92 98 96 94 98 85
88 51 25 19 19 20 24 28 26 20 8 30 67 53 63 71 87 82 88 87 88 89 89 81 84 87 91 98 91 95 90 82 87 84 82 89 92 88 97 93 97 98 87 88
89 92 89 29 20 19 21 24 28 26 19 8 26 65 65 64 74 89 87 98 96 99 94 88 89 88 93 93 88 89 93 94 96 93 90 90 96 96 93 95 99 98 89 91
91 92 88 73 25 20 21 24 28 26 16 8 24 76 73 71 74 89 96 100 99 100 100 99 96 94 91 86 86 88 88 92 96 93 81 85 92 87 96 96 99 100 91 95
91 94 86 66 31 21 21 28 26 12 13 12 45 73 91 81 80 100 100 100 100 99 97 96 94 95 96 86 80 61 57 68 75 76 77 73 71 94 95 98 98 95 95 86
86 93 87 52 22 20 29 18 14 10 12 20 83 98 92 87 94 99 99 100 96 96 100 96 94 96 98 94 85 59 62 74 78 85 100 97 95 84 72 75 79 87 87 83
82 86 76 24 22 26 21 41 50 28 26 36 89 94 100 94 96 100 98 100 100 100 98 98 98 97 97 95 96 71 61 69 80 83 79 84 82 92 94 96 98 89 79 75
81 81 33 22 21 19 52 42 45 46 51 89 96 97 100 90 98 98 99 100 100 99 99 98 98 100 98 99 94 73 68 73 80 83 82 81 78 81 91 97 96 99 98 88
84 57 24 21 14 32 73 93 100 97 95 96 97 97 94 97 97 99 100 100 98 97 100 99 99 98 94 86 88 92 88 86 86 85 90 99 99 98 97 97 99 95 87 82
84 42 25 26 82 95 97 98 98 98 96 96 95 96 97 98 98 98 97 100 94 100 99 99 100 98 100 100 100 100 100 99 100 99 96 94 99 92 94 97 94 97 99 99
82 35 30 26 86 98 100 98 97 97 97 92 88 96 97 98 99 98 98 99 97 98 95 99 98 99 95 100 100 100 99 98 99 96 88 82 80 85 93 93 96 97 97 96
66 35 38 47 88 95 99 98 97 95 91 98 96 97 91 94 93 95 88 88 96 95 99 99 98 77 84 99 100 100 100 100 93 84 84 86 91 76 59 64 77 87 92 91
43 41 28 46 90 100 100 93 100 97 91 91 95 99 89 91 89 93 92 98 96 97 97 93 85 88 97 97 98 86 76 84 85 90 99 100 100 92 82 69 58 59 72 90
47 45 34 52 98 96 95 87 91 94 93 96 92 92 94 95 98 94 97 99 99 98 98 85 82 96 95 96 96 97 96 95 100 100 95 98 99 100 98 82 77 83 91 97
52 59 50 57 80 95 97 100 99 99 94 97 93 87 90 91 91 98 100 97 98 100 99 98 96 96 96 96 97 96 96 98 99 98 96 99 100 100 99 100 100 99 99 99
60 79 41 57 74 89 98 97 96 94 98 97 97 90 94 92 93 99 92 94 92 100 97 99 100 98 92 94 96 96 97 96 97 97 97 99 98 98 98 98 98 98 99 99
71 84 76 32 32 38 46 57 82 98 98 98 97 97 87 97 96 98 92 92 88 89 89 93 96 98 97 96 95 95 95 96 95 96 96 96 96 96 96 98 98 99 99 100

GFSNW_700_rhum_069.txt.gz
RH
24 16 6 15 21 25 29 43 58 64 68 60 59 76 92 91 92 92 96 94 86 82 78 78 83 88 90 70 75 80 73 96 96 98 87 87 92 82 70 73 70 60 66 42
32 22 11 9 21 24 26 44 60 60 62 64 64 68 79 83 76 77 84 95 94 86 84 79 84 80 83 81 74 83 65 86 95 94 86 79 82 81 79 67 55 64 48 44
53 24 20 8 16 28 27 42 52 63 65 62 63 65 73 76 72 75 72 78 74 81 78 73 70 63 74 71 70 68 63 76 75 66 74 80 82 79 72 67 68 60 55 48
67 34 24 16 10 28 35 44 58 60 64 67 70 77 95 97 81 74 69 79 83 81 78 79 71 64 64 71 77 70 67 63 57 61 63 72 69 69 70 65 67 61 55 51
65 66 29 24 12 16 37 44 65 65 63 70 74 77 75 90 72 70 76 81 70 82 83 71 89 67 86 86 82 80 68 65 57 61 64 65 66 72 73 68 75 77 70 60
63 72 59 24 25 11 23 41 56 65 64 69 72 68 71 74 73 77 73 71 76 66 67 69 72 75 72 70 82 89 86 72 66 84 70 86 84 63 78 74 61 75 80 58
58 63 73 51 24 25 11 32 42 66 66 68 68 76 82 86 87 89 78 79 93 79 75 72 77 72 74 73 68 69 87 89 83 76 84 74 72 68 71 77 74 65 70 78
58 60 68 78 42 22 26 13 34 47 62 68 68 71 79 81 78 84 86 85 86 85 81 98 94 93 96 96 89 96 96 86 85 80 67 65 70 80 78 85 96 60 57 64
59 67 66 71 74 31 22 27 18 25 44 59 67 64 79 78 79 81 88 94 94 91 90 100 85 84 77 89 93 87 85 89 86 94 81 60 95 88 93 100 99 95 95 96
9 44 68 72 76 63 25 21 24 26 16 33 50 60 70 72 73 72 77 88 98 95 99 98 89 77 80 76 78 95 95 94 89 81 77 70 67 89 87 96 100 92 82 80
5 32 72 72 80 80 84 62 28 20 26 25 18 42 51 72 75 79 76 82 84 96 98 96 94 89 84 86 83 85 84 81 85 85 78 73 64 82 88 100 93 96 88 91
4 11 66 76 78 85 84 86 72 28 20 24 26 22 27 51 67 73 80 83 82 86 90 89 93 91 94 84 83 87 89 83 78 79 81 77 70 99 83 84 95 98 96 93
4 11 73 100 85 86 86 91 92 84 60 38 30 29 28 18 47 75 76 87 90 87 83 88 89 94 90 82 84 90 88 85 88 85 83 81 86 86 82 82 82 96 98 97
12 68 70 100 97 91 88 94 94 76 50 43 46 38 36 31 19 61 64 88 97 95 90 87 88 88 83 92 90 85 88 88 91 94 80 83 83 83 79 84 91 91 93 94
76 98 100 100 99 92 91 93 86 36 32 37 41 42 40 36 18 33 77 84 98 96 93 88 87 85 87 87 83 72 72 62 93 82 86 90 98 78 81 86 93 98 96 97
85 94 94 98 98 94 92 87 46 39 44 43 31 20 17 17 25 38 76 95 94 93 98 91 91 84 86 96 100 77 61 58 58 73 59 72 79 75 78 74 71 71 92 93
70 74 96 98 98 94 96 57 44 49 42 52 27 13 24 38 70 99 99 99 98 94 92 89 95 92 94 92 99 89 62 65 66 70 70 73 79 84 81 84 85 88 86 79
92 96 98 98 96 95 49 36 43 72 72 55 55 86 96 95 99 98 89 99 98 97 95 95 87 90 92 89 86 63 62 66 70 73 76 74 74 72 78 78 74 75 80 89
82 76 96 96 96 69 73 94 91 88 81 97 93 95 97 96 98 96 98 98 99 98 98 92 92 91 86 82 72 74 76 79 87 94 96 91 86 82 78 74 75 72 84 96
96 96 97 96 93 50 98 99 97 100 97 77 73 94 96 97 100 96 98 98 96 98 94 99 100 90 75 72 75 83 87 88 97 98 92 100 100 99 95 90 88 88 94 99
97 96 97 95 66 98 97 98 99 100 92 84 78 83 95 97 97 98 86 98 97 97 94 97 96 76 57 74 81 88 89 98 98 100 100 100 100 99 93 92 90 88 86 91
95 96 96 94 63 97 97 98 98 96 97 97 98 97 97 96 97 97 96 97 95 98 99 95 95 66 76 79 89 100 100 100 100 99 96 96 97 95 91 88 86 86 83 80
96 96 94 92 72 100 98 98 97 99 100 99 98 97 97 97 96 96 96 92 99 95 98 96 81 82 88 92 93 100 99 90 92 90 87 87 86 82 80 91 100 100 95 78
96 95 94 85 96 99 99 96 100 99 94 99 96 97 97 96 97 98 100 100 97 97 100 92 96 97 97 96 97 97 96 86 85 88 93 92 93 94 97 98 98 100 99 86
95 93 91 74 63 86 100 96 94 95 88 97 96 95 97 96 96 100 97 98 97 97 97 95 95 96 94 96 96 96 96 94 95 94 92 95 96 95 96 96 97 98 99 99
96 88 81 67 53 58 70 96 93 95 97 97 97 96 96 95 91 100 100 98 86 85 88 81 79 88 90 95 97 97 97 98 97 97 97 97 97 97 98 98 96 99 99 97
90 70 66 65 68 49 45 67 79 94 98 95 93 96 99 96 99 100 99 88 82 83 80 74 66 67 81 99 100 99 98 98 97 95 95 95 90 93 94 97 97 97 98 99

GFSNW_700_rhum_072.txt.gz
RH
58 47 28 11 11 22 26 40 49 54 54 52 61 83 84 80 95 94 94 86 80 78 77 82 80 89 74 74 80 80 83 81 96 100 91 94 97 98 81 71 72 53 58 52
46 57 44 28 8 18 24 41 48 50 59 55 55 74 81 77 81 83 93 94 88 81 78 78 87 72 73 74 75 81 73 83 92 94 82 78 81 79 80 71 66 60 78 55
39 43 55 46 25 12 27 38 50 54 53 59 60 68 99 99 75 75 80 83 82 77 78 71 72 66 76 75 72 68 66 79 84 81 82 77 73 74 78 72 53 62 48 50
42 40 46 57 42 20 18 36 53 59 61 64 87 98 96 100 85 76 72 86 81 80 76 78 75 60 61 63 68 68 69 67 56 68 58 61 57 65 77 68 62 59 53 52
7 26 43 55 59 38 16 28 55 60 65 64 79 73 100 98 95 76 96 96 84 88 79 75 87 67 76 87 66 74 65 68 54 52 49 55 54 64 70 76 63 58 63 57
4 5 8 34 54 58 33 17 27 46 71 68 85 78 70 83 97 96 79 73 93 81 64 65 70 74 75 73 73 81 77 70 58 83 66 71 76 55 57 63 55 52 57 54
5 4 5 9 25 54 57 34 21 25 49 71 78 80 77 96 94 95 90 77 89 84 75 71 78 73 68 63 64 71 88 86 86 83 75 88 70 64 66 71 71 62 63 74
6 5 5 8 20 42 59 57 38 30 18 41 70 66 82 82 97 95 88 81 88 83 83 92 92 95 91 96 93 84 88 88 84 79 70 66 65 69 73 71 76 64 62 73
6 6 5 4 7 26 37 62 53 31 39 23 40 61 78 75 91 97 89 86 86 86 90 95 90 77 75 83 93 88 81 88 83 82 83 74 89 81 80 95 99 70 62 72
7 6 5 5 4 12 44 62 67 63 50 40 20 26 44 70 86 88 99 92 90 90 94 95 86 86 75 76 78 87 86 84 84 80 82 72 67 85 94 97 97 100 91 87
6 5 5 5 8 25 65 75 78 80 74 65 44 25 21 34 62 98 93 95 85 87 92 92 89 86 83 79 79 84 81 84 83 83 80 79 68 92 89 95 94 98 94 90
6 5 6 8 21 65 99 92 84 84 82 74 61 26 24 23 24 52 95 97 100 100 94 91 90 86 89 80 83 85 80 79 78 74 78 73 76 99 86 92 93 96 98 95
4 5 20 38 76 78 83 89 93 90 84 70 70 68 44 26 27 25 44 71 98 98 84 85 91 86 90 87 79 86 85 83 82 79 77 76 78 80 83 85 82 82 94 98
3 16 83 98 98 100 97 94 100 97 94 76 50 54 54 56 42 32 20 53 97 95 96 92 90 88 84 79 87 88 90 94 81 76 90 88 82 84 74 78 78 83 91 95
12 69 96 97 90 78 96 92 96 97 97 64 46 40 40 41 41 38 28 30 87 100 99 94 90 86 85 80 78 73 70 77 91 90 87 92 90 89 86 84 80 85 87 95
53 98 100 96 81 92 95 92 93 95 77 46 37 15 8 16 30 37 36 28 92 100 100 91 94 94 90 86 89 76 68 63 65 73 86 82 83 74 70 71 73 72 76 67
80 98 99 86 92 95 96 96 96 86 62 93 52 10 30 14 14 19 44 64 99 100 98 97 97 94 98 96 90 77 69 66 68 64 63 69 70 72 75 73 70 80 84 80
90 98 92 89 64 91 96 97 90 66 76 94 53 49 89 99 81 76 93 96 95 97 96 86 85 87 90 94 85 70 66 73 66 63 76 74 71 68 63 61 63 71 73 74
78 88 78 88 91 95 97 94 96 94 77 97 83 92 93 96 99 98 97 92 100 95 100 92 98 94 96 80 74 70 62 63 74 84 84 91 83 80 79 77 72 69 70 72
82 97 97 98 90 97 95 96 95 91 98 93 66 80 80 98 98 97 93 99 99 98 94 98 94 88 81 75 71 74 81 82 87 87 88 88 97 100 100 86 80 77 79 78
78 94 97 94 94 94 96 98 95 96 96 91 86 90 95 97 96 98 95 97 93 97 96 96 96 82 66 67 70 76 91 97 93 90 93 100 100 100 100 97 91 86 85 84
90 96 95 94 95 89 96 99 96 96 96 98 93 95 97 96 97 98 96 97 96 97 99 98 86 69 67 75 81 82 88 92 97 100 100 100 97 95 96 93 91 91 87 84
98 94 95 94 94 91 98 98 90 98 97 97 97 97 97 97 97 96 97 97 96 94 98 100 72 78 80 87 89 96 100 98 92 95 93 90 90 88 86 84 83 84 92 100
93 94 94 93 94 83 88 85 94 97 99 97 96 96 97 97 96 96 96 97 98 99 98 92 93 97 97 98 98 97 96 95 90 88 90 93 90 92 93 96 99 97 96 99
92 90 89 87 84 76 76 83 90 88 94 93 93 95 96 96 96 96 96 96 96 92 95 97 96 97 97 96 97 96 96 96 96 96 96 97 95 96 97 97 96 96 97 94
96 82 84 78 68 58 57 56 83 96 96 98 97 94 92 95 96 94 95 96 97 96 96 88 74 76 88 93 98 97 96 96 97 97 96 96 95 95 96 96 98 99 97 95
86 78 76 77 69 67 60 51 51 65 89 98 97 95 97 96 99 100 98 96 96 96 93 81 71 68 69 83 98 99 98 97 96 96 95 93 91 92 90 91 92 95 98 99

GFSNW_700_rhum_075.txt.gz
RH
15 22 27 36 45 13 20 32 38 43 49 53 57 89 87 74 86 90 90 80 83 80 79 80 79 88 86 93 87 82 88 86 99 96 99 100 100 98 94 83 96 60 62 54
3 7 19 34 39 46 14 25 39 47 45 50 61 95 98 98 89 83 88 86 81 80 73 73 74 75 82 80 67 73 76 87 96 98 96 98 99 95 91 90 68 58 69 58
3 3 3 6 26 42 44 17 36 43 52 55 95 100 100 94 100 85 91 83 82 78 74 72 64 68 73 74 69 66 68 74 77 73 72 73 85 85 92 82 62 65 51 56
3 3 3 3 4 18 40 45 20 36 51 59 94 100 98 97 94 98 93 95 89 81 78 78 72 63 75 72 68 64 61 59 73 72 61 58 60 68 74 75 66 54 52 54
4 4 3 4 3 4 12 36 44 27 25 50 68 100 100 99 97 93 87 94 87 79 79 78 74 69 76 70 62 65 64 59 56 53 53 52 50 54 63 71 71 60 56 54
5 5 5 5 4 4 4 3 8 32 41 22 45 75 99 98 98 97 98 83 79 84 76 69 70 81 79 84 70 71 71 61 56 80 72 68 72 51 51 52 47 55 60 55
7 6 6 5 6 6 6 6 13 32 43 41 24 35 64 91 100 99 99 96 83 81 77 75 74 78 76 70 66 73 83 80 73 80 76 91 66 60 60 59 55 57 56 56
8 7 6 6 5 4 4 6 14 26 36 50 45 25 46 72 99 100 93 92 90 86 87 91 90 84 88 83 78 73 88 86 80 74 81 68 64 65 66 65 63 57 57 61
8 8 7 6 6 5 4 5 12 44 59 53 50 49 23 48 75 93 90 98 92 87 93 96 87 74 72 81 86 88 85 90 83 82 83 85 83 73 76 87 96 82 66 66
11 9 7 6 5 5 6 6 34 79 91 80 54 29 27 23 49 97 100 96 98 97 90 96 89 84 83 77 77 83 82 94 88 82 86 76 71 71 92 96 85 76 66 68
9 8 8 6 4 7 28 41 62 84 90 83 85 79 60 37 23 44 99 93 95 96 93 90 93 96 77 78 82 81 75 78 87 81 77 80 70 89 98 90 97 98 91 83
11 8 6 5 8 18 86 66 96 97 87 77 94 85 60 83 38 26 56 94 94 97 99 97 99 98 90 81 82 82 84 81 77 76 73 70 76 71 90 95 93 96 99 96
11 7 10 33 96 91 90 73 85 88 80 67 85 75 74 96 79 36 24 50 99 97 100 100 100 89 90 90 86 82 85 85 84 83 79 79 79 76 85 92 89 86 83 97
7 3 51 99 74 98 95 80 92 94 91 86 61 57 77 81 82 45 34 30 40 87 100 100 96 89 86 81 76 82 87 86 87 83 84 92 87 84 82 85 83 79 82 89
3 3 22 78 85 96 95 81 83 93 94 94 70 64 37 36 48 48 62 42 33 100 87 98 99 94 87 84 83 75 70 83 89 88 90 87 90 92 88 88 89 88 86 86
4 7 19 34 99 96 83 66 77 91 94 98 68 22 22 13 24 41 62 94 34 52 100 99 100 93 96 94 86 65 72 71 68 78 87 89 92 91 90 85 74 78 77 79
14 40 44 98 98 90 71 95 88 94 97 89 52 19 84 39 18 20 35 54 91 51 91 95 96 87 97 100 98 78 76 75 74 69 69 74 78 80 73 73 74 76 74 84
43 76 76 67 68 68 80 86 86 92 93 91 44 43 92 98 100 84 52 94 76 100 83 95 91 83 94 94 82 61 66 68 69 66 72 76 77 74 69 64 63 63 65 69
50 49 48 59 67 86 86 82 90 94 92 93 56 84 92 95 96 96 97 91 96 92 95 84 94 95 90 80 70 69 66 67 71 70 73 80 79 75 70 73 73 75 76 70
40 47 53 64 74 84 80 75 91 95 100 82 69 80 88 95 94 96 96 96 95 95 84 90 98 94 80 73 72 74 72 74 80 86 90 90 90 92 91 100 100 90 84 83
56 51 57 65 79 88 89 86 89 95 87 88 95 96 97 96 96 98 96 97 94 94 93 95 95 80 53 61 70 70 74 83 84 97 100 100 100 100 100 100 99 91 80 84
60 59 59 76 82 90 84 90 93 90 92 94 99 97 96 96 97 96 97 96 96 97 98 97 87 74 74 76 76 78 82 88 87 92 98 100 100 99 98 96 88 89 86 84
63 64 75 75 80 82 75 89 87 94 97 98 96 95 97 97 97 97 97 97 97 96 97 94 78 87 94 94 93 87 98 100 100 99 98 94 92 92 88 86 86 84 83 85
78 79 79 74 80 78 67 65 88 95 93 93 90 89 93 97 97 96 96 97 96 98 100 99 98 96 100 99 98 98 98 97 96 94 93 92 92 93 95 94 98 99 96 94
94 86 75 76 75 74 76 69 71 83 83 77 77 80 82 93 97 97 96 96 96 95 98 97 95 97 97 97 96 96 96 97 97 97 96 97 97 97 98 97 96 97 98 98
98 86 70 75 73 68 57 54 54 56 83 95 92 92 94 95 95 94 95 95 97 97 96 93 83 84 91 100 99 97 97 96 96 96 96 96 95 93 94 94 95 96 96 96
89 77 71 70 68 73 72 69 60 52 49 70 94 92 97 91 96 95 98 99 96 97 96 88 79 75 72 74 84 95 98 97 97 97 98 96 92 86 80 73 68 62 57 69

GFSNW_700_rhum_078.txt.gz
RH
2 3 2 3 12 27 36 29 26 30 39 42 46 62 89 87 86 87 89 82 84 81 78 76 81 92 98 98 96 90 89 88 99 100 97 100 98 100 100 87 96 77 66 54
3 3 4 3 3 3 6 15 25 30 33 30 37 67 84 96 99 94 90 87 86 82 74 73 74 87 93 96 98 92 95 98 96 99 100 100 100 93 92 89 82 83 77 57
4 3 4 4 4 4 4 6 9 13 26 32 36 40 76 93 97 89 86 88 83 80 79 67 72 79 78 75 74 81 79 81 72 73 69 84 98 90 94 90 87 66 63 52
4 4 5 5 6 6 5 5 5 6 19 29 31 37 50 82 93 96 93 94 89 82 81 77 64 69 75 75 70 68 66 64 75 72 76 76 75 75 90 96 82 67 59 48
6 6 6 7 7 7 6 5 5 5 9 21 35 38 46 57 96 99 87 94 90 77 85 78 71 64 67 61 58 65 62 56 57 56 54 51 52 64 80 82 85 80 61 51
8 7 8 8 7 8 7 5 5 4 6 11 28 46 50 61 81 88 96 91 88 78 82 78 74 72 78 78 74 66 70 62 51 57 69 69 63 35 44 55 69 71 70 56
8 8 6 7 8 8 7 5 5 7 17 46 43 38 66 80 93 92 88 93 98 91 81 78 85 79 86 86 84 71 79 76 64 82 81 95 54 59 57 55 48 55 63 62
10 6 7 9 10 9 4 4 8 13 11 36 45 61 60 100 100 100 98 97 98 97 87 92 95 85 87 80 82 74 88 88 79 76 80 56 48 55 59 58 55 52 54 62
7 7 8 10 10 7 6 7 20 38 43 66 65 75 76 51 82 96 98 89 96 95 99 98 92 77 74 83 84 90 86 92 87 88 82 85 86 75 76 74 71 64 58 64
7 8 9 10 8 6 28 37 75 72 63 76 93 97 95 42 50 70 98 95 95 94 96 99 94 83 86 80 78 79 83 92 89 88 84 69 67 70 85 92 80 82 69 72
8 8 9 7 6 6 63 86 86 79 65 65 88 92 95 94 90 56 77 97 92 96 98 97 95 95 88 79 78 81 78 76 81 82 77 74 70 78 91 89 87 93 67 69
10 10 7 5 3 25 97 75 97 81 79 66 78 82 93 97 95 74 29 85 98 98 96 96 96 95 97 85 81 84 84 75 76 76 72 72 77 74 87 96 94 100 100 100
12 9 5 4 5 67 96 70 96 82 66 55 68 82 95 96 95 95 62 36 90 100 99 97 97 94 94 95 85 78 83 84 86 85 78 78 80 80 83 95 93 89 90 92
10 5 4 3 7 14 99 85 96 76 82 75 59 70 86 73 81 90 88 46 32 84 96 98 92 95 91 89 84 82 82 83 84 83 80 80 84 83 88 94 94 89 83 86
6 4 3 11 18 26 59 92 92 79 76 70 56 56 37 32 33 59 93 80 33 34 62 95 93 92 98 92 90 80 73 74 82 88 85 80 81 91 90 90 92 93 92 90
4 3 12 20 51 68 73 77 66 74 64 80 61 24 83 66 22 23 45 93 81 43 46 94 98 100 100 96 90 67 70 74 72 68 77 86 88 85 89 88 80 77 70 76
4 13 21 43 47 50 66 85 71 59 70 79 47 46 91 94 69 26 39 62 88 97 48 87 99 99 100 99 95 70 74 76 76 78 78 77 81 86 87 83 74 68 66 65
10 19 30 40 52 70 70 62 61 64 72 66 56 75 92 96 98 88 29 44 66 86 92 60 57 74 92 97 87 67 71 68 68 75 78 79 79 77 72 70 71 69 66 63
18 22 35 42 56 61 65 61 62 64 68 70 72 76 91 95 97 97 94 97 97 89 89 87 91 91 95 82 74 64 65 78 76 75 73 74 74 71 72 73 71 69 71 76
26 28 38 48 60 70 62 62 65 59 68 75 89 95 97 95 96 96 99 98 100 98 87 96 96 82 68 75 78 74 75 76 76 76 85 90 92 89 87 87 92 100 99 83
33 41 46 54 70 75 70 68 68 64 73 79 86 91 95 97 97 98 98 97 96 100 93 97 88 77 65 68 77 80 80 75 78 83 99 100 100 100 100 100 100 100 96 86
35 48 48 61 77 74 71 67 64 74 83 88 86 91 94 96 97 97 96 96 97 98 98 100 93 84 81 82 86 90 92 87 83 85 92 97 100 100 99 99 95 90 85 82
44 56 61 66 69 68 64 63 71 80 90 96 91 83 84 95 97 96 96 97 96 97 97 96 96 95 97 98 99 93 91 95 100 98 96 97 96 94 93 89 89 90 88 82
51 60 68 71 68 64 63 59 61 81 89 87 80 74 75 88 97 97 97 97 96 96 96 96 98 93 94 99 99 98 98 97 96 96 96 92 90 90 92 96 98 99 96 95
71 74 75 69 65 67 69 72 67 60 60 80 88 74 71 82 97 98 96 97 96 96 97 97 96 96 97 100 98 97 97 97 97 97 97 96 96 97 98 99 99 98 97 97
82 85 65 64 67 70 68 62 61 54 46 51 82 92 100 100 98 99 97 97 96 96 97 95 90 93 94 96 96 96 96 96 96 96 97 96 96 95 93 84 78 85 85 87
83 76 69 70 76 73 70 68 68 69 66 52 63 93 94 94 98 97 98 97 96 96 97 95 90 78 72 71 75 86 96 96 96 94 93 92 90 87 81 75 69 63 57 50

GFSNW_700_rhum_081.txt.gz
RH
3 4 4 4 4 3 3 3 4 12 12 36 34 39 49 58 64 73 85 86 84 83 82 87 93 98 100 97 95 90 90 82 100 100 99 93 84 78 86 92 98 96 76 63
3 3 4 4 5 4 4 3 3 4 6 10 17 35 45 57 49 62 76 87 87 84 81 81 84 93 99 100 99 97 87 84 96 98 94 96 96 92 84 86 96 91 78 60
4 4 4 6 5 6 5 4 4 4 6 9 19 52 60 67 77 72 68 79 83 85 81 77 77 96 96 97 92 95 82 84 76 76 69 79 92 91 100 98 92 86 79 66
6 6 7 7 6 7 7 6 5 5 6 10 23 54 66 88 94 90 97 91 89 80 80 79 76 85 84 88 94 93 85 88 83 70 72 74 74 66 84 93 88 89 78 70
8 8 8 6 7 9 8 7 4 4 5 12 30 61 88 96 99 98 96 97 91 90 83 82 82 69 81 77 77 74 72 62 78 73 72 78 80 83 86 85 87 87 77 68
10 9 7 7 7 8 8 8 6 5 5 12 27 47 64 84 94 93 97 98 92 88 83 80 75 81 79 76 78 68 70 68 60 56 62 64 59 44 56 62 69 84 92 63
9 9 7 7 8 8 7 8 16 14 16 39 40 45 56 69 58 71 91 97 97 99 94 83 79 79 79 86 84 77 73 73 61 75 81 81 42 56 51 43 41 62 73 70
8 7 8 8 9 8 6 11 28 47 56 67 54 70 82 87 87 82 76 97 98 98 97 99 96 91 91 81 81 78 79 86 78 77 82 56 42 56 63 60 54 61 52 52
6 7 9 8 9 7 5 16 50 62 64 72 66 65 84 85 85 63 60 98 98 100 96 98 95 91 79 84 90 89 85 90 89 90 82 81 80 81 81 80 70 62 54 52
3 5 9 11 9 6 5 22 70 62 76 71 67 95 92 90 91 59 74 96 98 98 96 96 96 82 80 87 81 83 92 94 92 93 86 64 62 71 76 82 82 88 78 62
3 3 9 11 7 4 5 72 90 67 77 67 70 74 87 90 93 78 77 92 98 98 95 97 94 96 93 87 78 79 79 80 86 88 83 78 62 77 79 91 94 94 66 80
3 6 11 8 5 4 12 99 87 76 54 54 66 67 79 84 92 90 90 68 97 100 99 96 94 95 97 89 83 84 83 77 75 70 70 73 80 80 83 95 99 99 99 80
4 12 10 6 4 6 18 32 79 79 57 44 67 76 76 75 75 75 84 58 80 98 96 98 92 90 96 97 92 84 82 84 85 83 77 79 78 77 80 94 98 99 92 96
13 12 7 4 5 15 33 47 55 72 54 53 54 66 56 42 36 68 76 77 63 56 79 94 98 96 95 94 88 88 87 87 85 80 80 82 79 84 83 95 98 96 88 86
15 8 4 4 10 21 31 44 52 50 68 66 57 47 86 92 56 29 73 88 72 58 36 68 99 96 98 93 90 76 78 74 78 78 82 90 85 86 87 93 93 92 92 90
10 5 3 7 20 28 36 40 49 60 71 70 57 80 100 100 68 20 35 90 85 72 28 31 44 72 93 89 92 66 72 76 78 79 75 74 84 93 93 92 90 84 75 72
6 4 5 14 25 33 40 45 52 61 66 76 42 75 96 97 89 48 43 46 81 94 61 51 38 74 88 95 93 72 73 75 86 85 80 76 80 81 90 93 88 79 70 66
5 4 9 21 31 34 37 43 51 57 60 75 72 77 86 90 91 90 67 37 45 65 86 85 84 69 91 97 75 63 70 68 68 72 79 83 83 79 77 76 73 72 72 69
4 5 16 22 30 37 41 48 50 56 70 70 87 85 85 84 88 92 92 95 98 91 96 100 98 97 74 57 55 52 62 72 75 78 79 76 75 75 75 73 73 74 75 77
4 13 23 32 36 36 41 49 54 62 79 90 94 84 86 84 82 91 98 96 97 99 97 95 98 80 71 77 82 82 86 91 89 76 82 79 86 91 91 88 87 86 91 96
6 22 29 39 38 38 46 53 58 66 78 84 84 80 79 95 86 85 90 97 96 96 99 98 97 98 87 74 63 68 76 82 82 91 87 91 100 100 100 100 100 100 100 100
11 26 31 41 40 46 50 55 59 72 82 86 78 77 76 91 88 91 95 96 97 96 97 97 99 99 95 92 89 89 94 98 99 96 92 94 93 98 99 100 100 100 96 88
13 39 45 44 41 46 53 58 60 70 73 76 81 71 69 78 91 95 96 96 96 96 97 96 96 97 97 96 99 100 99 97 99 100 100 96 94 96 94 90 87 89 88 86
18 42 47 46 47 52 56 56 55 62 72 70 65 67 63 60 72 97 97 97 96 96 96 97 97 94 90 98 98 98 97 99 100 100 98 96 93 91 90 92 91 92 93 93
33 46 51 52 49 54 61 64 70 68 61 54 54 64 74 77 81 99 96 96 96 97 96 97 96 96 97 98 97 97 97 97 97 97 97 97 97 98 98 93 87 88 91 88
53 57 54 54 52 60 62 66 64 68 67 62 52 57 96 98 99 99 99 97 96 96 96 97 96 96 97 97 97 96 96 96 96 96 97 97 96 95 94 94 91 75 67 61
59 56 50 53 64 69 72 71 70 66 67 68 64 59 99 93 98 94 97 97 97 96 96 97 96 94 88 87 86 93 96 95 88 85 82 82 77 76 76 77 75 72 70 65

GFSNW_700_rhum_084.txt.gz
RH
3 3 4 4 5 4 4 5 4 4 4 8 9 19 38 66 87 98 99 96 95 91 94 94 98 98 97 93 78 90 95 88 97 96 89 98 92 82 77 72 95 98 80 62
3 4 5 7 6 5 6 6 5 5 4 7 7 7 26 66 97 99 91 97 98 96 92 93 94 100 96 97 93 87 90 95 99 100 99 99 95 86 78 83 82 95 88 63
4 6 8 8 6 7 7 7 7 6 6 8 12 24 22 65 67 91 99 96 94 92 89 88 92 98 100 98 97 96 89 90 80 77 69 68 85 83 89 85 86 81 79 65
6 9 9 7 7 7 8 7 8 9 10 9 12 27 41 66 82 82 95 93 99 93 88 87 88 98 97 95 99 98 98 91 78 78 69 70 66 55 59 77 73 74 66 70
7 9 8 7 7 8 8 7 9 13 19 16 24 36 87 90 87 91 91 100 99 97 96 99 96 93 98 96 97 96 90 72 81 87 81 79 84 81 79 76 65 78 75 76
8 8 5 6 8 9 9 7 9 19 42 51 49 64 65 66 63 37 88 100 97 98 97 97 93 91 84 93 95 90 82 80 77 69 69 69 58 52 63 66 66 65 84 39
10 6 5 4 5 9 10 7 8 26 44 61 61 66 64 78 80 73 52 69 70 97 98 96 92 86 85 83 84 89 75 77 68 71 77 76 44 45 49 47 48 56 52 46
9 4 3 3 3 7 9 6 11 39 54 63 55 65 75 76 78 88 81 77 88 98 98 97 95 96 87 77 80 83 85 81 75 75 83 56 43 45 60 66 54 53 43 35
6 3 5 4 3 9 9 6 16 42 58 73 57 58 64 69 58 71 71 66 82 98 100 98 95 90 84 85 90 90 84 86 88 88 79 74 66 83 80 80 68 72 62 55
4 5 4 4 4 10 7 6 14 26 53 57 62 61 65 73 80 85 70 60 93 100 100 95 97 90 82 86 82 84 92 96 94 87 86 69 61 61 72 79 82 86 82 64
4 13 5 5 7 9 5 11 20 30 44 59 51 58 62 68 74 77 71 79 95 98 99 96 96 97 94 93 90 84 81 87 86 84 85 82 68 74 77 92 96 97 83 66
12 14 5 4 11 6 5 15 20 26 40 46 44 56 61 66 69 72 77 78 92 96 95 97 98 92 98 90 90 89 88 80 76 72 70 69 83 84 83 90 90 96 96 79
34 9 4 9 11 4 7 16 18 23 26 35 47 53 42 48 35 56 67 85 78 88 93 94 98 95 98 99 94 90 89 86 85 82 79 82 81 81 79 85 93 97 93 95
22 7 8 13 6 4 8 17 24 30 35 40 55 45 62 70 52 33 64 74 74 75 84 81 93 96 98 99 94 91 91 92 87 83 78 84 86 83 88 93 100 98 94 87
15 6 15 10 4 4 14 18 24 33 42 46 51 57 75 75 65 16 28 70 83 77 64 56 81 96 97 95 90 76 75 81 83 82 80 80 90 88 93 93 95 92 91 92
15 16 17 6 4 6 15 21 26 35 41 47 33 67 82 79 75 31 17 54 81 90 75 49 33 37 66 84 82 67 74 80 83 88 85 76 74 85 97 99 99 98 91 80
18 23 12 5 4 8 18 27 33 40 44 45 45 75 85 83 77 77 34 39 55 89 90 75 43 39 54 95 76 56 70 80 81 84 86 86 82 81 84 94 96 94 88 77
25 21 6 4 5 12 21 28 34 41 44 56 68 74 84 81 86 86 87 54 36 52 83 86 80 74 82 76 29 39 51 60 67 72 77 89 93 88 85 82 81 81 79 74
28 11 5 4 8 17 26 30 35 43 48 59 71 76 86 88 88 88 99 85 93 88 80 82 79 82 79 69 64 60 53 50 77 80 77 83 84 82 79 80 81 80 79 79
16 6 4 6 14 25 26 30 41 49 58 70 78 79 80 84 88 97 100 100 100 97 99 100 98 81 81 76 79 95 97 89 66 69 95 80 83 84 77 84 89 92 93 92
9 5 5 10 14 25 30 40 46 53 61 70 76 74 72 85 98 95 99 100 98 98 96 99 100 100 99 97 82 69 90 92 92 93 91 90 88 81 85 98 96 94 100 100
6 5 6 9 20 36 38 45 47 50 63 72 70 71 69 67 90 94 100 100 98 93 98 99 94 92 96 96 96 93 87 82 82 87 96 100 100 100 100 100 100 98 90 86
5 5 8 11 30 34 38 47 48 49 57 63 68 66 62 65 80 99 100 95 96 96 97 96 100 97 96 96 94 98 100 99 100 100 100 100 100 100 100 95 93 93 93 92
4 7 11 16 33 38 43 51 50 52 57 57 56 63 64 69 89 100 100 96 99 97 97 97 96 95 93 95 97 97 99 97 97 97 97 97 97 95 94 96 96 95 96 96
7 9 16 27 31 44 47 51 55 62 62 56 55 51 56 80 90 100 100 98 98 97 97 95 96 96 96 96 98 97 97 96 97 96 96 97 97 97 97 98 97 92 80 70
11 12 17 31 43 51 50 56 60 62 66 66 66 57 68 98 100 95 95 98 97 99 97 97 98 96 96 96 97 97 96 96 96 96 96 96 96 95 93 87 82 83 79 75
15 16 18 30 47 54 57 62 68 70 68 65 66 64 73 82 98 93 97 98 98 98 97 97 98 98 96 96 96 96 96 95 94 94 93 89 86 84 80 77 74 68 63 63

GFSNW_700_rhum_087.txt.gz
RH
3 3 4 6 8 6 7 6 6 7 8 8 13 23 30 33 84 89 87 89 100 98 95 92 99 98 97 76 72 91 100 98 99 94 86 90 100 98 84 67 94 84 73 53
3 4 6 9 7 7 7 8 6 9 10 13 20 18 17 71 58 51 95 88 90 98 99 96 100 98 97 97 73 94 91 94 96 97 90 84 99 98 93 76 72 79 77 56
4 5 8 8 6 8 8 8 8 11 14 21 23 26 42 69 64 81 96 96 83 98 100 96 98 97 94 99 100 98 90 95 82 73 60 58 68 80 80 82 84 77 76 54
4 6 8 6 6 8 8 9 9 11 16 28 37 41 53 45 53 55 86 96 99 97 98 95 97 97 98 98 98 98 97 96 88 73 70 70 65 62 71 79 74 76 65 57
4 5 9 5 4 6 6 9 9 9 17 37 41 53 59 68 66 72 57 68 98 96 98 98 98 97 97 98 98 97 97 89 94 86 80 74 74 71 70 68 71 82 76 56
4 6 8 4 4 5 4 9 8 6 21 36 44 64 76 86 90 75 78 77 64 86 98 99 91 96 98 94 96 95 93 95 86 85 80 74 56 52 56 58 61 63 70 44
4 6 8 4 4 5 6 10 6 8 22 32 48 52 64 78 71 69 77 64 59 77 91 100 93 88 98 98 92 91 84 79 72 67 69 74 47 46 46 45 45 49 50 49
4 7 7 5 5 8 9 11 6 9 24 33 40 49 52 62 78 79 81 59 51 68 95 99 98 98 88 84 85 85 86 74 73 75 76 56 51 51 52 62 57 58 52 52
5 8 6 7 5 9 10 10 6 12 18 38 35 42 48 51 61 75 66 45 51 68 96 99 91 84 89 88 86 90 86 87 79 84 77 68 62 77 76 76 78 84 82 69
5 8 6 12 16 10 12 7 9 14 18 26 33 42 48 52 59 67 80 82 85 89 94 97 94 86 85 84 83 85 92 89 91 84 81 71 70 64 70 76 82 92 85 76
6 8 9 26 16 11 13 5 11 15 22 26 36 39 39 49 54 61 64 73 89 99 97 98 99 94 90 95 86 86 84 86 88 84 79 77 76 70 74 90 90 92 95 73
8 7 31 34 10 13 12 5 11 15 23 28 37 32 31 32 34 47 61 67 78 82 95 96 100 100 97 89 91 90 89 82 77 72 71 71 83 85 86 84 83 81 84 88
8 16 40 30 11 15 8 7 13 15 22 33 39 34 44 41 30 29 51 58 68 77 79 88 94 100 98 100 97 91 87 89 85 82 82 86 88 86 86 83 86 88 92 92
8 44 42 10 14 18 5 7 12 16 25 32 37 36 54 58 54 28 18 48 65 73 81 83 92 90 100 97 91 88 93 93 91 88 84 79 87 85 82 92 95 91 94 95
14 51 30 13 19 19 4 8 11 18 24 34 31 38 58 57 58 57 16 16 51 76 77 82 71 94 92 95 89 78 80 82 86 86 82 80 78 95 93 98 98 99 98 98
28 50 25 19 23 11 4 8 13 19 23 34 24 41 56 58 63 64 41 23 40 77 87 82 69 48 60 67 75 71 70 75 80 88 91 91 85 82 95 98 98 98 99 98
44 36 32 24 26 6 5 9 16 21 27 36 40 52 55 60 63 66 71 46 33 45 72 94 84 54 57 54 51 52 74 84 84 84 79 80 91 89 88 96 97 98 98 96
51 35 33 25 24 5 5 10 14 18 26 37 46 52 57 58 63 72 71 76 78 60 51 62 89 87 89 86 42 52 51 48 65 75 68 73 84 95 94 92 90 89 89 87
40 42 35 30 8 5 7 9 12 16 30 42 46 59 60 60 66 72 88 78 91 80 81 88 89 84 79 82 71 71 68 69 64 73 85 82 83 89 90 88 87 89 91 89
34 52 38 14 6 6 8 10 15 31 36 46 53 62 62 59 69 83 82 100 100 100 88 100 97 87 96 97 93 76 92 100 100 75 67 83 91 88 88 91 88 84 86 91
56 63 30 12 6 7 8 16 24 36 41 50 55 62 62 60 60 71 82 100 100 97 94 100 100 100 94 98 99 96 87 82 99 100 100 100 98 90 84 89 86 91 94 93
78 44 24 7 7 12 18 26 33 36 41 46 54 58 59 56 52 68 95 99 98 93 97 97 96 89 96 94 95 97 97 93 77 83 83 82 76 76 99 100 97 94 93 91
70 24 24 5 12 21 20 28 33 37 41 46 50 50 48 52 68 67 97 99 100 98 98 97 97 96 95 92 89 88 98 97 97 100 99 100 100 100 100 97 93 96 96 95
33 33 6 9 15 16 20 29 33 38 44 51 57 54 52 52 62 93 97 100 99 100 98 97 94 91 92 94 94 96 96 97 97 97 97 97 97 97 97 97 96 94 88 80
40 18 7 9 10 16 28 33 38 41 53 58 57 58 56 54 75 94 97 97 97 98 96 95 92 93 94 96 96 96 96 96 96 96 96 96 96 96 96 96 96 96 93 91
13 6 6 9 13 22 36 40 42 48 55 60 62 58 56 71 89 99 94 98 92 94 92 91 88 90 96 98 96 95 96 96 96 96 96 96 96 94 94 94 94 87 78 71
7 9 6 11 18 33 41 41 42 54 63 66 65 60 59 67 87 88 89 80 74 92 93 91 92 90 91 96 99 99 95 96 96 96 96 95 95 94 95 94 83 61 59 54

GFSNW_700_rhum_090.txt.gz
RH
2 3 3 4 7 5 5 7 8 9 12 14 27 28 37 64 80 57 78 94 98 95 98 100 98 97 96 70 76 83 99 97 96 95 88 81 80 99 90 76 86 66 68 46
2 2 3 6 6 4 4 6 9 10 12 23 33 31 33 57 63 80 92 98 98 96 98 100 96 98 89 66 80 94 94 97 97 96 96 99 94 92 88 79 64 66 52 45
2 3 4 6 6 4 5 7 10 8 13 30 36 49 55 50 57 91 84 92 96 97 99 100 98 98 98 99 82 99 98 92 83 70 70 67 61 60 69 81 73 73 64 49
2 3 4 6 7 4 7 9 9 4 13 27 39 52 60 65 55 62 52 83 77 91 95 98 98 98 98 98 84 98 96 95 83 76 73 78 70 71 81 84 83 75 64 50
3 3 4 7 7 4 8 12 8 4 13 27 40 51 62 46 51 52 56 41 43 85 90 96 98 94 98 97 98 98 94 95 90 84 79 77 75 75 75 83 83 76 67 49
3 3 4 5 6 5 9 15 8 4 14 28 39 50 66 62 66 71 63 36 27 56 87 97 88 82 87 98 97 93 87 86 87 86 76 68 60 59 65 68 66 64 64 45
5 4 4 5 6 6 12 16 6 5 14 22 34 42 52 61 67 58 61 27 27 57 81 78 85 85 84 91 96 82 82 75 70 74 59 54 51 52 52 57 59 52 54 52
28 7 4 7 5 10 17 18 5 6 15 23 30 35 42 56 49 40 30 16 32 67 81 93 92 94 86 86 91 89 86 75 70 76 67 56 64 66 57 60 68 70 76 63
65 7 4 7 6 11 20 20 4 7 16 26 27 29 37 47 55 35 38 41 58 65 99 100 98 92 90 90 87 87 82 82 76 75 73 53 69 64 71 76 93 87 83 73
71 5 5 7 11 14 22 19 4 7 17 24 26 28 30 38 52 53 53 62 70 64 79 96 98 94 88 87 85 91 92 88 93 85 79 68 68 62 71 81 90 92 87 80
18 5 6 7 26 21 24 18 5 9 16 25 28 26 25 28 36 43 56 63 74 78 75 89 98 99 90 95 84 84 86 85 87 91 80 71 74 73 78 90 84 83 82 89
26 5 7 13 35 33 20 17 5 10 16 24 27 27 30 27 28 32 46 56 66 67 74 80 99 100 100 94 87 89 90 83 81 78 75 70 82 83 86 86 83 83 81 87
23 11 8 28 37 23 21 16 5 9 16 25 27 29 33 32 34 27 24 42 54 71 74 88 98 96 99 98 98 90 88 89 85 81 86 88 87 89 85 87 88 88 91 94
50 16 14 39 31 20 22 9 5 9 16 25 28 29 32 36 40 42 30 13 41 55 77 82 90 94 98 98 99 96 91 90 90 88 89 84 83 90 85 83 93 98 88 96
36 10 37 38 30 20 23 7 7 9 15 24 25 34 38 40 44 44 44 24 13 46 65 78 78 82 93 97 98 86 87 84 89 94 86 80 78 79 93 93 90 92 96 94
17 20 39 30 22 22 26 5 8 10 15 25 27 34 44 42 44 48 54 52 34 36 69 76 75 76 67 73 77 78 78 77 73 78 85 91 88 84 85 93 96 88 96 97
19 32 46 44 20 27 25 7 7 9 14 25 35 42 47 48 54 54 55 55 57 57 41 57 81 77 64 61 50 67 78 85 88 87 86 86 77 80 87 92 93 97 95 95
18 50 46 67 25 29 24 6 8 9 13 27 40 46 49 52 53 54 56 55 57 71 70 59 58 82 88 85 63 70 55 53 79 87 85 83 72 78 92 92 92 91 90 90
28 45 58 79 51 27 13 6 6 8 15 30 36 44 50 49 52 54 59 56 59 64 73 85 91 94 73 80 85 82 81 73 71 78 75 82 76 87 94 96 94 91 91 91
46 48 50 76 52 31 10 7 8 16 20 31 36 44 51 48 49 52 64 67 73 86 83 96 99 88 87 89 91 92 90 77 89 100 86 70 90 96 99 97 96 95 92 87
56 60 49 82 45 22 8 8 14 23 29 33 39 44 49 51 48 46 60 70 82 98 95 98 94 95 86 92 96 97 97 96 84 92 98 99 98 98 99 97 89 85 86 85
74 61 58 86 47 24 9 15 20 23 29 33 39 46 48 45 42 45 61 73 85 99 99 100 92 70 85 90 92 91 90 93 96 82 95 98 98 98 97 92 90 93 97 94
73 63 88 62 48 13 14 16 20 17 18 31 37 42 47 44 46 46 53 82 97 96 100 100 84 86 90 90 88 88 94 98 97 96 96 95 95 97 97 96 95 96 99 100
80 84 64 56 21 10 13 11 14 14 23 31 40 51 48 46 46 51 61 87 95 100 98 94 91 84 87 88 85 91 94 96 96 96 96 96 96 97 97 97 96 96 96 95
91 79 75 60 13 8 12 15 20 23 28 36 49 53 54 51 52 55 71 89 94 95 92 88 86 81 83 88 87 92 97 98 96 96 96 96 96 96 96 96 96 96 95 91
88 87 48 29 14 9 12 20 26 28 31 44 53 56 55 53 56 70 71 91 83 79 81 85 86 84 83 86 91 94 96 99 97 95 96 96 96 96 96 95 95 95 94 77
91 70 37 17 12 14 20 32 34 31 38 51 61 59 54 56 56 60 58 41 38 54 65 68 68 69 85 81 84 86 94 96 96 97 96 96 96 95 94 79 60 52 59 68

GFSNW_700_rhum_093.txt.gz
RH
2 2 2 3 4 7 4 8 10 7 8 13 25 54 41 74 80 90 99 98 99 89 97 99 98 94 100 64 65 89 97 98 99 95 96 98 96 86 86 68 68 66 68 48
3 2 2 3 4 7 4 10 11 6 10 17 26 37 63 66 49 55 72 78 84 99 94 99 98 94 94 89 84 98 97 96 97 97 96 94 92 77 98 77 63 64 60 49
2 2 2 3 4 7 7 13 10 6 11 17 28 32 57 79 59 60 51 67 82 91 94 97 99 96 87 98 98 90 94 96 97 83 85 82 94 78 87 82 68 57 58 53
2 2 4 3 4 7 9 14 8 4 14 20 25 35 60 56 51 50 42 65 62 78 84 94 100 98 94 78 74 98 93 98 96 88 73 83 71 89 90 67 60 70 64 53
3 3 4 3 4 6 10 17 7 4 10 19 23 38 58 64 67 49 45 40 51 67 84 88 95 92 94 98 86 93 95 98 95 89 71 64 67 61 59 62 68 81 66 49
4 3 4 18 4 7 14 17 12 3 10 18 25 37 52 58 54 58 32 30 36 71 80 79 82 88 88 97 98 98 99 100 95 89 79 85 83 75 68 72 71 76 85 60
14 4 4 10 5 6 20 19 14 3 12 18 26 36 48 33 34 31 22 22 49 70 71 81 81 82 86 92 90 83 98 90 80 66 64 58 62 54 70 85 67 51 51 66
14 4 10 37 5 6 22 21 14 3 12 19 26 32 43 26 18 16 15 25 64 72 77 85 100 98 97 87 87 92 81 91 76 69 53 61 65 61 65 79 81 64 66 64
11 11 24 44 6 8 25 23 18 4 11 17 24 27 35 38 27 26 38 56 59 69 71 82 89 81 79 81 97 77 79 80 86 77 66 47 81 63 70 74 86 84 82 74
85 46 69 14 7 16 28 23 19 3 10 19 20 23 25 35 35 47 53 62 62 62 86 96 95 84 78 76 74 82 88 89 82 70 68 64 65 59 55 82 98 86 76 73
100 94 50 7 8 28 28 22 18 4 10 19 21 24 24 25 32 41 52 59 67 74 75 87 91 99 95 82 80 86 79 74 74 77 73 64 73 74 81 93 84 77 76 82
100 98 26 9 12 32 25 23 14 4 10 17 22 24 24 22 24 26 39 51 56 63 65 74 82 100 96 98 91 76 82 85 88 82 76 70 81 83 84 84 81 81 81 79
99 80 16 21 25 28 23 24 8 4 10 17 21 23 23 24 26 24 20 24 41 54 61 72 84 89 86 97 95 91 82 79 83 79 88 84 85 84 86 84 84 90 91 94
99 56 24 24 29 25 25 23 7 5 9 15 21 21 24 30 34 34 33 21 12 38 61 74 82 85 77 87 91 92 98 88 94 87 90 84 82 80 86 86 87 95 96 90
88 34 51 21 41 22 24 24 6 6 8 13 21 26 30 34 33 35 38 39 32 16 44 63 81 82 94 90 82 80 100 100 100 98 86 83 83 75 74 86 92 97 98 95
67 83 32 34 48 22 23 20 11 7 8 11 24 25 34 38 39 39 39 42 50 42 38 67 74 80 78 80 97 98 86 90 86 81 80 81 87 84 81 81 90 98 98 97
98 54 29 41 56 39 26 19 10 7 7 13 26 29 36 37 40 42 44 44 52 59 56 39 51 74 80 78 86 74 82 82 82 80 78 90 92 81 74 82 87 89 94 98
96 28 42 44 59 46 24 21 10 7 7 16 29 33 35 42 41 43 48 48 50 60 62 65 66 60 75 81 78 68 78 69 64 46 76 90 88 87 80 81 92 93 93 92
92 38 52 51 50 73 23 19 8 7 9 18 22 29 38 45 44 48 52 51 53 57 62 68 75 75 75 63 69 77 77 76 70 70 64 59 62 71 74 88 100 98 98 95
75 59 62 58 62 93 50 22 13 7 13 18 22 33 42 41 44 46 50 57 64 72 68 74 67 58 71 74 84 88 91 92 92 80 85 77 74 94 100 100 100 100 98 95
81 60 53 59 95 96 63 24 9 16 22 21 23 32 40 44 43 46 49 62 71 97 95 90 98 79 64 80 87 88 86 87 86 90 89 90 99 98 88 97 99 97 95 92
78 47 50 73 95 87 50 14 10 13 20 20 26 34 39 42 41 42 51 67 76 100 94 97 96 58 72 79 82 79 79 84 82 84 90 88 93 97 94 97 95 94 94 90
50 82 82 79 92 85 45 13 13 14 12 14 20 31 37 40 41 42 46 63 98 88 98 100 73 71 76 74 69 66 76 82 90 95 96 97 94 96 96 95 96 97 98 96
94 89 90 90 85 73 42 17 9 10 8 13 18 30 42 44 44 44 50 79 84 100 100 89 61 75 76 73 67 61 71 76 87 93 97 96 96 96 96 97 96 97 96 96
95 93 88 79 62 33 37 19 13 12 11 16 23 36 44 47 46 46 60 85 98 94 73 59 72 75 77 76 66 57 72 79 86 92 94 96 96 96 96 96 96 96 96 95
95 92 84 81 79 25 16 11 18 16 17 20 28 41 50 50 48 55 55 76 56 47 54 66 72 76 73 67 62 59 59 80 88 92 96 98 97 96 96 96 96 96 96 96
95 90 83 92 93 47 30 20 18 21 23 23 32 41 47 51 54 51 48 35 34 36 44 47 43 43 45 46 48 50 53 53 64 88 95 95 97 96 96 96 95 91 68 48

GFSNW_700_rhum_096.txt.gz
RH
7 3 2 3 3 3 6 7 16 12 6 12 21 41 53 74 59 80 99 90 89 94 92 99 98 96 89 94 67 92 97 98 98 87 85 94 75 76 93 88 69 76 81 60
10 4 2 3 3 3 5 9 18 10 6 13 21 34 58 55 46 60 63 77 95 96 98 99 97 99 70 75 82 98 94 97 98 99 99 99 95 76 80 91 80 79 94 60
9 4 4 3 3 4 5 10 16 10 7 15 20 34 54 68 42 43 51 68 82 88 98 100 100 98 90 97 94 94 97 92 97 97 90 66 73 60 74 80 70 72 85 60
19 5 15 3 3 4 5 13 15 9 8 14 21 36 54 59 57 42 47 64 70 75 87 98 97 100 82 92 81 87 96 98 96 96 94 77 66 62 68 64 56 59 68 55
17 5 6 4 7 4 5 16 18 11 8 12 19 38 51 41 54 39 43 50 60 68 70 92 100 100 94 79 70 93 88 93 90 86 75 76 88 83 71 60 56 54 51 58
86 23 13 6 5 7 5 17 20 8 7 13 21 35 33 25 43 31 35 44 52 63 70 74 77 96 100 99 91 92 94 97 93 91 76 83 84 75 92 82 74 67 70 78
99 74 6 4 14 27 6 20 22 4 7 16 24 32 13 16 22 23 32 37 57 64 68 73 74 81 87 94 95 86 92 95 80 70 69 76 70 56 61 73 67 62 65 72
100 39 5 6 8 8 8 23 22 4 6 13 22 26 16 14 18 23 27 46 64 68 70 89 88 87 85 78 79 90 84 87 87 76 58 61 52 50 49 59 68 62 65 68
100 34 29 23 23 9 15 26 24 4 6 13 19 23 33 11 13 18 40 49 55 67 70 80 83 90 78 96 80 72 73 77 89 78 70 63 86 67 65 65 91 82 78 76
100 99 68 23 36 8 23 24 23 4 6 14 17 21 24 30 36 43 52 56 58 66 67 100 95 84 68 82 76 83 86 86 85 84 72 69 66 58 60 77 98 97 80 72
100 99 65 46 34 10 24 21 23 3 7 12 17 21 23 24 30 33 49 57 59 67 82 94 100 90 88 76 81 81 79 76 76 77 75 74 68 70 77 96 95 83 70 74
100 100 99 79 14 16 24 22 22 4 8 11 18 22 22 21 23 25 32 44 55 64 68 70 81 87 94 97 92 84 78 81 85 78 88 76 72 83 82 84 81 74 77 81
100 100 99 28 10 23 32 24 21 4 6 11 17 21 22 21 21 22 22 21 29 49 61 67 76 86 86 95 91 90 97 83 76 83 92 82 77 80 80 83 82 84 88 87
100 99 80 14 12 26 22 23 23 4 6 8 15 20 23 26 27 30 30 27 18 15 46 68 78 89 83 89 94 85 92 95 95 92 97 96 88 80 82 81 86 88 88 90
99 99 64 23 22 32 21 23 22 5 6 6 16 21 26 28 29 32 33 33 34 30 27 44 75 78 87 90 86 77 97 98 97 99 94 96 89 83 79 78 80 90 96 96
100 99 66 47 31 40 20 20 22 6 5 6 13 20 26 27 30 35 36 36 37 35 42 40 53 68 80 78 100 99 97 94 94 94 92 91 82 82 86 80 87 91 98 97
100 99 52 74 53 36 22 24 19 7 6 6 15 20 25 29 32 36 38 39 38 40 45 46 39 47 66 74 79 91 82 86 91 87 91 92 78 85 90 78 80 91 93 89
99 98 94 52 45 59 36 24 23 8 8 8 17 21 29 32 33 36 42 42 42 42 47 58 64 66 65 59 66 62 77 81 79 76 72 70 54 74 89 88 87 84 95 97
99 99 79 43 49 82 54 21 17 11 12 10 15 18 26 32 32 37 42 41 47 45 50 58 68 66 62 58 63 65 64 65 70 76 76 80 75 66 61 60 64 82 96 98
99 97 82 53 51 94 73 31 23 18 14 11 16 19 23 29 33 37 42 43 53 59 66 64 73 52 60 69 71 73 76 79 79 77 84 87 81 75 78 82 95 99 100 98
98 95 68 76 88 91 95 85 34 19 14 12 17 18 22 31 31 39 42 46 59 94 95 76 100 61 58 69 73 74 70 65 69 74 71 73 87 91 92 91 92 97 99 100
98 88 87 96 96 95 95 77 36 15 15 14 20 17 23 34 37 42 45 48 54 92 85 84 98 56 65 74 71 67 57 50 58 72 78 79 83 85 90 97 97 97 97 97
98 95 96 94 94 96 84 51 28 14 10 11 12 17 27 33 36 40 40 45 69 69 85 100 48 61 70 75 73 67 60 40 50 69 80 83 92 88 84 89 94 96 95 95
96 95 95 83 85 82 74 50 39 17 10 8 13 18 26 30 37 39 40 58 66 98 100 61 46 53 67 75 74 70 45 40 60 72 79 83 89 89 87 92 94 95 97 97
94 93 87 78 80 73 72 70 50 21 10 10 13 19 25 36 39 40 49 65 97 87 46 41 49 56 66 77 73 52 43 44 48 74 79 82 83 89 90 93 96 96 96 96
94 94 89 80 78 58 80 90 44 19 14 16 20 26 34 38 36 42 42 67 40 39 40 40 40 42 49 49 41 38 39 42 48 47 70 87 89 89 89 95 96 96 95 95
95 94 79 78 84 82 78 63 45 24 21 18 20 20 26 35 38 42 42 33 33 36 36 36 37 35 36 34 29 24 26 28 33 38 47 52 77 90 92 93 93 96 95 93

GFSNW_700_rhum_099.txt.gz
RH
86 39 5 3 3 3 3 4 8 15 10 12 16 31 40 35 38 70 83 86 84 95 92 98 97 100 79 80 75 93 96 96 92 84 91 85 69 73 87 90 89 87 78 66
100 35 5 4 3 3 3 4 9 15 10 12 20 36 50 39 36 66 70 83 89 99 93 99 94 98 84 67 75 96 86 97 98 93 96 95 99 69 70 84 82 94 95 68
100 36 10 4 3 3 3 4 14 15 10 11 20 33 43 39 33 47 64 74 85 94 94 96 98 91 98 93 94 94 98 98 97 88 82 71 76 70 70 79 70 97 94 69
100 52 9 4 6 4 3 4 14 17 8 9 20 29 37 31 30 42 60 66 72 78 96 99 98 99 94 99 98 100 97 97 97 98 92 78 65 62 71 69 72 86 77 85
100 36 6 19 56 4 6 4 15 17 6 11 19 28 38 23 24 40 52 59 65 67 77 84 100 99 98 83 77 88 91 96 91 90 84 87 80 68 64 71 65 74 77 69
100 100 19 41 30 5 5 8 18 16 6 14 19 27 13 15 25 35 45 52 61 62 70 74 82 100 100 99 94 87 100 96 88 89 79 85 79 91 72 81 81 73 76 76
100 96 10 15 36 7 7 10 18 16 5 13 20 23 9 13 23 31 40 46 58 64 71 72 78 86 90 100 94 94 96 89 85 78 72 78 72 76 83 84 82 78 78 77
100 99 20 50 9 9 7 14 21 19 4 11 19 22 9 18 23 29 35 53 59 64 74 80 79 76 80 76 72 76 78 86 86 77 70 66 57 55 56 78 80 76 67 58
100 100 99 47 7 8 8 21 22 18 5 11 17 22 12 17 28 29 36 54 59 72 83 92 81 83 80 84 80 75 69 81 86 81 74 70 86 72 70 64 88 94 85 74
100 100 99 9 9 36 20 22 22 14 5 12 15 21 23 17 16 24 41 49 60 66 70 98 90 85 77 83 81 80 80 77 78 84 87 71 70 63 58 60 89 98 91 74
100 100 98 15 57 22 11 20 22 10 5 12 15 20 22 23 27 37 40 49 53 67 72 91 100 93 89 83 86 81 76 80 80 78 91 83 70 65 62 80 86 91 84 78
100 100 100 97 45 29 16 20 20 8 6 14 16 18 20 21 22 24 28 35 44 54 59 60 65 85 97 94 87 90 81 81 87 76 84 78 76 81 83 82 84 84 83 84
100 99 100 99 53 18 16 19 18 6 8 10 16 19 18 18 17 18 19 19 20 33 49 57 62 79 88 97 89 88 89 92 84 89 90 84 82 79 81 81 82 85 86 94
99 100 100 97 41 15 21 23 19 5 9 12 13 18 19 22 21 22 22 23 22 19 19 42 58 74 78 94 91 90 97 98 93 93 93 88 86 87 86 82 77 80 88 93
99 99 100 52 18 17 29 21 19 8 8 8 12 18 23 25 24 24 24 24 26 27 27 31 47 51 71 75 88 77 77 82 96 94 96 99 95 88 88 81 80 79 88 93
99 99 99 27 14 22 19 17 19 9 4 6 12 19 24 26 26 28 28 30 29 26 36 37 38 43 65 75 100 93 92 96 95 100 99 97 95 90 87 93 84 83 84 87
99 100 98 29 18 26 25 19 20 12 6 6 12 19 23 26 27 31 30 30 30 28 32 42 46 42 47 50 62 65 85 90 84 92 96 96 96 93 96 94 88 80 82 90
99 99 99 67 51 38 28 20 21 11 7 6 12 16 21 24 29 33 33 33 33 30 34 42 50 53 56 50 48 54 64 71 74 82 84 79 80 93 88 65 81 89 82 80
99 99 94 66 88 49 21 25 22 15 11 7 9 16 20 24 28 33 33 34 36 36 37 43 50 52 45 52 57 64 72 76 76 77 76 76 72 70 75 91 73 59 60 73
98 99 96 97 72 54 50 39 21 18 13 10 9 11 17 20 28 32 34 34 37 44 46 43 45 34 46 60 63 69 74 74 68 66 71 72 75 75 79 85 88 93 94 91
99 98 97 79 51 85 89 56 35 27 22 20 14 10 16 23 31 32 33 31 38 57 69 60 94 35 48 58 66 67 62 56 46 39 56 69 68 72 79 80 86 94 96 96
99 98 97 90 73 94 95 91 73 44 23 19 15 14 16 26 31 34 36 37 40 61 60 66 52 36 49 59 66 65 62 57 36 29 50 63 70 76 82 80 87 96 97 96
98 97 96 95 95 97 88 80 64 44 27 17 12 17 24 32 32 33 37 39 49 56 62 47 28 36 48 58 64 66 59 43 28 33 59 68 73 80 89 88 85 87 95 96
97 96 95 94 87 79 72 65 56 46 44 9 12 22 26 28 33 34 36 46 62 86 74 25 29 34 43 54 61 59 44 31 32 35 47 73 77 81 86 85 91 93 94 97
97 96 94 91 76 69 70 68 77 75 39 12 16 26 24 28 32 33 37 52 72 51 25 28 28 29 33 38 38 33 28 26 27 34 40 59 80 84 86 88 89 93 97 95
97 96 94 80 76 67 71 91 93 66 17 19 26 31 26 30 25 27 29 42 26 24 28 30 31 32 32 31 29 28 24 18 17 19 28 43 55 86 93 90 87 88 92 95
96 94 89 75 76 73 93 95 95 79 36 19 19 15 16 24 24 28 29 23 24 30 32 34 35 33 31 30 28 16 14 23 32 35 36 33 40 55 78 100 99 98 97 96

GFSNW_700_rhum_102.txt.gz
RH
99 100 63 7 5 4 4 4 4 10 16 9 13 23 22 25 43 59 68 83 89 96 100 99 92 85 78 70 88 96 93 89 84 84 89 85 82 76 84 79 89 91 72 73
99 99 38 6 4 5 4 4 4 14 15 8 15 25 21 28 54 62 66 80 88 99 100 96 94 85 91 81 93 97 98 89 98 87 93 96 74 61 66 75 77 96 87 73
99 100 63 7 4 4 4 4 6 15 15 8 16 23 21 27 53 56 67 76 92 97 95 86 68 79 100 96 95 91 100 99 97 81 83 81 74 64 66 74 72 96 87 70
99 98 52 5 4 4 12 4 8 15 14 7 17 23 19 24 46 49 62 68 82 90 100 95 75 71 100 94 94 95 89 99 98 98 97 82 70 61 67 76 72 85 93 80
99 100 25 6 4 4 43 5 9 14 12 9 18 23 16 18 37 46 54 60 68 79 86 94 99 89 98 92 90 88 92 94 84 87 96 98 87 65 72 82 86 76 93 87
99 100 26 9 4 10 27 5 12 17 8 10 19 19 10 14 33 42 48 58 63 72 74 82 95 100 99 99 100 100 99 95 84 81 82 87 88 97 71 76 90 86 84 81
99 99 66 7 7 55 7 7 14 18 7 11 19 11 11 20 31 37 46 52 58 65 69 75 78 80 94 99 95 93 96 89 83 78 69 77 76 88 94 84 90 87 81 80
99 99 26 8 55 47 6 10 15 19 6 11 17 10 15 22 27 35 39 44 54 59 70 78 81 78 79 77 81 83 85 88 87 80 72 69 61 58 66 91 91 89 73 72
100 100 98 49 75 29 8 12 19 20 6 10 17 12 18 22 24 33 42 54 57 61 78 84 83 82 82 84 82 75 76 83 86 84 78 74 89 72 73 69 85 88 83 79
99 99 99 38 58 17 8 15 21 19 5 10 16 19 14 24 31 26 39 43 51 61 68 87 93 81 83 84 84 81 78 76 78 83 84 76 74 67 64 77 86 93 94 87
99 100 99 49 70 11 10 15 21 15 6 12 16 20 22 19 19 25 37 46 47 61 66 70 98 94 86 87 86 84 82 81 84 81 88 84 76 73 66 81 89 93 92 79
99 99 100 99 54 32 31 15 20 17 5 12 16 20 21 22 23 27 27 30 34 43 54 57 66 77 96 91 80 91 86 85 90 82 88 79 80 78 83 83 84 85 82 80
100 99 99 99 39 34 18 15 19 13 7 13 17 18 19 19 18 18 20 21 21 27 44 48 53 62 70 97 88 90 87 92 93 90 88 85 82 75 77 84 84 85 88 88
100 98 99 99 59 41 17 16 18 10 11 16 16 19 18 18 18 18 18 20 18 18 19 25 32 48 61 93 83 83 92 90 90 91 92 94 95 89 88 87 82 77 80 94
100 99 99 97 52 44 17 16 16 10 11 11 13 16 19 19 20 21 22 21 21 23 24 26 29 32 45 58 76 71 81 84 96 99 91 92 96 97 96 90 84 80 82 88
100 99 99 98 49 34 16 18 17 12 7 9 11 17 20 21 23 23 22 21 21 24 28 31 31 30 39 47 55 58 67 87 92 98 92 96 97 96 94 86 90 87 87 90
99 99 98 98 45 25 20 21 19 13 6 7 9 17 20 22 23 24 24 24 25 25 32 34 35 37 38 39 42 45 48 59 85 89 86 86 91 90 92 91 94 94 87 85
99 99 99 93 35 19 19 18 17 17 6 7 9 14 20 21 24 27 26 28 28 27 31 33 36 38 37 37 41 42 45 48 54 60 66 79 86 82 76 72 86 87 72 88
100 99 98 77 22 19 19 20 20 22 10 8 6 13 15 18 24 26 30 27 30 30 32 35 40 38 31 34 44 47 52 56 60 63 65 69 74 74 74 74 74 80 89 90
98 99 97 53 40 26 25 22 20 17 14 11 9 10 13 16 19 25 28 26 28 33 36 35 39 24 28 33 42 48 54 56 50 45 44 52 65 68 71 73 74 83 88 90
98 97 95 93 94 49 29 31 30 23 22 20 14 10 12 18 25 25 25 26 27 35 48 45 30 19 23 33 44 49 51 50 52 43 23 21 40 56 64 69 75 84 90 87
98 95 94 96 96 63 66 73 50 35 26 25 22 15 14 19 26 26 27 27 32 47 50 56 24 16 23 36 43 49 54 55 45 27 19 22 40 55 60 69 79 80 87 96
97 98 96 93 91 96 89 84 76 61 46 32 30 29 26 26 26 23 25 28 42 40 60 41 16 20 26 33 40 46 50 47 30 20 19 19 40 58 64 72 76 83 88 94
97 97 96 96 93 82 74 70 65 56 47 28 23 27 30 26 25 26 24 36 40 70 62 17 17 22 26 33 37 40 40 30 21 18 17 20 25 52 64 69 73 79 85 89
97 95 95 95 81 72 71 66 60 50 39 16 17 29 27 25 26 21 21 33 43 32 16 15 20 23 25 26 28 28 25 23 20 16 12 12 19 31 56 73 77 77 78 83
96 95 95 86 79 67 68 66 84 90 80 29 27 38 28 24 17 17 16 28 14 13 14 18 23 25 26 27 26 26 25 20 11 10 14 18 19 22 36 55 80 87 88 91
96 94 87 83 83 76 73 95 98 97 81 42 25 25 16 17 16 15 14 15 11 14 18 22 26 29 29 29 29 28 20 12 14 15 18 23 29 37 36 43 54 69 89 96

GFSNW_700_rhum_105.txt.gz
RH
100 92 98 99 66 16 6 5 10 10 14 17 13 21 15 27 45 59 67 76 84 98 99 99 77 79 79 82 96 97 89 79 79 98 90 91 79 87 87 78 91 81 70 78
98 99 98 99 98 14 5 7 6 10 16 12 14 19 15 30 43 57 66 70 80 92 99 96 90 82 79 81 96 93 88 86 81 81 82 78 70 69 77 76 82 100 78 78
97 95 97 98 90 12 6 10 9 11 17 15 14 19 15 37 53 60 67 71 82 87 91 88 69 86 99 95 96 100 98 94 100 85 86 83 68 69 70 75 68 93 77 74
98 99 100 99 34 9 11 12 10 14 17 13 15 18 15 40 52 56 64 68 74 72 79 82 75 85 100 100 98 100 99 98 96 94 96 90 87 67 62 82 83 72 77 77
98 98 99 61 16 6 10 40 11 13 15 8 17 18 16 38 43 53 58 56 65 75 75 76 70 68 93 99 100 99 100 95 89 95 98 97 91 75 76 93 88 80 79 77
100 98 89 14 11 6 12 39 8 13 14 8 19 14 10 32 39 49 54 56 64 63 69 78 89 64 62 83 100 99 98 92 84 79 82 86 77 86 76 91 93 84 78 79
98 99 79 19 7 7 21 58 12 15 13 11 20 11 10 28 38 43 50 53 56 60 63 71 77 79 87 84 84 93 94 82 83 75 65 79 78 93 92 94 95 96 90 83
98 98 62 12 7 12 54 21 11 16 11 12 16 12 15 29 37 42 48 49 54 58 64 71 71 77 79 80 85 88 88 91 90 78 71 71 77 73 96 98 91 90 83 73
92 93 89 9 9 21 56 11 14 16 7 12 16 15 23 29 33 39 38 43 54 56 66 70 78 86 86 86 78 75 76 82 84 80 78 78 90 72 76 86 89 90 86 77
94 100 60 23 52 24 46 9 15 17 7 12 16 16 19 24 28 32 42 47 50 54 63 70 76 83 84 86 86 85 80 74 78 83 81 79 76 70 72 75 82 87 90 87
100 99 56 11 82 48 27 10 16 16 6 11 17 16 19 24 30 28 35 43 48 55 63 61 68 83 81 82 86 86 84 82 84 82 85 86 79 75 67 78 87 89 91 85
99 98 59 24 57 52 11 12 16 15 7 11 19 19 18 18 19 24 35 33 32 37 49 52 56 60 72 81 85 83 87 85 88 83 86 79 80 81 84 85 82 81 79 78
99 99 99 92 86 67 15 13 16 14 7 14 18 20 21 22 23 24 26 26 29 28 38 48 52 46 53 75 83 89 91 89 91 87 87 84 85 82 78 78 84 85 84 85
99 99 98 61 70 49 14 13 17 14 9 15 16 18 19 19 17 16 16 17 16 18 20 27 34 37 39 58 63 68 90 88 87 90 90 90 89 90 88 89 87 82 77 77
99 99 99 98 80 48 21 14 16 14 12 12 14 17 18 17 16 15 16 17 18 18 18 21 26 26 33 38 45 51 66 77 83 97 84 94 95 94 96 93 90 82 80 82
99 98 99 99 66 56 29 16 16 12 11 13 14 16 17 18 18 18 18 18 18 19 21 25 24 25 33 37 33 28 44 60 65 72 79 88 90 91 95 89 84 83 89 86
99 99 99 99 64 56 21 17 18 13 7 10 10 15 18 18 18 19 19 19 20 21 23 24 28 30 32 33 31 31 31 40 56 61 65 69 76 78 86 90 91 88 89 92
99 99 98 96 61 41 19 18 20 15 7 7 8 11 17 18 20 22 21 21 21 20 24 26 27 31 31 26 25 29 33 35 38 42 45 46 50 55 63 72 74 74 77 91
99 99 98 93 49 24 19 20 18 18 11 8 6 9 11 13 20 19 23 23 25 22 24 27 30 30 26 22 26 31 34 37 42 44 44 44 46 55 59 64 68 71 74 74
98 98 98 81 39 21 19 20 21 19 17 11 7 7 10 12 15 19 24 23 24 26 26 25 29 16 20 22 25 30 35 39 40 40 41 34 21 18 35 49 56 66 72 77
98 98 96 70 32 21 21 23 22 22 19 19 14 10 12 12 22 20 19 25 24 23 30 33 22 9 10 17 24 30 36 41 43 43 36 21 17 15 19 36 48 53 65 71
98 97 89 59 29 26 26 30 26 28 24 27 24 16 10 14 20 23 24 19 21 32 34 29 14 6 9 13 21 28 33 39 42 37 25 15 12 13 24 40 51 56 64 72
99 97 88 84 88 84 62 58 47 41 47 36 36 28 20 19 21 22 19 17 28 28 33 18 7 7 10 14 19 26 30 36 35 28 17 12 11 13 18 40 54 59 66 73
98 97 96 95 85 80 77 74 68 59 54 40 32 31 30 23 22 21 16 24 28 43 37 8 7 8 11 15 20 25 27 29 26 20 15 10 9 9 14 25 51 64 69 72
96 95 96 88 83 79 75 72 69 65 54 35 32 35 34 27 22 18 16 21 27 19 9 7 8 10 12 17 22 23 22 23 22 20 14 7 7 9 12 19 30 56 74 79
96 96 95 81 79 76 75 73 67 56 34 25 33 38 28 25 15 13 10 18 9 8 6 8 10 12 16 19 22 22 23 23 23 17 8 9 12 16 21 24 24 33 51 80
97 95 88 85 81 77 73 71 52 45 48 34 30 26 21 19 17 12 9 9 8 7 8 11 14 16 19 21 25 26 26 26 18 9 8 10 13 18 24 33 40 43 45 57

GFSNW_700_rhum_108.txt.gz
RH
82 58 94 100 99 93 94 50 23 12 16 19 18 15 22 18 43 56 64 70 83 99 97 85 83 78 80 94 90 91 80 79 91 98 92 94 90 95 92 80 88 73 73 82
60 56 99 98 99 78 94 39 11 17 21 17 18 17 19 23 40 56 60 74 80 84 86 70 69 81 85 95 92 86 95 92 80 65 75 79 76 75 81 83 81 99 80 79
53 96 99 97 97 95 52 15 13 21 30 18 16 20 19 27 39 54 58 72 79 74 82 66 60 79 93 94 94 100 94 100 100 97 99 97 82 71 75 70 66 78 78 76
95 99 98 82 93 97 30 13 13 27 19 15 15 24 17 26 41 52 61 74 74 63 57 60 54 64 92 100 97 100 97 98 86 91 90 99 84 71 75 79 77 69 75 72
98 99 92 96 88 97 23 13 17 32 15 17 14 24 18 29 42 48 58 62 70 77 53 54 50 64 79 89 98 100 99 93 90 92 94 95 84 80 97 92 82 70 74 74
96 94 97 98 98 50 24 8 37 29 16 12 19 23 12 32 43 50 55 67 70 66 69 74 59 64 72 80 98 98 95 84 83 76 83 92 76 91 85 94 87 84 84 86
98 97 97 98 95 28 14 12 51 17 16 12 23 17 10 34 41 49 52 60 65 65 63 68 72 73 78 83 96 98 88 76 75 69 67 85 75 89 92 97 93 91 96 94
97 98 96 98 59 19 10 75 51 16 14 14 20 12 11 34 42 47 51 53 53 55 62 69 75 84 82 90 89 88 85 83 84 72 74 74 82 76 97 99 88 92 89 83
99 98 97 79 22 8 14 90 72 15 14 15 16 12 17 32 38 43 46 50 52 55 64 64 74 79 86 85 76 71 74 78 81 81 75 82 86 77 78 81 96 98 92 84
98 98 76 31 9 10 78 62 18 16 12 14 13 14 22 33 37 40 37 44 54 54 61 66 70 82 78 85 83 83 73 72 73 82 83 81 77 72 83 80 81 88 90 86
95 84 36 39 10 50 59 61 15 16 11 15 15 18 26 29 30 32 37 46 46 51 60 56 61 70 74 79 83 84 75 74 77 79 83 86 77 70 68 72 94 95 89 84
96 97 69 14 8 59 63 59 13 16 9 14 16 19 23 26 29 31 32 34 35 36 43 45 49 56 67 72 80 78 82 77 79 73 79 77 81 85 80 82 82 79 77 75
98 97 91 17 28 45 59 14 13 15 12 16 20 17 19 23 25 21 30 30 29 30 35 43 45 43 47 69 78 76 75 81 83 78 75 80 81 83 81 79 80 81 81 79
98 97 37 47 74 64 43 13 16 14 12 17 19 20 21 21 21 23 25 26 20 20 20 24 26 31 30 47 50 58 72 73 78 80 73 75 78 81 83 86 89 90 84 75
98 94 67 89 67 57 15 16 16 16 14 14 14 18 20 19 17 16 15 15 15 16 17 17 18 21 26 26 34 37 44 53 60 68 71 77 77 80 80 83 84 81 89 76
98 98 97 96 75 58 16 18 18 16 15 16 15 17 17 17 16 16 15 16 16 17 16 18 17 18 22 24 22 17 22 39 54 65 74 72 73 80 82 82 81 79 81 81
98 98 98 95 82 56 16 18 19 13 14 14 13 15 17 17 16 16 17 16 17 18 18 17 18 19 21 20 16 16 22 24 40 50 57 62 68 69 71 72 74 77 82 86
98 98 98 94 83 54 19 18 18 12 12 11 9 10 17 16 17 20 19 18 16 16 19 17 18 20 22 14 12 15 20 24 28 32 37 42 45 48 50 54 59 61 64 65
98 98 98 95 70 54 21 18 19 14 13 8 6 8 12 14 17 19 20 19 20 17 19 19 19 20 15 11 11 15 20 25 30 35 40 43 42 40 38 43 54 55 58 60
98 98 98 96 69 36 21 20 22 18 14 9 7 6 7 12 14 18 22 20 18 20 20 17 19 9 11 12 11 14 18 24 28 32 35 37 35 23 18 14 14 26 37 43
97 97 97 92 50 24 22 22 22 20 19 18 13 9 9 12 19 18 17 23 19 18 21 22 17 6 5 6 9 12 17 21 27 31 33 32 24 18 12 10 13 21 36 43
100 98 96 94 30 23 21 22 22 23 22 22 23 19 11 11 16 20 19 16 15 19 22 21 13 5 5 4 6 10 16 20 24 30 34 27 18 11 7 8 10 21 38 46
98 97 91 43 32 25 25 26 27 31 34 29 32 26 18 15 15 17 17 14 17 16 18 11 5 5 4 5 6 9 14 19 23 28 28 22 15 10 6 6 8 13 24 41
97 95 92 78 75 63 47 37 38 43 47 44 35 30 26 19 16 17 12 15 15 17 14 5 5 5 5 5 7 10 16 20 23 25 24 19 17 12 6 6 8 11 18 40
97 96 96 91 87 73 71 69 63 52 51 46 36 36 33 23 20 16 12 11 17 12 6 6 5 5 5 6 8 12 16 18 20 21 21 20 16 7 7 9 12 14 16 23
97 96 97 85 82 81 76 74 74 66 58 41 39 38 33 26 18 14 11 13 7 5 5 4 5 6 7 8 10 12 16 18 20 22 22 19 10 8 9 10 14 17 24 29
96 97 90 90 83 84 78 78 74 67 44 37 36 34 25 24 21 14 10 8 8 6 7 6 6 9 10 12 13 16 18 21 23 24 22 11 9 10 10 10 12 18 29 39

GFSNW_700_rhum_111.txt.gz
RH
88 91 73 78 96 98 99 98 86 91 28 18 29 34 28 24 36 52 62 70 71 67 75 63 71 74 87 100 100 88 78 77 89 92 96 94 97 100 97 83 84 80 79 95
86 86 75 79 100 98 98 100 89 39 54 24 31 26 22 22 40 57 59 69 68 58 56 69 74 80 97 99 100 93 77 68 72 64 73 71 77 85 89 77 76 94 84 87
87 95 58 59 96 100 98 96 94 35 16 30 30 27 21 22 50 53 60 66 68 59 54 63 71 70 89 100 98 99 98 84 93 96 95 92 77 71 76 64 72 84 80 78
96 99 85 81 98 99 100 98 84 33 20 34 23 23 21 22 42 53 59 68 60 56 50 54 57 60 69 97 100 97 92 99 97 90 91 95 73 65 78 64 76 73 78 75
97 100 98 95 98 98 98 94 30 24 22 31 30 20 23 20 36 47 60 62 65 65 49 46 52 63 71 82 91 86 88 90 93 99 98 85 76 89 83 81 80 77 76 76
96 97 100 92 95 96 98 55 18 16 34 17 18 17 21 21 44 51 58 64 66 71 78 64 52 71 70 72 78 84 80 78 76 80 91 84 71 86 93 85 88 87 84 91
97 98 94 92 97 96 81 27 17 42 32 18 15 22 19 31 46 50 59 64 68 66 68 74 66 60 64 80 78 80 80 73 72 71 72 84 85 93 94 90 96 90 87 86
98 97 93 75 98 91 57 10 42 36 16 16 18 20 14 38 44 50 56 59 60 60 63 76 77 87 87 91 85 81 79 74 72 68 79 88 89 97 100 97 97 94 87 78
100 100 100 79 85 62 19 10 43 21 16 15 22 17 16 37 44 49 51 51 50 58 61 60 68 75 82 74 77 76 72 75 71 74 72 82 81 84 92 92 99 98 90 82
100 99 97 96 95 75 11 51 69 60 21 12 19 14 18 36 41 43 44 46 52 55 56 56 59 75 75 79 79 78 70 68 72 76 81 83 79 71 79 68 89 98 89 87
100 98 96 96 53 12 36 70 82 24 13 14 16 14 24 33 37 39 34 44 49 49 55 53 55 62 70 74 76 78 74 72 72 75 80 84 75 72 72 69 83 85 82 79
96 95 91 42 15 10 50 49 24 16 12 16 17 21 30 34 35 33 35 34 33 37 40 43 45 50 63 64 68 71 76 73 72 70 68 69 75 77 75 76 78 78 74 73
92 95 82 44 9 30 64 56 45 16 13 18 19 24 29 30 28 31 31 31 30 30 31 39 41 39 41 52 60 62 64 72 72 71 72 73 74 74 74 73 70 71 75 75
92 92 91 29 14 44 64 66 38 15 16 21 18 22 24 25 28 24 23 30 26 24 22 22 25 25 24 31 38 42 53 62 68 68 68 72 72 72 74 78 77 79 79 77
98 86 68 77 32 63 70 44 14 15 18 19 19 19 19 20 20 21 23 23 20 15 15 15 15 16 18 19 21 16 23 32 46 48 63 69 70 72 75 77 76 78 81 82
99 94 92 17 21 76 52 18 15 15 18 19 20 19 21 21 20 18 14 14 15 15 14 15 13 14 16 16 14 12 13 18 32 46 56 60 63 67 72 72 72 73 75 76
98 99 94 38 55 78 42 17 18 15 18 20 16 16 18 17 16 15 13 14 15 15 15 14 14 14 14 13 10 9 12 15 20 31 41 48 54 59 60 60 61 61 63 67
98 98 92 59 86 85 19 17 20 16 18 18 13 12 16 14 15 16 16 16 15 15 16 13 14 15 13 8 6 7 9 13 16 21 26 32 36 39 42 44 46 48 50 52
97 98 99 96 79 36 18 18 20 18 20 13 8 9 12 12 15 16 17 17 18 15 15 15 13 15 10 7 6 6 8 11 15 20 24 31 37 38 32 24 18 17 22 36
97 97 91 79 62 30 21 20 23 20 17 13 7 6 9 12 13 16 19 18 17 16 15 14 12 6 7 8 8 6 6 10 13 16 22 27 31 31 23 18 15 12 12 14
97 97 98 88 76 39 23 21 25 21 18 15 10 7 8 12 19 16 16 19 16 14 15 14 13 6 5 5 6 6 7 9 12 16 21 27 31 27 21 12 8 6 7 10
97 98 96 96 93 29 23 23 22 22 20 21 18 11 8 11 17 19 16 13 14 15 15 12 7 6 5 4 4 5 6 8 12 16 19 24 26 23 17 12 7 5 6 8
96 97 96 92 46 27 25 23 23 25 27 24 23 19 14 14 14 15 15 12 13 12 12 9 7 7 5 4 4 5 6 8 12 15 18 20 22 19 16 14 9 6 6 7
96 95 95 83 68 49 29 24 24 32 37 37 26 25 23 18 14 14 11 13 12 11 9 6 7 5 5 5 4 5 8 10 12 16 18 19 19 18 17 15 7 7 8 9
96 94 84 70 66 70 45 35 27 29 37 45 32 32 29 20 15 14 12 12 11 9 7 7 6 5 5 5 5 6 8 11 14 16 17 18 18 18 18 12 8 7 7 11
97 96 97 82 78 81 72 64 48 38 42 44 39 34 32 22 19 17 15 14 8 7 7 6 4 4 5 5 6 6 8 12 15 17 18 19 20 19 14 8 7 6 7 9
96 93 86 86 79 83 80 75 76 67 53 47 40 36 34 29 25 20 18 16 14 7 5 6 9 7 6 7 8 9 11 13 16 19 21 23 23 21 14 10 9 8 7 10

GFSNW_700_rhum_114.txt.gz
RH
95 93 91 84 72 98 91 98 100 92 97 40 69 39 24 27 29 54 65 63 67 51 48 54 64 76 91 100 71 100 78 73 98 97 97 87 91 100 99 87 76 75 73 96
97 88 89 76 95 98 87 99 98 98 96 67 76 28 26 29 36 63 65 60 63 46 43 57 68 86 96 100 99 96 98 80 81 66 86 76 91 89 69 71 75 98 72 95
95 84 83 68 97 97 98 98 96 96 81 82 40 26 30 29 46 64 61 61 62 44 42 53 64 73 96 98 88 98 90 100 97 89 99 90 96 71 64 76 80 80 86 89
85 89 82 67 95 96 97 97 95 89 64 70 30 31 26 31 49 58 59 63 60 48 44 47 58 66 92 100 97 85 87 96 97 96 89 98 96 93 70 72 80 83 91 89
91 94 88 66 88 95 97 90 93 84 43 32 21 32 24 27 41 48 51 61 47 47 42 45 55 68 87 92 94 89 88 90 91 98 90 94 95 88 93 82 87 90 88 84
93 96 79 59 58 88 82 77 92 79 49 23 37 34 25 24 42 47 58 64 66 61 44 43 56 76 81 82 83 82 82 86 84 90 83 75 81 95 99 92 86 89 91 88
93 97 100 87 63 75 72 98 86 65 23 30 23 23 28 23 46 50 56 63 61 64 57 45 46 61 69 76 80 77 77 73 71 74 70 68 97 95 98 88 91 89 84 81
96 92 88 78 90 75 90 86 30 33 24 23 21 25 28 30 48 52 62 63 59 57 68 75 75 80 78 78 77 73 71 69 73 70 75 86 87 96 91 94 95 91 85 77
91 61 61 68 67 85 98 41 36 26 18 18 17 26 18 37 46 54 64 57 53 57 60 60 68 79 68 70 72 65 66 70 75 68 70 67 72 87 94 93 100 92 86 80
90 61 64 89 94 99 90 30 45 24 27 16 20 22 20 40 46 47 48 46 48 55 56 56 61 79 69 85 71 63 61 60 76 81 76 76 69 70 73 74 90 88 84 82
100 87 85 93 83 97 65 22 40 48 49 15 20 16 24 37 41 44 40 47 46 49 55 54 49 57 61 63 59 67 69 71 73 66 81 78 68 66 71 63 76 75 79 75
95 93 89 92 78 60 18 36 72 57 16 17 19 14 30 38 40 40 33 37 35 41 43 39 41 43 51 50 72 55 66 63 71 64 66 64 67 65 64 64 69 72 70 65
98 94 78 69 58 23 23 54 17 16 12 17 17 22 32 35 38 34 33 29 32 30 33 36 36 33 34 42 42 44 44 50 62 63 66 67 68 67 67 66 65 63 63 64
99 97 93 94 43 19 53 41 30 16 15 18 21 28 32 33 29 30 28 31 24 26 25 23 24 24 21 24 29 29 32 38 48 54 61 66 68 68 70 67 66 65 63 62
94 94 71 18 21 32 58 52 42 18 17 18 19 27 27 27 27 27 21 24 26 19 15 16 16 15 18 16 17 11 11 16 28 33 46 58 60 57 60 64 66 66 68 65
87 52 22 42 46 50 61 48 38 16 12 16 18 18 20 21 21 18 19 19 17 13 12 14 13 12 14 13 11 7 8 10 18 28 36 50 55 52 52 56 57 59 61 60
92 84 55 28 42 54 55 39 25 16 13 16 17 18 20 19 19 17 14 12 13 13 14 12 12 12 13 10 7 6 6 8 11 18 26 34 40 44 43 45 42 40 40 41
97 96 54 48 44 45 61 44 22 17 14 17 15 13 16 16 15 15 13 13 13 13 14 12 12 12 11 7 4 4 5 6 8 12 16 21 24 28 30 32 33 32 31 32
97 94 82 74 29 64 54 40 21 18 15 15 12 10 13 14 14 14 14 14 15 13 12 13 11 12 8 6 4 4 5 6 7 10 14 19 23 26 27 24 16 15 15 14
98 99 70 54 64 61 56 22 18 21 18 14 9 6 10 12 12 14 16 14 14 14 12 12 10 5 6 6 6 5 4 5 6 8 11 15 20 24 24 20 17 13 8 7
99 98 98 84 72 76 28 19 20 21 19 15 11 8 7 13 17 15 14 17 14 13 13 13 11 7 6 4 5 6 5 5 6 7 10 13 16 20 21 20 15 11 8 6
99 98 94 92 82 34 27 22 21 22 20 18 14 10 7 11 18 16 14 12 13 14 12 11 7 7 6 5 4 5 6 5 6 8 10 13 15 18 20 18 14 13 10 7
97 96 95 74 58 50 42 25 22 21 23 22 22 15 9 11 16 15 15 12 12 11 11 9 9 9 8 5 5 4 5 6 6 8 11 13 15 17 17 16 15 14 11 8
97 96 96 86 71 65 40 30 23 20 24 30 25 21 16 13 15 14 13 13 12 10 9 10 12 9 6 5 5 4 5 6 7 9 12 14 16 17 15 15 15 15 11 8
96 94 90 77 69 62 52 32 23 20 25 33 31 26 23 18 16 14 12 13 13 11 10 13 15 18 9 5 4 4 5 6 8 11 13 14 14 14 15 16 15 13 9 8
97 94 94 73 62 60 62 55 38 26 25 31 34 31 29 22 17 17 15 16 17 17 15 10 13 10 4 6 5 4 5 6 8 11 13 13 15 16 17 15 15 15 11 8
96 93 85 86 64 66 95 87 46 36 32 34 38 34 32 28 23 22 20 20 25 18 14 12 6 6 13 12 6 6 6 8 10 11 14 16 18 17 16 16 17 17 14 11

GFSNW_700_rhum_117.txt.gz
RH
85 91 89 83 93 88 80 98 99 95 76 97 65 60 41 31 22 24 47 58 84 94 92 76 49 58 78 100 89 98 100 96 97 90 91 98 98 99 100 98 71 84 71 97
85 93 88 90 95 75 77 98 97 100 98 96 54 56 41 26 24 32 54 66 76 67 84 79 66 65 79 100 99 95 100 100 98 74 85 91 97 94 71 72 83 76 73 97
84 90 83 94 94 98 66 99 99 100 98 87 92 67 27 25 22 36 59 66 74 73 81 56 73 60 72 100 96 91 98 99 99 87 97 99 97 87 75 74 82 91 99 98
84 87 95 94 95 98 78 100 97 85 86 90 72 48 30 26 25 46 61 68 72 60 64 72 83 58 83 89 93 98 100 99 97 94 100 96 92 90 83 79 82 91 92 97
82 90 85 85 91 97 99 99 95 83 92 76 76 30 30 26 26 48 58 68 70 59 50 51 66 64 78 82 93 88 91 98 94 90 86 86 99 94 96 90 87 90 92 100
78 85 81 85 73 95 90 88 94 93 53 35 43 50 29 27 34 47 53 66 57 54 45 44 58 67 72 74 76 81 92 95 91 79 84 80 71 99 99 100 95 94 97 99
82 77 72 68 59 81 75 79 95 81 46 32 30 35 37 27 41 49 62 65 68 68 61 45 53 53 67 78 79 76 73 77 83 65 64 60 96 100 99 95 92 98 88 82
70 77 61 51 53 69 65 80 85 70 38 29 30 22 30 23 46 54 62 58 55 56 62 94 93 91 89 74 72 74 70 75 74 62 65 83 91 93 94 99 91 85 82 77
58 60 50 40 54 62 70 61 38 30 22 22 24 25 28 29 49 56 60 58 51 54 54 63 79 67 76 78 66 62 62 65 82 72 64 60 79 78 77 80 98 84 79 76
53 38 34 30 39 66 66 42 34 23 26 20 19 27 22 39 53 60 57 47 51 52 50 87 84 68 58 68 69 76 72 66 72 67 67 80 65 76 78 81 96 85 78 72
26 21 27 42 61 85 33 43 40 40 39 19 19 21 21 42 49 53 44 48 48 50 54 79 70 75 74 65 56 67 69 64 59 66 63 71 70 75 89 68 69 71 72 61
53 50 52 64 86 87 33 30 38 63 23 18 22 16 30 43 46 45 40 41 39 42 45 40 42 57 46 54 54 43 64 61 71 66 69 54 62 60 59 64 75 71 64 60
64 76 75 82 80 68 59 24 59 25 14 19 18 14 33 38 41 38 35 28 34 32 34 35 36 33 34 64 60 55 33 35 48 51 48 52 56 57 58 59 57 54 51 53
64 78 68 54 43 37 20 53 18 16 14 17 16 19 31 34 36 33 32 34 26 29 27 24 24 23 18 21 24 25 30 23 28 36 42 46 47 48 51 53 53 54 54 51
67 74 53 56 36 13 47 31 30 16 16 17 18 25 30 32 29 29 29 25 26 26 20 17 16 14 16 13 13 7 8 10 16 42 25 39 39 39 41 44 44 48 50 54
68 59 55 66 44 24 50 50 43 23 12 16 17 22 26 26 25 27 23 20 22 19 14 13 12 11 12 12 9 4 5 6 10 15 18 26 33 36 36 38 38 38 41 43
76 74 74 73 24 23 52 46 33 23 15 14 16 15 16 19 21 20 18 17 15 13 13 11 10 11 12 10 5 4 4 4 6 7 10 14 18 22 23 26 28 27 26 27
83 86 81 29 32 38 49 39 34 20 16 12 15 12 12 14 14 17 15 13 12 12 12 10 9 9 9 6 5 3 4 4 4 4 6 8 10 12 14 17 20 21 18 14
70 32 24 44 58 51 50 47 42 28 18 13 12 10 11 14 14 15 15 13 13 12 10 11 10 10 7 6 5 4 4 4 4 4 5 6 8 11 12 14 14 11 12 13
62 34 32 37 44 48 44 48 40 34 23 18 11 8 7 12 13 13 15 15 14 14 10 10 9 5 6 6 6 6 5 4 4 4 5 5 7 10 11 13 12 13 12 10
99 84 60 55 58 54 51 52 29 24 20 19 16 11 7 10 16 14 13 19 15 14 13 13 11 8 8 5 5 5 6 5 5 6 6 6 7 8 10 11 12 12 11 10
96 92 80 77 75 65 63 41 29 20 19 18 16 11 8 7 14 16 15 11 12 15 13 11 8 10 8 6 5 5 5 6 5 5 6 7 8 9 10 12 12 12 11 11
98 98 98 93 84 75 54 29 28 22 24 21 18 14 10 8 12 17 15 12 12 12 12 10 12 11 10 10 6 5 5 5 6 6 6 8 9 11 12 14 14 13 12 12
97 97 96 94 78 73 51 40 34 33 29 26 24 20 14 10 13 16 12 14 12 11 11 14 17 15 12 11 7 5 5 5 6 7 8 9 12 13 15 15 13 14 14 14
96 95 94 88 78 65 59 50 40 34 30 22 28 28 21 16 14 14 13 13 13 12 12 18 17 21 22 15 8 6 5 5 6 8 10 12 14 15 14 14 15 16 14 13
96 92 90 88 77 65 60 55 46 31 29 25 27 32 26 22 15 16 14 15 15 21 25 19 18 20 22 10 7 9 5 5 7 9 11 14 16 15 15 16 15 15 15 15
96 90 77 81 81 66 65 64 57 32 27 26 30 35 28 28 24 20 18 17 22 27 26 21 17 20 14 6 13 15 7 6 7 9 10 12 13 16 16 16 18 18 16 16

GFSNW_700_rhum_120.txt.gz
RH
76 75 90 85 97 97 87 97 98 98 98 95 95 39 53 40 33 38 76 78 82 87 76 83 57 80 93 100 99 97 95 98 95 96 97 100 100 91 90 96 96 97 95 98
74 83 88 85 91 92 79 96 98 100 90 97 84 50 50 36 40 67 62 63 63 59 75 77 83 79 96 96 98 89 96 94 96 86 76 86 98 79 79 76 82 97 96 98
75 85 82 82 85 79 70 96 99 100 91 94 94 67 36 34 39 64 60 58 60 67 72 60 64 59 88 84 94 98 94 94 94 98 98 99 98 85 71 76 92 97 99 98
77 77 75 84 76 61 74 96 91 92 94 92 87 66 51 47 43 50 57 59 62 79 76 69 66 56 79 79 99 99 92 88 88 92 97 84 92 98 87 78 80 96 98 99
73 72 69 81 78 71 65 89 86 90 96 89 54 39 40 58 36 56 58 63 63 57 65 70 65 60 70 81 98 93 100 88 83 84 86 82 82 91 95 96 98 93 98 100
68 64 59 74 86 65 61 81 90 78 61 71 79 81 37 34 38 50 54 62 54 56 46 46 59 66 64 71 77 80 84 92 89 78 65 73 72 97 99 99 98 93 95 97
56 53 52 61 78 74 80 96 74 71 44 45 58 46 34 26 36 44 56 61 75 65 55 52 55 56 63 68 70 71 72 77 75 70 59 80 96 98 97 96 100 99 92 74
44 39 42 57 68 75 84 84 70 42 39 44 42 28 34 22 40 49 57 55 57 54 58 80 90 81 76 64 60 64 63 70 77 66 70 80 82 89 96 96 89 86 79 81
31 31 35 42 62 73 73 79 38 24 31 27 24 27 26 26 44 53 58 55 53 56 46 76 80 72 74 79 60 57 58 61 75 62 64 76 86 78 81 91 100 88 81 74
20 24 29 37 60 59 67 30 24 34 28 19 20 24 22 35 48 54 61 54 48 49 49 85 80 72 55 72 68 74 60 70 71 67 64 72 60 68 73 78 98 91 73 62
16 19 25 47 51 64 28 28 41 45 18 17 21 19 21 37 44 50 52 47 47 48 58 83 73 75 66 64 54 64 66 64 62 61 65 70 57 67 69 76 67 63 66 61
13 15 19 34 54 28 41 37 50 50 16 16 20 14 25 38 43 44 43 41 41 44 50 50 49 76 43 60 60 34 55 60 61 62 60 44 51 53 54 56 61 64 62 55
13 22 39 61 45 23 36 46 50 17 14 17 16 14 28 34 38 38 35 29 37 37 38 39 37 35 39 65 58 45 30 32 40 42 37 47 54 53 52 53 54 53 52 53
23 36 53 60 24 24 35 48 17 15 14 15 14 15 26 30 33 32 31 31 27 30 28 25 22 22 21 25 20 23 32 21 23 27 33 38 38 40 42 44 46 49 51 50
46 49 61 54 21 21 48 21 23 14 12 14 15 18 24 26 29 28 26 26 27 26 23 17 15 13 14 12 10 5 5 8 11 12 21 27 26 27 30 34 35 33 35 36
70 63 39 25 19 18 39 30 35 22 11 12 16 19 22 25 25 22 23 20 19 20 17 13 10 10 11 9 5 3 3 3 4 7 9 12 24 23 25 27 26 24 26 26
75 56 45 36 19 21 46 45 39 28 16 10 12 11 15 20 20 20 19 16 15 14 11 9 9 9 10 7 5 4 4 3 3 3 4 6 8 11 10 13 14 15 16 17
70 60 66 48 20 20 38 48 39 29 18 12 12 10 9 11 12 13 13 13 12 9 10 8 8 8 8 6 5 4 4 4 4 4 4 4 4 6 6 8 10 11 10 8
68 67 61 77 61 23 29 39 38 33 20 13 11 11 8 10 10 11 12 13 10 10 8 9 9 9 7 5 5 5 5 4 4 4 4 4 4 5 5 6 7 7 7 8
80 84 94 97 62 38 40 45 37 40 38 29 15 10 8 9 12 11 12 11 11 11 10 9 7 6 6 6 6 6 6 5 6 6 6 5 5 6 6 7 7 7 8 8
82 93 98 88 58 51 59 54 44 35 32 30 23 16 11 7 10 12 11 13 12 11 14 12 10 9 9 7 6 6 5 6 5 6 7 8 8 8 9 9 10 10 10 9
81 79 79 51 35 44 49 56 48 36 27 23 18 15 13 9 8 13 12 10 10 13 15 12 10 14 12 10 9 7 5 5 6 6 6 7 7 8 9 10 10 11 11 12
97 84 43 50 60 72 76 60 42 31 24 22 20 15 15 11 8 13 13 11 11 12 12 10 12 14 15 12 12 9 6 5 5 6 6 6 7 7 8 9 10 11 11 12
96 96 97 90 89 81 74 68 54 42 29 24 22 17 15 12 9 14 12 14 12 12 12 14 19 21 20 14 15 15 8 5 5 5 7 7 7 8 8 10 10 10 10 13
100 99 92 82 68 67 67 64 67 60 39 25 25 23 20 16 11 11 12 13 14 12 12 15 19 22 21 21 23 20 9 6 5 6 7 8 8 9 10 10 10 9 11 14
96 94 83 69 76 70 67 61 57 50 33 26 27 30 27 21 13 13 11 14 13 16 21 25 24 24 26 26 27 15 8 5 5 6 7 7 9 9 10 10 9 11 13 16
98 96 87 68 75 72 74 72 63 57 41 29 30 34 30 31 24 17 14 13 13 18 23 28 27 22 22 30 26 13 16 20 14 6 6 7 8 10 10 10 12 14 17 24

GFSNW_700_rhum_123.txt.gz
RH
68 78 83 88 90 82 67 63 95 94 98 91 48 56 61 42 40 74 98 92 84 75 64 79 68 94 86 100 96 93 96 98 96 95 99 99 98 96 91 90 91 96 97 98
67 77 80 90 87 81 93 88 84 90 89 93 84 50 52 41 50 74 71 68 66 62 71 84 83 72 89 95 92 91 92 87 90 74 90 85 90 79 72 72 83 100 98 98
66 70 74 76 72 71 85 73 78 87 88 84 58 59 41 44 50 73 71 66 51 60 72 77 74 74 97 98 98 90 88 99 98 98 98 100 98 76 72 74 92 95 98 98
60 63 64 64 61 67 68 57 76 89 93 77 62 47 54 50 49 68 69 62 51 50 66 80 63 79 87 92 98 86 82 97 90 98 97 85 94 85 80 92 89 94 95 90
52 53 55 49 48 58 66 65 75 85 83 78 70 55 53 54 60 64 72 56 46 44 55 62 59 68 72 80 88 100 97 86 85 86 82 78 91 88 91 84 91 84 79 82
43 42 38 37 42 45 65 72 68 69 66 67 68 66 41 42 56 59 62 51 49 43 44 63 68 64 65 72 76 75 80 84 83 68 66 71 82 96 89 92 88 80 80 94
36 32 30 26 37 62 70 49 33 33 39 45 45 45 35 38 47 49 56 58 44 38 44 52 60 68 68 64 65 62 62 63 69 64 65 90 92 97 86 86 92 91 83 85
27 32 46 54 65 68 56 45 27 22 28 27 27 32 25 39 48 56 54 54 48 45 55 64 68 72 65 67 63 61 59 64 64 62 82 90 97 95 94 85 84 79 77 78
33 47 49 53 61 60 51 25 20 20 19 21 20 21 26 39 46 51 54 51 57 48 65 79 75 76 66 58 56 56 58 66 66 64 68 80 80 80 94 96 87 81 75 61
34 40 46 48 56 56 29 30 18 15 15 18 21 18 26 31 40 46 52 45 51 45 58 70 75 65 61 70 69 47 52 72 68 66 63 60 62 73 77 85 85 78 61 48
33 38 43 42 48 39 26 36 19 12 14 18 16 20 32 34 42 34 31 35 40 40 52 77 57 79 58 61 55 47 54 56 59 64 66 65 58 69 72 62 62 64 53 48
29 34 40 43 51 25 29 35 14 12 14 15 14 20 28 32 32 28 29 27 32 31 42 42 50 70 47 60 65 37 45 51 50 48 46 47 54 56 52 54 61 60 55 51
23 29 39 34 42 35 38 25 13 12 14 13 13 18 24 25 29 26 25 25 24 24 23 25 27 27 33 50 51 38 30 34 37 35 27 31 42 42 42 49 54 50 50 51
17 19 30 46 27 38 44 16 11 12 14 14 12 17 21 22 24 24 23 21 19 18 18 16 14 16 18 20 18 19 26 19 23 22 25 28 31 36 41 41 44 47 51 53
15 19 38 45 22 35 34 18 15 11 13 15 13 16 18 19 21 20 20 20 18 16 16 13 11 9 11 12 9 4 4 8 8 11 17 21 21 28 32 37 38 39 39 41
22 38 63 49 21 38 27 21 24 19 11 13 17 17 18 19 18 17 18 17 14 13 12 11 7 8 9 7 5 3 3 3 4 8 9 17 19 22 23 26 26 27 26 26
38 45 55 60 32 35 35 32 38 32 21 11 12 12 15 18 17 17 16 16 14 11 10 7 7 8 9 6 5 4 4 3 3 4 5 9 9 13 14 15 15 14 13 13
72 63 65 61 35 22 41 42 49 40 30 18 11 12 10 11 13 15 14 13 11 9 8 6 6 7 7 6 6 6 5 4 4 4 4 5 5 6 7 7 8 8 8 7
67 67 66 55 36 21 26 40 48 39 28 19 13 10 10 10 10 11 11 11 11 8 7 8 8 8 7 6 5 6 6 5 5 5 5 5 5 5 6 6 6 7 7 7
70 78 68 61 68 42 26 26 29 39 38 38 29 18 9 9 12 12 12 10 10 10 8 7 7 6 7 6 6 6 6 6 7 7 7 6 6 6 6 7 8 9 10 11
76 78 75 69 65 78 72 45 47 43 38 34 28 25 26 12 8 12 13 12 11 10 13 12 10 11 11 9 9 6 6 6 6 7 7 8 9 10 11 11 12 12 13 13
84 92 92 82 91 93 75 50 54 58 42 33 27 24 25 22 14 9 13 11 9 11 14 12 10 15 17 13 11 10 7 6 6 6 6 7 8 8 9 10 10 11 11 11
100 99 99 98 95 82 44 51 57 55 43 32 25 24 21 20 17 12 12 12 11 12 11 10 10 12 14 19 15 11 11 8 6 5 6 6 6 7 7 8 9 10 10 10
99 99 93 78 57 56 48 52 60 56 52 43 31 22 21 20 18 13 12 14 12 12 11 9 11 16 20 22 22 16 16 12 7 5 5 6 6 6 7 7 8 8 9 8
98 96 91 86 76 72 70 63 63 65 64 48 33 25 24 22 17 13 12 15 13 12 9 9 11 14 18 20 24 23 23 19 11 6 5 5 6 7 7 8 8 9 8 8
99 96 88 87 76 71 72 70 66 64 63 64 50 29 28 26 20 16 11 13 12 10 9 15 22 23 26 26 29 31 31 25 13 8 6 6 6 7 7 8 8 8 7 8
99 98 83 83 83 72 71 70 75 73 69 51 38 33 29 32 30 23 16 14 11 10 14 21 26 26 26 27 28 34 32 18 14 14 9 6 7 7 8 10 8 8 8 10

GFSNW_700_rhum_129.txt.gz
RH
29 29 23 25 30 34 54 59 53 62 73 75 68 42 62 94 100 100 97 88 60 54 56 63 81 91 98 90 98 97 99 98 97 98 96 91 83 78 83 90 86 97 100 92
18 15 18 33 45 48 48 48 61 36 35 38 51 39 40 51 79 86 84 73 52 53 71 78 78 88 94 96 100 98 99 90 86 93 89 81 85 77 80 82 85 94 98 92
15 16 30 39 28 30 42 49 60 68 49 44 42 33 39 65 78 67 61 57 58 68 79 65 76 91 100 98 98 98 100 98 98 91 97 87 82 75 70 75 83 91 97 96
20 15 17 28 36 39 47 54 60 55 49 35 31 31 51 63 66 59 52 62 58 59 70 74 78 79 91 93 95 88 90 99 93 96 95 82 81 85 80 74 89 92 94 95
36 34 33 43 51 56 58 57 47 39 38 35 34 39 53 56 56 53 49 52 51 55 59 63 74 78 81 83 78 78 85 89 92 95 87 83 76 84 83 76 79 89 100 93
28 35 41 52 58 54 51 39 38 36 36 32 37 42 48 52 55 45 42 46 54 50 53 56 62 71 76 75 76 71 77 77 78 70 74 74 75 83 81 83 76 70 89 83
25 33 42 56 45 31 30 27 29 27 27 30 33 42 47 49 43 44 42 39 48 54 55 58 62 67 74 76 68 60 65 66 66 67 66 67 63 67 79 76 81 60 60 53
25 32 47 49 32 22 21 17 18 16 19 24 36 45 52 52 52 54 44 40 46 51 57 60 60 61 60 62 60 56 59 63 65 66 67 58 54 64 75 66 69 55 44 44
26 43 48 33 24 22 16 16 16 15 16 22 34 44 48 48 47 50 43 45 47 56 64 61 57 48 50 44 56 57 59 54 61 65 70 73 48 59 62 71 65 53 45 41
44 48 33 35 26 24 22 17 16 16 14 20 31 40 44 47 44 43 43 38 44 48 54 56 50 41 47 44 45 40 49 55 59 59 61 38 36 48 58 58 52 48 45 38
49 48 36 37 27 34 28 16 16 16 16 20 28 34 38 36 31 31 32 32 29 36 41 36 35 40 39 36 43 35 37 43 54 57 50 39 32 42 43 38 40 40 34 31
51 52 40 37 25 34 34 15 16 15 16 20 27 34 30 24 26 26 24 23 26 24 23 22 28 27 28 32 25 23 26 26 33 32 22 19 28 35 38 32 35 34 30 33
43 46 48 47 34 28 37 16 14 14 14 16 22 30 30 25 22 23 20 17 14 15 15 15 16 16 18 19 16 17 14 15 16 19 11 12 16 20 25 21 22 19 18 16
32 35 37 40 41 28 37 19 12 13 14 13 15 21 25 27 24 20 17 14 14 14 14 13 10 10 9 9 8 9 10 9 8 6 6 7 8 8 9 10 11 10 7 6
23 28 31 31 37 35 34 27 15 12 13 14 13 14 18 19 21 23 21 18 17 17 16 15 15 10 10 9 8 5 3 4 4 4 5 5 4 6 6 6 7 7 6 6
14 18 22 27 32 43 35 38 18 18 15 11 12 15 14 16 16 17 19 19 19 17 14 15 11 9 11 9 6 6 4 3 3 4 4 5 4 5 5 6 6 6 7 7
9 11 13 16 20 35 35 33 29 22 24 21 14 9 11 13 16 18 18 18 18 20 17 11 10 9 12 7 6 6 6 5 4 3 3 4 4 5 4 5 6 6 6 6
10 11 13 14 17 28 38 26 27 34 33 35 21 12 8 8 10 12 15 18 19 15 14 10 9 8 8 6 6 7 8 7 7 6 5 4 6 5 5 6 6 7 7 7
26 22 18 21 25 52 56 50 39 28 24 27 30 26 18 9 8 9 10 13 14 12 10 9 9 9 8 6 6 7 7 8 6 6 7 6 6 6 6 6 7 7 8 8
46 46 43 42 43 46 50 64 67 51 31 28 24 21 24 26 23 23 14 12 12 13 12 10 8 6 8 10 8 6 6 7 8 9 9 9 9 9 9 9 7 8 8 10
64 59 64 71 68 68 78 65 54 49 43 40 39 36 33 33 32 32 24 13 12 12 12 11 10 7 9 11 13 12 9 7 6 7 7 7 8 8 8 8 9 10 11 13
78 73 76 81 84 77 66 69 66 62 55 50 47 41 36 32 31 32 26 19 14 14 14 13 8 10 12 10 9 10 14 11 8 6 6 7 8 8 9 10 10 10 11 12
100 100 99 92 85 91 85 74 68 60 57 49 46 39 31 29 30 31 26 14 14 15 13 10 7 7 8 8 9 12 12 14 11 8 6 6 6 7 7 8 9 10 10 11
100 100 97 88 84 84 73 58 61 59 54 50 49 46 47 35 31 27 21 17 15 16 13 9 8 8 8 11 10 12 18 20 18 11 8 6 6 6 6 7 8 8 8 9
99 97 87 80 75 68 64 65 70 68 63 58 54 54 55 52 36 27 22 17 14 12 9 11 14 15 16 18 26 25 14 15 16 10 9 8 7 6 6 6 7 8 8 8
98 96 84 68 72 65 64 58 59 62 59 59 60 62 65 58 44 32 22 17 12 14 12 11 11 11 12 14 19 22 22 13 11 10 10 10 10 8 8 8 8 9 10 11
98 96 86 77 78 64 68 70 69 70 71 68 71 70 65 57 47 43 35 36 44 36 30 23 26 24 26 30 35 32 37 31 18 13 12 11 11 10 10 9 9 12 13 16

GFSNW_700_rhum_132.txt.gz
RH
36 37 41 38 52 59 60 59 63 65 74 46 40 77 88 87 90 87 93 85 54 65 69 78 86 84 99 92 95 96 98 97 96 96 92 94 93 92 93 84 76 90 99 77
18 26 39 48 52 53 59 50 52 40 40 43 28 56 78 82 88 89 81 74 66 66 78 79 82 90 87 96 93 92 93 88 84 72 77 82 79 78 83 82 83 97 98 86
31 37 32 30 41 42 53 61 63 45 43 36 28 38 54 70 70 62 58 52 59 66 72 74 85 94 96 98 98 99 98 94 91 93 86 85 80 74 73 78 80 87 96 96
21 23 30 38 49 58 60 59 53 40 31 26 26 36 48 50 46 42 45 53 53 69 79 80 85 87 91 99 99 99 95 93 85 87 84 84 84 75 76 83 87 85 90 85
15 31 48 54 57 54 52 42 38 32 25 29 38 40 44 42 31 33 42 48 54 66 74 73 80 79 82 84 82 84 84 83 83 86 82 80 78 75 72 70 77 67 64 61
26 39 50 53 43 34 32 38 38 31 27 31 39 40 38 36 35 35 38 46 54 59 72 70 70 70 65 66 71 70 72 73 81 75 74 73 68 69 67 70 68 57 44 45
26 41 49 40 29 25 23 21 27 28 25 32 36 39 38 37 30 30 36 46 52 58 67 70 68 61 58 60 62 67 67 67 69 68 66 68 58 60 66 63 58 48 42 43
27 40 48 30 20 15 16 14 14 18 23 30 35 38 40 34 30 28 29 38 45 56 66 67 66 65 59 53 54 57 58 64 65 64 70 53 51 49 55 53 50 43 44 40
23 33 44 27 18 12 12 13 14 16 21 30 37 41 38 36 36 36 33 34 39 51 59 56 53 53 53 52 52 54 52 59 70 67 71 63 41 42 52 57 48 39 38 37
23 41 41 28 22 21 13 12 13 14 18 26 34 39 39 35 34 33 32 34 39 44 51 52 44 41 43 45 47 44 51 55 60 65 61 37 33 42 56 56 40 36 32 28
36 47 43 30 27 24 18 13 13 14 15 23 29 29 32 33 32 34 32 33 29 37 43 38 34 37 35 34 29 36 38 39 42 62 62 37 29 39 41 33 37 34 27 24
30 47 46 36 37 26 24 12 12 12 13 17 23 29 28 26 22 24 26 30 27 27 24 24 24 27 26 26 24 23 29 22 23 28 18 17 20 28 32 27 28 27 23 20
20 42 47 41 39 36 25 22 10 11 12 14 18 19 21 22 22 20 18 19 21 22 21 21 22 17 20 20 15 17 14 18 17 14 10 10 12 18 19 21 19 18 17 16
9 24 40 40 38 38 31 27 16 10 11 13 12 15 18 19 20 20 20 17 15 14 14 15 15 14 10 10 9 6 6 6 8 5 5 6 7 9 14 13 13 13 12 11
11 11 20 31 32 31 39 31 29 16 14 12 12 12 14 17 17 18 20 19 20 21 20 18 16 11 11 9 8 6 5 3 4 4 4 4 4 4 4 5 7 6 6 5
11 15 15 20 26 28 33 44 33 28 18 19 15 11 11 13 15 16 18 18 18 18 18 17 14 11 13 9 6 6 6 6 3 3 4 4 4 3 3 3 4 3 4 4
14 15 17 17 19 23 26 41 37 32 30 29 25 16 9 10 12 14 16 18 18 20 19 14 15 15 19 10 6 6 6 6 6 5 4 4 3 4 4 3 4 4 4 5
19 18 15 15 18 21 21 29 42 39 28 25 27 18 11 10 9 10 11 12 14 14 15 12 12 14 13 9 7 6 7 8 7 7 6 5 4 4 4 5 5 5 6 6
29 20 18 17 20 19 19 30 39 45 38 32 27 21 23 21 11 9 12 16 14 13 12 12 11 11 8 7 7 7 7 7 8 8 8 7 6 6 6 6 7 7 7 8
53 38 20 22 22 25 25 41 62 64 59 60 50 34 28 26 25 26 28 24 16 14 12 11 8 6 7 10 11 11 10 7 6 7 8 8 7 7 7 7 6 7 7 8
69 55 35 35 44 45 58 65 65 60 47 39 34 33 34 34 34 32 32 27 16 14 14 13 9 7 7 14 13 12 12 12 10 7 6 7 7 8 7 8 7 7 8 9
82 74 65 57 69 80 78 80 70 56 50 47 44 43 40 36 35 35 33 30 26 19 17 12 8 7 9 9 8 8 8 10 11 11 7 6 6 6 8 9 9 9 8 8
98 100 96 90 83 86 91 78 67 55 54 49 48 42 40 35 34 32 30 25 18 21 16 11 11 11 11 10 9 9 9 9 14 13 12 8 7 6 6 6 7 8 9 9
100 99 97 86 86 75 73 64 60 59 56 55 51 43 40 40 40 35 30 25 21 16 14 12 12 11 12 14 17 20 25 24 17 16 16 14 11 8 6 6 6 6 7 8
100 95 88 85 70 76 70 74 73 67 64 54 48 50 49 49 52 44 33 25 21 15 12 11 11 13 13 13 15 17 19 22 24 24 18 12 10 10 10 8 6 6 6 7
100 97 84 74 72 73 72 64 69 77 70 63 58 60 56 55 55 43 42 28 20 18 15 16 14 14 14 14 20 34 38 39 40 43 43 41 24 13 10 10 10 8 7 7
100 100 89 77 69 79 79 78 73 68 75 71 62 59 60 61 59 51 50 47 45 42 43 40 40 44 47 48 50 51 51 51 50 50 52 51 55 52 35 21 13 13 13 11